[[{"header":{"parameterUnit":"m.s-1","parameterCategory":1,"la1":30.6,"la2":29.2853,"lo1":-89.7004,"lo2":-87.6739,"dy":0.0162,"dx":0.0183,"nx":112,"ny":82,"refTime":"2023-06-01T06:00:00:Z","depth":0,"parameterNumber":2,"parameterNumberName":"U-component_of_WINDS"},"data":[0.0,0.0,0.0,0.0,0.0,0.0,0.0,0.0,0.0,0.0,0.0,0.0,0.0,0.0,0.0,0.0,0.0,0.0,0.0,0.0,0.0,0.0,0.0,0.0,0.0,0.0,0.0,0.0,0.0,0.0,0.0,0.0,0.0,0.0,0.0,0.0,0.0,0.0,0.0,0.0,0.0,0.0,0.0,0.0,0.0,0.0,0.0,0.0,0.0,0.0,0.0,0.0,0.0,0.0,0.0,0.0,0.0,0.0,0.0,0.0,0.0,0.0,0.0,0.0,0.0,0.0,0.0,0.0,0.0,0.0,0.0,0.0,0.0,0.0,0.0,0.0,0.0,0.0,0.0,0.0,0.0,0.0,0.0,0.0,0.0,0.0,0.0,0.0,0.0,0.0,1.5774,1.5281,1.5043,1.488,1.5004,1.5197,1.5088,1.4741,0.0,0.0,0.0,0.0,0.0,0.0,0.0,0.0,0.0,0.0,0.0,0.0,0.0,0.0,0.0,0.0,0.0,0.0,0.0,0.0,0.0,0.0,0.0,0.0,0.0,0.0,0.0,0.0,0.0,0.0,0.0,0.0,0.0,0.0,0.0,0.0,0.0,0.0,0.0,0.0,0.0,0.0,0.0,0.0,0.0,0.0,0.0,0.0,0.0,0.0,0.0,0.0,0.0,0.0,0.0,0.0,0.0,0.0,0.0,0.0,0.0,0.0,0.0,0.0,0.0,0.0,0.0,0.0,0.0,0.0,0.0,0.0,0.0,0.0,0.0,0.0,0.0,0.0,0.0,0.0,0.0,0.0,0.0,0.0,0.0,0.0,0.0,0.0,0.0,0.0,0.0,0.0,0.0,0.0,0.0,0.0,0.0,0.0,0.0,0.0,0.0,0.0,0.0,0.0,1.5,1.4691,1.4809,1.5004,1.5343,1.5155,1.5142,1.5386,0.0,0.0,0.0,0.0,0.0,0.0,0.0,0.0,0.0,0.0,0.0,0.0,0.0,0.0,0.0,0.0,0.0,0.0,0.0,0.0,0.0,0.0,0.0,0.0,0.0,0.0,0.0,0.0,0.0,0.0,0.0,0.0,0.0,0.0,0.0,0.0,0.0,0.0,0.0,0.0,0.0,0.0,0.0,0.0,0.0,0.0,0.0,0.0,0.0,0.0,0.0,0.0,0.0,0.0,0.0,0.0,0.0,0.0,0.0,0.0,0.0,0.0,0.0,0.0,0.0,0.0,0.0,0.0,0.0,0.0,0.0,0.0,0.0,0.0,0.0,0.0,0.0,0.0,0.0,0.0,0.0,0.0,0.0,0.0,0.0,0.0,0.0,0.0,0.0,0.0,0.0,0.0,0.0,0.0,0.0,0.0,0.0,0.0,0.0,0.0,0.0,0.0,0.0,1.5647,1.5178,1.5145,1.533,1.5627,1.5754,1.5739,1.5689,1.5893,1.5482,0.0,0.0,0.0,0.0,0.0,0.0,0.0,0.0,0.0,0.0,0.0,0.0,0.0,0.0,0.0,0.0,0.0,0.0,0.0,0.0,0.0,0.0,0.0,0.0,0.0,0.0,0.0,0.0,0.0,0.0,0.0,0.0,0.0,0.0,0.0,0.0,0.0,0.0,0.0,0.0,0.0,0.0,0.0,0.0,0.0,0.0,0.0,0.0,0.0,0.0,0.0,0.0,0.0,0.0,0.0,0.0,0.0,0.0,0.0,0.0,0.0,0.0,0.0,0.0,0.0,0.0,0.0,0.0,0.0,0.0,0.0,0.0,0.0,0.0,0.0,0.0,0.0,0.0,0.0,0.0,0.0,0.0,0.0,0.0,0.0,0.0,0.0,0.0,0.0,0.0,0.0,0.0,0.0,0.0,0.0,0.0,0.0,0.0,0.0,0.0,0.0,0.0,1.5911,1.5536,1.5644,1.5957,1.6205,1.6324,1.6149,1.6175,1.6346,1.5827,0.0,0.0,0.0,0.0,0.0,0.0,0.0,0.0,0.0,0.0,0.0,0.0,0.0,0.0,0.0,0.0,0.0,0.0,0.0,0.0,0.0,0.0,0.0,0.0,0.0,0.0,0.0,0.0,0.0,0.0,0.0,0.0,0.0,0.0,0.0,0.0,0.0,0.0,0.0,0.0,0.0,0.0,0.0,0.0,0.0,0.0,0.0,0.0,0.0,0.0,0.0,0.0,0.0,0.0,0.0,0.0,0.0,0.0,0.0,0.0,0.0,0.0,0.0,0.0,0.0,0.0,0.0,0.0,0.0,0.0,0.0,0.0,0.0,0.0,0.0,0.0,0.0,0.0,0.0,0.0,0.0,0.0,0.0,0.0,0.0,0.0,0.0,0.0,0.0,0.0,0.0,0.0,0.0,0.0,0.0,0.0,0.0,0.0,0.0,0.0,0.0,0.0,1.618,1.608,1.6031,1.6312,1.6537,1.6903,1.6214,1.6097,1.6682,1.5946,0.0,0.0,0.0,0.0,0.0,0.0,0.0,0.0,0.0,0.0,0.0,0.0,0.0,0.0,0.0,0.0,0.0,0.0,0.0,0.0,0.0,0.0,0.0,0.0,0.0,0.0,0.0,0.0,0.0,0.0,0.0,0.0,0.0,0.0,0.0,0.0,0.0,0.0,0.0,0.0,0.0,0.0,0.0,0.0,0.0,0.0,0.0,0.0,0.0,0.0,0.0,0.0,0.0,0.0,0.0,0.0,0.0,0.0,0.0,0.0,0.0,0.0,0.0,0.0,0.0,0.0,0.0,0.0,0.0,0.0,0.0,0.0,0.0,0.0,0.0,0.0,0.0,0.0,0.0,0.0,0.0,0.0,0.0,0.0,0.0,0.0,0.0,0.0,0.0,0.0,0.0,0.0,0.0,0.0,0.0,0.0,0.0,0.0,0.0,0.0,0.0,0.0,1.6327,1.6276,1.6397,1.6667,1.6903,1.702,1.657,1.6474,1.6694,0.0,0.0,0.0,0.0,0.0,0.0,0.0,0.0,0.0,0.0,0.0,0.0,0.0,0.0,0.0,0.0,0.0,0.0,0.0,0.0,0.0,0.0,0.0,0.0,0.0,0.0,0.0,0.0,0.0,0.0,0.0,0.0,0.0,0.0,0.0,0.0,0.0,0.0,0.0,0.0,0.0,0.0,0.0,0.0,0.0,0.0,0.0,0.0,0.0,0.0,0.0,0.0,0.0,0.0,0.0,0.0,0.0,0.0,0.0,0.0,0.0,0.0,0.0,0.0,0.0,0.0,0.0,0.0,0.0,0.0,0.0,0.0,0.0,0.0,0.0,0.0,0.0,0.0,0.0,0.0,0.0,0.0,0.0,0.0,0.0,0.0,0.0,0.0,0.0,0.0,0.0,0.0,0.0,0.0,0.0,0.0,0.0,0.0,0.0,0.0,0.0,0.0,1.6845,1.6582,1.6495,1.6632,1.702,1.7138,1.7138,1.681,1.661,1.6694,0.0,0.0,0.0,0.0,0.0,0.0,0.0,0.0,0.0,0.0,0.0,0.0,0.0,0.0,0.0,0.0,0.0,0.0,0.0,0.0,0.0,0.0,0.0,0.0,0.0,0.0,0.0,0.0,0.0,0.0,0.0,0.0,0.0,0.0,0.0,0.0,0.0,0.0,0.0,0.0,0.0,0.0,0.0,0.0,0.0,0.0,0.0,0.0,0.0,0.0,0.0,0.0,0.0,0.0,0.0,0.0,0.0,0.0,0.0,0.0,0.0,0.0,0.0,0.0,0.0,0.0,0.0,0.0,0.0,0.0,0.0,0.0,0.0,0.0,0.0,0.0,0.0,0.0,0.0,0.0,0.0,0.0,0.0,0.0,0.0,0.0,0.0,0.0,0.0,0.0,0.0,0.0,0.0,0.0,0.0,0.0,0.0,0.0,0.0,0.0,0.0,0.0,1.7401,1.7037,1.6727,1.6997,1.7256,1.7479,1.7491,1.6754,1.6404,0.0,0.0,0.0,0.0,0.0,0.0,0.0,0.0,0.0,0.0,0.0,0.0,0.0,0.0,0.0,0.0,0.0,0.0,0.0,0.0,0.0,0.0,0.0,0.0,0.0,0.0,0.0,0.0,0.0,0.0,0.0,0.0,0.0,0.0,0.0,0.0,0.0,0.0,0.0,0.0,0.0,0.0,0.0,0.0,0.0,0.0,0.0,0.0,0.0,0.0,0.0,0.0,0.0,0.0,0.0,0.0,0.0,0.0,0.0,0.0,0.0,0.0,0.0,0.0,0.0,0.0,0.0,0.0,0.0,0.0,0.0,0.0,0.0,0.0,0.0,0.0,0.0,0.0,0.0,0.0,0.0,0.0,0.0,0.0,0.0,0.0,0.0,0.0,0.0,0.0,0.0,0.0,0.0,0.0,0.0,0.0,0.0,0.0,0.0,0.0,0.0,0.0,0.0,1.7772,1.7538,1.7349,1.7613,1.7587,1.7563,1.7744,1.7032,1.661,1.6694,0.0,0.0,0.0,0.0,0.0,0.0,0.0,0.0,0.0,0.0,0.0,0.0,0.0,0.0,0.0,0.0,0.0,0.0,0.0,0.0,0.0,0.0,0.0,0.0,0.0,0.0,0.0,0.0,0.0,0.0,0.0,0.0,0.0,0.0,0.0,0.0,0.0,0.0,0.0,0.0,0.0,0.0,0.0,0.0,0.0,0.0,0.0,0.0,0.0,0.0,0.0,0.0,0.0,0.0,0.0,0.0,0.0,0.0,0.0,0.0,0.0,0.0,0.0,0.0,0.0,0.0,0.0,0.0,0.0,0.0,0.0,0.0,0.0,0.0,0.0,0.0,0.0,0.0,0.0,0.0,0.0,0.0,0.0,0.0,0.0,0.0,0.0,0.0,0.0,0.0,0.0,0.0,0.0,0.0,0.0,0.0,0.0,0.0,0.0,0.0,0.0,0.0,1.8387,1.7993,1.7744,1.801,1.7901,1.7829,1.7865,1.7346,1.6923,1.6718,0.0,0.0,0.0,0.0,0.0,0.0,0.0,0.0,0.0,0.0,0.0,0.0,0.0,0.0,0.0,0.0,0.0,0.0,0.0,0.0,0.0,0.0,0.0,0.0,0.0,0.0,0.0,0.0,0.0,0.0,0.0,0.0,0.0,0.0,0.0,0.0,0.0,0.0,0.0,0.0,0.0,0.0,0.0,0.0,0.0,0.0,0.0,0.0,0.0,0.0,0.0,0.0,0.0,0.0,0.0,0.0,0.0,0.0,0.0,0.0,0.0,0.0,0.0,0.0,0.0,0.0,0.0,0.0,0.0,0.0,0.0,0.0,0.0,0.0,0.0,0.0,0.0,0.0,0.0,0.0,0.0,0.0,0.0,0.0,0.0,0.0,0.0,0.0,0.0,0.0,0.0,0.0,0.0,0.0,0.0,0.0,0.0,0.0,0.0,0.0,0.0,0.0,1.9244,1.8517,1.8022,1.83,1.8312,1.8191,1.7937,1.7648,1.7274,1.6767,0.0,0.0,0.0,0.0,0.0,0.0,0.0,0.0,0.0,0.0,0.0,0.0,0.0,0.0,0.0,0.0,0.0,0.0,0.0,0.0,0.0,0.0,0.0,0.0,0.0,0.0,0.0,0.0,0.0,0.0,0.0,0.0,0.0,0.0,0.0,0.0,0.0,0.0,0.0,0.0,0.0,0.0,0.0,0.0,0.0,0.0,0.0,0.0,0.0,0.0,0.0,0.0,0.0,0.0,0.0,0.0,0.0,0.0,0.0,0.0,2.1059,2.0686,0.0,0.0,0.0,0.0,0.0,0.0,0.0,0.0,0.0,0.0,0.0,0.0,0.0,0.0,0.0,0.0,0.0,0.0,0.0,0.0,0.0,0.0,0.0,0.0,0.0,0.0,0.0,0.0,0.0,0.0,0.0,0.0,0.0,0.0,0.0,0.0,0.0,0.0,0.0,0.0,1.9658,1.8928,1.8312,1.8577,1.842,1.8263,1.8215,1.7756,1.7346,1.7032,1.661,0.0,0.0,0.0,0.0,0.0,0.0,0.0,0.0,0.0,0.0,0.0,0.0,0.0,0.0,0.0,0.0,0.0,0.0,0.0,0.0,0.0,0.0,0.0,0.0,0.0,0.0,0.0,0.0,0.0,0.0,0.0,0.0,0.0,0.0,0.0,0.0,0.0,0.0,0.0,0.0,0.0,0.0,0.0,0.0,0.0,0.0,0.0,0.0,0.0,0.0,0.0,0.0,0.0,0.0,0.0,0.0,0.0,0.0,0.0,2.2208,2.1715,0.0,0.0,0.0,0.0,0.0,0.0,0.0,0.0,0.0,0.0,0.0,0.0,0.0,0.0,0.0,0.0,0.0,0.0,0.0,0.0,0.0,0.0,0.0,0.0,0.0,0.0,0.0,0.0,0.0,0.0,0.0,0.0,0.0,0.0,0.0,0.0,0.0,0.0,0.0,0.0,2.0322,1.9585,1.9075,1.9348,1.9123,1.8814,1.8557,1.8155,1.7648,1.7129,1.6948,0.0,0.0,0.0,0.0,0.0,0.0,0.0,0.0,0.0,0.0,0.0,0.0,0.0,0.0,0.0,0.0,0.0,0.0,0.0,0.0,0.0,0.0,0.0,0.0,0.0,0.0,0.0,0.0,0.0,0.0,0.0,0.0,0.0,0.0,0.0,0.0,0.0,0.0,0.0,0.0,0.0,0.0,0.0,0.0,0.0,0.0,0.0,0.0,0.0,0.0,0.0,0.0,0.0,2.6598,2.6666,2.621,2.6342,2.5913,2.4951,2.3967,2.3162,2.2593,2.2382,0.0,0.0,0.0,0.0,0.0,0.0,0.0,0.0,0.0,0.0,0.0,0.0,0.0,0.0,0.0,0.0,0.0,0.0,0.0,0.0,0.0,0.0,1.9105,1.9386,1.9492,1.9229,1.7978,0.0,0.0,0.0,0.0,0.0,0.0,0.0,0.0,0.0,0.0,0.0,2.0963,2.0279,1.9852,2.0144,1.9864,1.9499,1.9013,1.8606,1.8179,1.7462,1.7455,1.7455,0.0,0.0,0.0,0.0,0.0,0.0,0.0,0.0,0.0,0.0,0.0,0.0,0.0,0.0,0.0,0.0,0.0,0.0,0.0,0.0,0.0,0.0,0.0,0.0,0.0,0.0,0.0,0.0,0.0,0.0,0.0,0.0,2.3286,2.3096,0.0,0.0,0.0,0.0,0.0,0.0,0.0,0.0,0.0,0.0,0.0,0.0,0.0,2.571,2.6758,2.75,2.7891,2.7969,2.8443,2.8799,2.8823,2.7815,2.7454,2.7441,2.6506,0.0,2.2816,2.2623,0.0,0.0,0.0,0.0,0.0,0.0,0.0,0.0,0.0,0.0,0.0,0.0,0.0,0.0,0.0,0.0,0.0,0.0,0.0,0.0,0.0,0.0,2.1229,2.151,2.1777,2.1991,2.2005,2.0305,1.8658,1.8326,1.8326,1.8366,0.0,0.0,0.0,0.0,0.0,0.0,2.0958,2.0467,2.0157,2.0437,2.0246,1.9966,1.9636,1.925,1.8976,1.8629,1.8178,1.7805,1.7768,1.7551,0.0,0.0,0.0,0.0,0.0,0.0,0.0,0.0,0.0,0.0,0.0,0.0,0.0,0.0,0.0,0.0,0.0,0.0,0.0,0.0,0.0,0.0,0.0,0.0,0.0,0.0,0.0,0.0,0.0,2.3136,2.3295,2.3814,2.3969,2.4114,0.0,0.0,0.0,0.0,0.0,0.0,0.0,0.0,0.0,2.7793,2.7709,2.8172,2.918,2.957,3.0,3.0488,3.0477,3.0616,3.0673,2.9974,2.9474,2.9192,2.8926,2.7572,2.5818,2.4714,2.3837,2.3138,0.0,0.0,0.0,0.0,2.1137,2.0809,2.0388,2.0415,2.0643,2.0469,0.0,0.0,0.0,0.0,0.0,0.0,0.0,2.1256,2.1416,2.2004,2.2619,2.2913,2.3207,2.346,2.3581,2.2178,2.0708,2.008,1.9559,1.9287,1.9339,1.9638,0.0,0.0,0.0,2.134,2.1617,2.1176,2.1031,2.1149,2.0657,2.0245,1.9949,1.9549,1.9063,1.879,1.8423,1.8106,1.8106,1.7853,1.7756,0.0,0.0,0.0,0.0,0.0,0.0,0.0,0.0,0.0,0.0,0.0,0.0,0.0,0.0,0.0,0.0,0.0,0.0,0.0,0.0,0.0,0.0,0.0,0.0,0.0,0.0,0.0,0.0,2.366,2.384,2.4716,2.4769,2.4961,0.0,0.0,0.0,0.0,0.0,0.0,2.8134,2.8274,2.8918,3.0059,3.0391,3.0976,3.1855,3.209,3.2396,3.2642,3.2562,3.2363,3.2123,3.1582,3.1195,3.0825,3.0696,2.9822,2.8465,2.6902,2.5654,2.462,2.462,2.4491,2.397,2.3318,2.3056,2.2953,2.2525,2.2191,2.2044,2.2271,2.2191,2.2017,2.2017,0.0,0.0,0.0,0.0,2.2846,2.314,2.3661,2.4209,2.4583,2.4943,2.5237,2.5456,2.4354,2.2996,2.167,2.0681,2.0093,2.0419,2.0746,0.0,2.1398,2.1835,2.2117,2.2074,2.1781,2.167,2.167,2.1146,2.0729,2.044,1.9788,1.9325,1.9125,1.8741,1.8469,1.8396,1.8191,1.8082,1.8082,0.0,0.0,0.0,0.0,0.0,0.0,0.0,0.0,0.0,0.0,0.0,0.0,0.0,0.0,0.0,0.0,0.0,0.0,0.0,0.0,0.0,0.0,0.0,0.0,0.0,0.0,0.0,0.0,0.0,2.5752,2.5678,0.0,0.0,0.0,0.0,2.7582,2.7958,2.8557,2.9596,2.9911,3.1047,3.3144,3.3223,3.3633,3.4492,3.5332,3.5103,3.4028,3.444,3.4306,3.3526,3.2375,3.1992,3.232,3.1574,3.0807,2.9915,2.8511,2.75,2.6793,2.6793,2.6793,2.6648,2.5909,2.5618,2.5472,2.4769,2.4476,2.4462,2.4476,2.4476,2.4462,2.4462,2.4462,0.0,0.0,2.469,2.4997,2.5277,2.5798,2.6373,2.6947,2.7535,2.8184,2.8819,2.7428,2.5215,2.2739,2.1416,2.0708,2.0975,0.0,2.2131,2.1294,2.206,2.2636,2.2028,2.1951,2.1964,2.1964,2.171,2.1416,2.1109,2.0462,2.0081,2.0068,1.9419,1.8927,1.8674,1.865,1.8638,1.8638,1.8384,0.0,0.0,0.0,0.0,0.0,0.0,0.0,0.0,0.0,0.0,0.0,0.0,0.0,0.0,0.0,0.0,0.0,0.0,0.0,0.0,0.0,0.0,0.0,0.0,0.0,0.0,0.0,0.0,2.6941,2.7001,0.0,2.8555,2.8652,2.9205,3.0528,3.068,3.1257,3.2498,3.3212,3.4076,3.5078,3.5625,3.6191,3.6758,3.6227,3.5943,3.5773,3.4557,3.3957,3.3872,3.3035,3.2871,3.305,3.2569,3.1926,3.1411,3.0604,2.9427,2.8212,2.8212,2.8212,2.806,2.7282,2.6976,2.6822,2.6067,2.5758,2.5758,2.5758,2.5758,2.5758,2.5758,2.6375,2.699,2.699,2.72,2.7507,2.7829,2.7716,2.7629,2.803,2.843,2.8923,2.9363,2.7757,2.5965,2.5242,2.3229,2.1524,2.1376,2.1646,2.1774,2.1518,2.2051,2.2535,2.2245,2.2258,2.2258,2.2258,2.2004,2.166,2.1293,2.0889,2.051,2.0248,1.9854,1.9555,1.9458,1.912,1.8939,1.8939,1.8517,1.8336,0.0,0.0,0.0,0.0,0.0,0.0,0.0,0.0,0.0,0.0,0.0,0.0,0.0,0.0,0.0,0.0,0.0,0.0,0.0,0.0,0.0,0.0,0.0,0.0,0.0,2.6703,2.7199,2.8485,2.872,2.9199,3.0332,3.0703,3.1465,3.291,3.3301,3.3965,3.5098,3.5859,3.6504,3.707,3.7637,3.8144,3.8594,3.7387,3.683,3.6655,3.5037,3.4109,3.3898,3.3339,3.327,3.3476,3.2983,3.2505,3.2174,3.1662,3.081,2.9544,2.9544,2.9544,2.9384,2.8584,2.8263,2.8103,2.7297,2.6987,2.6987,2.6987,2.6987,2.6987,2.6987,2.7942,2.8891,2.8891,2.912,2.9406,2.9621,2.9077,2.8497,2.8711,2.9152,2.9703,3.0385,2.8632,2.7101,2.7607,2.5228,2.2911,2.2123,2.2467,2.2668,2.2284,2.2392,2.2605,2.2712,2.2632,2.2525,2.2432,2.2111,2.1833,2.1463,2.0933,2.063,2.0278,2.0013,1.97,1.9615,1.935,1.9205,1.9205,1.8963,1.8831,1.8831,0.0,0.0,0.0,0.0,0.0,0.0,0.0,0.0,0.0,0.0,0.0,0.0,0.0,0.0,0.0,0.0,0.0,0.0,0.0,0.0,0.0,0.0,0.0,2.7023,2.8244,2.9514,3.0419,3.0754,3.1289,3.2168,3.3008,3.3848,3.4726,3.5586,3.6445,3.7305,3.7754,3.8379,3.9219,3.9258,3.9473,3.9941,3.9069,3.7998,3.6745,3.5857,3.475,3.3476,3.3476,3.3476,3.3476,3.2983,3.2505,3.2174,3.1662,3.115,3.0817,3.0817,3.0817,3.0651,2.9816,2.9481,2.9314,2.8473,2.8136,2.8136,2.815,2.8163,2.8332,2.8332,2.916,3.0332,3.0332,3.0548,3.0792,3.0807,3.0024,2.9246,2.9085,2.9825,3.0747,3.1946,3.0441,2.8921,2.9556,2.7348,2.481,2.316,2.4066,2.4538,2.348,2.3073,0.0,2.3287,2.3073,2.2779,2.2472,2.2189,2.1815,2.1528,2.0851,2.034,2.0079,1.9781,1.9386,1.9132,1.9362,1.9495,1.9483,1.9748,1.9881,1.9881,0.0,0.0,0.0,0.0,0.0,0.0,0.0,0.0,0.0,0.0,0.0,0.0,0.0,0.0,0.0,0.0,0.0,0.0,0.0,0.0,0.0,2.8674,2.9618,2.9618,2.987,3.0661,3.219,3.2295,3.2734,3.3887,3.4785,3.5664,3.6523,3.709,3.7773,3.8633,3.9101,3.9609,4.0137,4.0469,4.0684,4.082,3.9656,3.842,3.7135,3.6637,3.574,3.4458,3.4458,3.4458,3.4294,3.2999,3.2339,3.2174,3.1331,3.0984,3.0817,3.0817,3.0817,3.0651,2.9816,2.9146,2.8473,2.8305,2.8136,2.8177,2.8404,2.9152,3.0029,3.024,3.2,3.384,3.384,3.3903,3.4045,3.4296,3.3578,3.2675,3.2232,3.2355,3.2765,3.2765,3.1247,2.988,3.02,2.9384,2.754,2.4118,2.3687,2.3814,2.3621,2.3394,2.3233,2.3313,2.3447,2.3407,2.3113,2.2994,2.2665,2.2307,2.1685,2.1118,2.0768,2.0585,2.0303,2.0231,2.0122,1.9965,1.9772,1.9845,1.9881,0.0,0.0,0.0,0.0,0.0,0.0,0.0,0.0,0.0,0.0,0.0,0.0,0.0,0.0,0.0,0.0,0.0,0.0,0.0,0.0,0.0,0.0,3.0346,3.1705,3.2354,3.1876,3.2113,3.3773,3.4024,3.457,3.5684,3.6738,3.7559,3.8066,3.8672,3.9238,3.9726,4.0176,4.0547,4.0781,4.1035,4.1172,4.1172,3.9883,3.8761,3.7791,3.701,3.6224,3.5271,3.5271,3.5271,3.5254,3.3952,3.3148,3.2639,3.1647,3.115,3.0817,0.0,0.0,0.0,0.0,2.9509,2.9184,2.8641,2.9363,3.0227,2.9741,3.0139,3.1023,3.171,3.312,3.4461,3.4983,3.5249,3.5427,3.5638,3.5004,3.4372,3.3858,3.4352,3.4789,3.4774,3.2965,3.1511,3.1817,3.0197,0.0,2.5296,2.5002,2.4862,2.4071,2.3701,2.3554,2.3674,2.3741,2.3701,2.3245,2.3093,2.2768,2.2337,2.1777,0.0,0.0,0.0,2.0509,2.0509,2.0364,0.0,0.0,0.0,2.0484,2.0435,2.0462,0.0,0.0,1.9708,1.9821,0.0,0.0,0.0,0.0,0.0,0.0,0.0,0.0,0.0,0.0,0.0,0.0,0.0,0.0,0.0,0.0,3.1754,3.3479,3.4942,3.4205,3.4117,3.5369,3.5916,3.6621,3.7441,3.8633,3.9355,3.9355,4.0117,4.0586,4.0586,4.0957,0.0,0.0,0.0,4.1172,4.1172,4.004,3.9077,3.8603,3.749,3.6689,3.6224,3.6258,3.6276,3.6276,3.5338,3.4376,3.3556,3.2566,3.1753,3.1101,3.1057,3.0905,3.0629,3.0227,3.0326,3.0539,2.9631,0.0,0.0,3.1812,3.1483,3.1827,3.3227,3.3569,3.3909,3.5265,3.5848,3.5922,3.5971,3.5605,3.5211,3.508,3.5716,3.6522,3.724,3.5306,3.3387,3.3871,3.0451,2.7203,2.6764,2.7008,2.6629,2.4526,2.4008,2.3915,2.4168,2.4008,2.3718,2.3249,2.2844,0.0,2.2137,2.1591,2.1052,2.0822,2.0557,2.0412,2.0412,2.0436,2.0678,2.1136,2.1172,2.1138,2.1172,2.1195,2.059,1.9453,2.0258,2.0455,0.0,0.0,0.0,0.0,0.0,0.0,0.0,0.0,0.0,0.0,0.0,0.0,0.0,0.0,0.0,3.1485,3.3182,3.4881,3.6309,3.6648,3.6984,3.7272,3.77,3.8281,3.8789,3.9707,4.0273,4.0273,4.0762,4.1055,4.1055,4.1133,4.1172,4.1172,4.1172,4.1172,4.1172,4.1016,4.0059,3.8603,3.9096,0.0,3.7205,3.7506,3.7647,3.7502,3.6321,3.5625,3.5275,3.3629,3.2968,3.2768,3.2495,3.1528,3.0581,3.1138,3.1338,3.1009,3.0722,3.1768,3.3166,3.3269,3.4049,3.497,3.5412,3.6371,0.0,3.7588,3.781,3.7946,3.8251,3.8484,3.8518,3.7925,3.8268,3.8347,3.7783,3.6031,3.4785,3.4949,3.2259,2.9797,2.8759,2.6457,2.4856,2.4516,2.4302,2.4142,2.4195,2.4356,2.4236,2.3562,2.3305,2.3138,2.2695,2.2154,2.1691,2.1643,2.139,2.1245,2.1245,2.145,2.1462,2.112,2.1331,2.1335,2.0991,2.0883,2.0802,2.0714,2.0591,2.0038,0.0,0.0,0.0,0.0,0.0,0.0,0.0,0.0,0.0,0.0,0.0,2.9104,2.9559,0.0,3.2333,3.3244,3.4941,3.6552,3.7738,3.8526,3.8886,3.8819,3.9121,3.9394,3.9824,4.0469,4.084,4.084,4.1055,4.1172,4.1172,4.1172,4.1172,4.1172,4.1172,4.1172,4.1172,4.1172,4.0529,3.9254,3.9745,3.9384,3.8293,3.8491,3.8689,3.8888,3.7752,3.6992,3.6342,3.4678,3.394,3.4251,3.4403,3.3646,3.2297,3.2804,3.3208,3.3395,3.2872,3.3969,3.5719,3.5208,3.5444,3.6166,3.7052,3.7275,3.7447,3.8152,3.8323,3.8426,3.882,3.9196,3.9607,3.9616,3.9856,4.0008,3.9789,3.7858,3.6257,3.6257,3.2895,2.9704,2.9256,2.678,2.4863,2.4863,2.473,2.4636,2.4636,2.4741,2.456,2.3967,2.3618,2.3404,2.2961,2.2566,2.2211,2.2078,2.1945,2.1873,2.1873,2.1846,2.168,2.1648,2.1615,2.1562,2.1502,2.1434,2.1508,2.1577,2.1337,2.091,0.0,0.0,0.0,0.0,0.0,0.0,0.0,2.7639,2.8188,2.8731,2.9808,3.0781,3.1257,3.2664,3.4072,3.5004,3.6618,3.8099,3.9183,4.0043,4.0452,4.0315,4.0223,4.0273,4.0625,4.0976,4.1172,4.1172,4.1172,4.1172,4.1172,4.1172,4.1172,4.1172,4.1172,4.1172,4.1172,4.1172,4.0743,4.0016,4.0016,3.9767,3.9355,3.9428,3.9648,3.996,3.9044,3.8066,3.7064,3.5902,3.5402,3.5489,3.65,3.5978,3.4716,3.483,3.5285,3.5677,3.4909,3.6221,3.8152,3.6929,3.6584,3.6757,3.798,3.7497,3.7029,3.8099,3.8494,3.8631,3.9025,3.9402,3.9847,4.0532,4.0994,4.1354,4.1645,3.9625,3.7589,3.742,3.3339,2.9928,2.9619,2.7509,2.5758,2.5237,2.5157,2.5157,2.5157,2.5066,2.4739,2.4278,2.3803,2.3495,2.3198,2.285,2.2645,2.2428,2.2416,2.244,2.2337,2.2082,2.1919,2.202,2.1974,2.1827,2.1904,2.2091,2.2135,2.204,2.2083,2.1954,2.6816,2.7195,2.8065,2.8589,2.8869,2.9278,0.0,3.0937,3.0977,3.194,3.2623,3.3141,3.3596,3.4507,3.55,3.6432,3.7777,3.9164,4.053,4.0837,4.1283,4.2048,4.144,4.1055,4.1094,4.1152,4.1172,4.1172,4.1172,4.1172,4.1172,4.1172,4.1172,4.1172,4.1172,4.1172,4.1172,4.1172,4.0878,4.0451,4.0451,4.0179,3.9777,4.0162,4.0363,4.0418,3.976,3.8527,3.6969,3.7673,3.7363,3.6863,3.774,3.8066,3.769,3.6502,3.5999,3.6172,3.6031,3.6929,3.8323,3.8152,3.8152,3.8152,3.8323,3.8407,3.868,3.8854,3.9094,3.9419,3.9813,4.019,4.0566,4.0994,4.1371,4.1645,4.1697,4.0652,3.9355,3.7908,3.5445,3.3045,3.167,2.9326,2.7001,2.5665,2.5464,2.5464,2.5464,2.5185,2.4739,2.4278,2.3803,2.3495,2.3198,2.3019,2.2983,2.2959,2.2959,2.2913,2.2682,2.2905,2.2831,2.2263,2.2366,2.2356,2.1911,2.1943,2.2072,2.2299,2.2161,2.2023,2.8475,2.8571,2.9052,2.9536,3.024,3.1003,3.1678,3.2057,3.2532,3.3278,3.4004,3.4631,3.4817,3.5832,3.6846,3.7508,3.875,4.0034,4.1131,4.1346,4.1686,4.2289,4.1618,4.1172,4.1172,4.1172,4.1172,4.1172,4.1172,4.1172,4.1172,4.1172,4.1172,4.1172,4.1172,4.1172,4.1172,4.1426,4.1148,4.0527,4.0754,4.0609,4.0217,4.04,4.025,3.9982,3.9787,3.9007,3.7808,3.8152,3.8152,3.7808,3.8152,3.8323,3.8152,3.7619,3.7447,3.7447,3.7447,3.7808,3.8375,3.8597,3.8666,3.8717,3.8922,3.9111,3.9231,3.9231,3.9351,3.9607,4.0207,4.0464,4.0789,4.1628,4.1936,4.2108,4.233,4.0545,3.8696,3.8132,3.5132,3.2557,3.1848,2.9831,2.8016,2.7402,2.6426,2.5617,2.5449,2.514,2.4837,2.4356,2.405,2.3952,2.3949,2.3961,2.3961,2.3961,2.38,2.3537,2.3481,2.3108,2.2718,2.2488,2.2397,2.236,2.2191,2.2471,2.2481,2.2242,2.2287,2.2287,2.9532,2.9663,3.0057,3.0821,3.1875,3.2684,3.2836,3.3556,3.4276,3.4644,3.5269,3.5977,3.5976,3.6825,3.7715,3.844,3.9599,4.0717,4.1628,4.1793,4.2028,4.233,4.1618,4.1172,4.1172,4.1172,4.1172,4.1172,4.1172,4.1172,4.1172,4.1172,4.1172,4.1172,4.1289,4.1348,4.1348,4.1758,4.1554,4.0868,4.1171,4.1039,4.0639,4.0639,4.045,3.9876,3.9706,3.9178,3.8512,3.8323,3.8323,3.834,3.8443,3.8494,3.8512,3.8597,3.858,3.8494,3.8494,3.8563,3.8683,3.8974,3.9059,3.9111,3.9385,3.9539,3.9642,3.9744,3.9847,4.0087,4.072,4.0977,4.1268,4.1508,4.1863,4.1891,4.1774,3.9898,3.8277,3.7899,3.5241,3.2959,3.2603,3.0587,2.9205,2.903,2.7397,2.6004,2.5674,2.5391,2.4951,2.4323,2.4347,2.442,2.4613,2.4625,2.4625,2.4459,2.4128,2.3998,2.3735,2.3146,2.2719,2.2785,2.2685,2.246,2.246,2.2802,2.262,2.2267,2.2317,2.224,2.9358,3.0144,3.1192,3.2634,3.3726,3.4597,3.528,3.6135,3.6731,3.656,3.6939,3.7294,3.7343,3.7467,3.7943,3.9288,4.0261,4.1172,4.2104,4.2412,4.235,4.237,4.1618,4.1172,4.1172,4.1172,4.1172,4.1172,4.1172,4.1172,4.1172,4.1172,4.1172,4.1172,4.1562,4.1777,4.1777,4.2207,4.2133,4.1739,4.1739,4.147,4.1042,4.1042,4.0892,4.0403,3.9876,3.9366,3.8854,3.8512,3.8323,3.8375,3.8751,3.8905,3.894,3.9299,3.9214,3.8905,3.8905,3.9128,3.9436,3.9453,3.9453,3.9453,3.9453,3.9727,4.0087,4.0446,4.0823,4.12,4.1577,4.1953,4.1866,4.0345,4.0497,4.0607,3.9043,3.8859,3.8455,3.7056,3.6621,3.5998,3.4585,3.2265,3.0544,3.0162,2.8034,2.6587,2.6587,2.5767,2.5108,2.4613,2.4613,2.4613,2.4625,2.4625,2.4459,2.3962,2.3962,2.3746,2.2987,2.322,2.3119,2.3009,2.3246,2.3187,2.2653,2.2663,2.2495,2.1959,2.1639,2.1556,3.069,3.1607,3.2678,3.4119,3.5233,3.6216,3.7035,3.7508,3.7756,3.7424,3.7318,3.7252,3.7011,3.7281,3.7839,3.8916,3.9847,4.0862,4.2083,4.2037,4.2048,4.233,4.1618,4.1172,4.1172,4.1172,4.1172,4.1172,4.1172,4.1289,4.1562,4.1582,4.1719,4.1992,4.2148,4.2207,4.2207,4.2637,4.2442,4.1777,4.1397,4.1267,4.106,4.106,4.0892,4.0403,3.9876,3.9366,3.906,3.8787,3.8717,3.8751,3.9128,3.9282,3.9299,3.9419,3.9556,3.9625,3.9368,3.9368,3.9505,3.9762,3.9847,3.9933,4.0446,4.0686,4.0857,4.1217,4.1423,4.1611,4.1988,4.1588,4.0963,4.0611,4.0047,3.952,3.8707,3.7918,3.7287,3.6464,3.5591,3.4925,3.4322,3.2483,3.0238,2.818,2.6752,2.5855,2.6045,2.5403,2.5203,2.5385,2.5421,2.5494,2.5675,2.5687,2.5514,2.5008,2.4662,2.4349,2.3742,2.3468,2.3192,2.2747,2.282,2.2684,2.2148,2.2291,2.2182,2.1649,2.1683,2.1685,3.2649,3.3838,3.526,3.6634,3.7623,3.8432,3.9241,3.9702,3.9619,3.917,3.8673,3.8125,3.7572,3.729,3.766,3.8975,3.9899,4.1011,4.2396,4.239,4.2342,4.233,4.1618,4.1172,4.1172,4.1172,4.1172,4.1172,4.1172,4.1348,4.1777,4.1797,4.1992,4.2422,4.2578,4.2656,4.2656,4.3086,4.2809,4.2004,4.1435,4.106,4.106,4.106,4.0892,4.0554,4.0046,3.9607,3.9423,3.8993,3.8991,3.9145,3.9522,3.9676,3.9693,3.9813,4.0018,4.0173,3.9796,3.9762,3.9933,4.031,4.0446,4.0566,4.1166,4.1354,4.144,4.1799,4.2005,4.221,4.2587,4.179,4.0739,4.0372,3.9289,3.8057,3.7461,3.6646,3.5995,3.58,3.5115,3.4629,3.4629,3.2471,2.9883,2.7371,2.6155,2.5604,2.5945,2.5629,2.559,2.5928,2.5965,2.6037,2.6206,2.6054,2.5701,2.536,2.4829,2.4285,2.3575,2.3294,2.2978,2.263,2.2713,2.2423,2.1959,2.2099,2.2024,2.1548,2.1692,2.1836,3.523,3.6805,3.8635,4.0033,4.0764,4.1282,4.1801,4.2296,4.2386,4.1335,4.0457,3.9611,3.875,3.7572,3.7398,3.9216,4.0468,4.1474,4.2792,4.3172,4.3035,4.2463,4.1618,4.1172,4.1172,4.1172,4.1172,4.1172,4.1172,4.1367,4.1816,4.1836,4.2031,4.248,4.2891,4.3105,4.3105,4.3516,4.3214,4.2402,4.1565,4.106,4.106,4.106,4.106,4.106,4.0233,3.9937,4.0309,3.9305,3.9179,3.9539,3.9916,4.007,4.0104,4.0446,4.0601,4.0566,4.0207,4.0327,4.0669,4.108,4.12,4.1268,4.1628,4.1748,4.1834,4.2227,4.2621,4.2998,4.334,4.2507,4.0969,3.9567,3.8001,3.6618,3.5179,3.499,3.5191,3.5177,3.5191,3.5164,3.507,3.2624,2.9722,2.7256,2.6619,2.6254,2.6242,2.6242,2.6242,2.6254,2.6266,2.6254,2.6266,2.5737,2.5395,2.4863,2.433,2.3618,2.2736,2.2945,2.2697,2.2343,2.2566,2.2407,2.2231,2.2231,2.1961,2.1792,2.1792,2.1801,3.7668,3.9094,4.0457,4.1259,4.1848,4.239,4.2762,4.2691,4.2017,4.05,3.9276,3.7989,3.6438,3.5913,3.6206,3.7377,3.8591,4.0013,4.1749,4.1748,4.1806,4.2289,4.1618,4.1172,4.1172,4.1172,4.1172,4.1172,4.1172,4.1484,4.2226,4.2266,4.2617,4.3359,4.3476,4.3555,4.3555,4.2991,4.2383,4.1882,4.1397,4.106,4.106,4.106,4.106,4.1079,4.0862,4.0547,4.0345,4.021,4.0151,3.9933,4.0292,4.0446,4.0446,4.0549,4.0772,4.1012,4.0909,4.0943,4.108,4.144,4.156,4.1645,4.2022,4.233,4.2638,4.3015,4.3409,4.3734,4.382,4.1896,3.9921,3.9516,3.753,3.5436,3.5012,3.499,3.5137,3.491,3.4623,3.3941,3.2436,3.1196,2.9704,2.7257,2.6822,2.6749,2.6556,2.6532,2.6604,2.6798,2.6822,2.6641,2.6281,2.61,2.5739,2.4822,2.4277,2.3806,2.3446,2.3128,2.2869,2.2478,2.2547,2.2407,2.1897,2.1897,2.1925,2.1792,2.1792,2.1867,4.0242,4.1697,4.3044,4.3335,4.382,4.4184,4.3869,4.3602,4.288,4.0667,3.919,3.7702,3.6059,3.5423,3.5541,3.696,3.8287,3.9846,4.1699,4.1814,4.1963,4.2423,4.1618,4.1172,4.1172,4.1172,4.125,4.1426,4.1445,4.1738,4.2402,4.2617,4.3008,4.3691,4.3711,4.3546,4.338,4.2735,4.2216,4.1695,4.121,4.106,4.106,4.106,4.106,4.1079,4.0971,4.0898,4.0593,4.0666,4.048,4.0292,4.0498,4.0583,4.0601,4.0772,4.0977,4.1217,4.1542,4.1662,4.1697,4.1885,4.1953,4.2056,4.2621,4.2929,4.3169,4.3563,4.394,4.4231,4.4231,4.2672,4.0873,4.0873,3.856,3.6174,3.6009,3.57,3.5151,3.4977,3.4663,3.359,3.1458,3.0587,2.9636,2.7268,2.7123,2.7148,2.7003,2.6882,2.687,2.7015,2.6845,2.6711,2.6453,2.6098,2.5593,2.514,2.4398,2.3904,2.3478,2.2923,2.2606,2.2173,2.2173,2.2021,2.1924,2.1924,2.1971,2.2056,2.2056,2.2113,4.2806,4.4184,4.5598,4.5598,4.5899,4.5924,4.4869,4.4518,4.3712,4.1111,3.9349,3.777,3.6263,3.5253,3.5328,3.7095,3.8616,4.0206,4.1914,4.231,4.2369,4.2342,4.1578,4.1172,4.1172,4.1172,4.1348,4.1758,4.1855,4.207,4.25,4.2871,4.3262,4.3691,4.3711,4.3546,4.3068,4.2569,4.2216,4.1695,4.121,4.106,4.106,4.106,4.1097,4.117,4.1214,4.1096,4.0965,4.0823,4.0815,4.0583,4.0583,4.0618,4.0703,4.1046,4.1234,4.1423,4.2073,4.233,4.2364,4.2364,4.2399,4.2553,4.3203,4.3477,4.3632,4.3974,4.4316,4.4608,4.4608,4.3607,4.2603,4.2603,4.0141,3.7681,3.7724,3.6522,3.5311,3.5311,3.4675,3.3693,3.1374,3.07,2.9553,2.7377,2.7329,2.7473,2.7473,2.728,2.7135,2.7135,2.6771,2.6488,2.6711,2.5808,2.5339,2.5362,2.4419,2.3673,2.3334,2.2774,2.2221,2.1867,2.1867,2.1952,2.2132,2.2132,2.2217,2.2387,2.2387,2.2387,4.4786,4.5554,4.6175,4.6175,4.5899,4.5447,4.4769,4.3915,4.2463,3.9338,3.7966,3.6499,3.4183,3.3989,3.4606,3.5644,3.727,3.8937,4.0375,4.0986,4.1413,4.1786,4.142,4.1172,4.1172,4.1172,4.1348,4.1758,4.2129,4.25,4.2949,4.3047,4.3262,4.3691,4.3711,4.3546,4.3068,4.2569,4.2216,4.1695,4.121,4.106,4.106,4.106,4.1244,4.161,4.1996,4.1702,4.1391,4.1585,4.1238,4.0583,4.0583,4.0789,4.108,4.1149,4.156,4.2108,4.2244,4.2501,4.2758,4.2758,4.2964,4.3238,4.3375,4.3837,4.4351,4.4419,4.471,4.5019,4.5019,4.3807,4.2603,4.2603,4.0141,3.7738,3.7996,3.7007,3.571,3.5265,3.4617,3.365,3.1566,3.0674,2.9724,2.792,2.7715,2.7739,2.7739,2.7703,2.7679,2.7679,2.7121,2.6771,2.6444,2.587,2.5141,2.423,2.3662,2.3184,2.2981,2.2423,2.2113,2.2283,2.2283,2.2302,2.234,2.234,2.2359,2.2387,2.2387,2.2387,4.6276,4.6728,4.7079,4.6803,4.6326,4.5547,4.4091,4.3137,4.1582,3.8084,3.6934,3.5934,3.3678,3.3705,3.4362,3.5273,3.6763,3.8378,3.9992,4.0471,4.0833,4.1666,4.1381,4.1172,4.1172,4.1367,4.168,4.209,4.2519,4.2851,4.3066,4.3281,4.3496,4.3691,4.3711,4.3546,4.3068,4.2569,4.2216,4.1695,4.121,4.106,4.106,4.128,4.15,4.1721,4.2326,4.2166,4.1497,4.187,4.1489,4.0601,4.0806,4.1012,4.1217,4.1611,4.1988,4.2313,4.2518,4.2827,4.3135,4.3135,4.3255,4.3477,4.3871,4.4231,4.4573,4.4779,4.4967,4.5104,4.5104,4.4481,4.3856,4.3856,4.1517,3.8836,3.7475,3.6611,3.5856,3.5423,3.4759,3.3576,3.1513,3.0619,2.967,2.8053,2.7932,2.8017,2.8017,2.8137,2.7936,2.7473,2.6888,2.657,2.6129,2.5571,2.5044,2.4396,2.383,2.3495,2.3013,2.244,2.2293,2.2387,2.2387,2.2387,2.2387,2.2387,2.2444,2.2557,2.2557,2.2614,4.7129,4.7506,4.7782,4.7255,4.6627,4.5573,4.3463,4.2349,4.0745,3.7247,3.6185,3.5356,3.3515,3.3768,3.4362,3.5273,3.6597,3.8067,3.9702,4.0085,4.0412,4.1364,4.1164,4.1035,4.1035,4.1504,4.1973,4.2402,4.291,4.3223,4.3223,4.3535,4.3711,4.3711,4.3711,4.3546,4.3234,4.2735,4.2235,4.1882,4.1378,4.1115,4.1207,4.1537,4.1776,4.1977,4.2601,4.2383,4.1604,4.1905,4.1541,4.0738,4.1046,4.1268,4.1491,4.2073,4.2347,4.2467,4.2844,4.3169,4.3426,4.3597,4.3649,4.3751,4.4351,4.459,4.471,4.5019,4.5104,4.5104,4.5104,4.5104,4.4919,4.438,4.239,3.9806,3.6734,3.6219,3.6042,3.5376,3.4721,3.3778,3.1557,3.0672,2.9936,2.8391,2.8282,2.8379,2.8379,2.8572,2.8356,2.7179,2.6708,2.6398,2.6072,2.5709,2.5228,2.467,2.4299,2.3906,2.311,2.2716,2.2529,2.2529,2.2529,2.2529,2.2529,2.2529,2.2614,2.2775,2.2775,2.286,4.7129,4.7506,4.7782,4.7255,4.6351,4.5121,4.3363,4.1582,3.9491,3.6742,3.5553,3.4712,3.3571,3.3741,3.4362,3.5273,3.6597,3.7839,3.8833,3.9414,3.9996,4.0459,4.0512,4.0586,4.0586,4.1308,4.1973,4.2402,4.3183,4.3652,4.3652,4.3691,4.3711,4.3711,4.3711,4.3711,4.3711,4.2902,4.2402,4.2402,4.1565,4.1262,4.1629,4.1666,4.2087,4.2766,4.2839,4.2546,4.1976,4.2012,4.1699,4.1114,4.1166,4.1594,4.2193,4.2262,4.2501,4.2861,4.3221,4.3375,4.3512,4.4197,4.4419,4.4436,4.4505,4.4779,4.507,4.5104,4.5104,4.5104,4.5104,4.5104,4.438,4.1578,4.1069,4.0134,3.7047,3.6687,3.6418,3.531,3.51,3.4423,3.1729,3.1276,3.0817,2.9465,2.9079,2.8934,2.8934,2.8958,2.8569,2.7548,2.7136,2.6908,2.6571,2.6201,2.5511,2.4747,2.4557,2.4157,2.3155,2.2954,2.2954,2.2954,2.2954,2.2954,2.2954,2.2954,2.2964,2.2983,2.2983,2.2992,4.7431,4.8259,4.8711,4.7832,4.6778,4.5329,4.2732,4.109,3.9091,3.6086,3.5113,3.4622,3.3633,3.3762,3.4362,3.5273,3.6349,3.7405,3.8316,3.8926,3.9513,3.9956,4.0294,4.0527,4.0527,4.1523,4.2461,4.3144,4.3516,4.3828,4.4101,4.3848,4.3711,4.3711,4.3711,4.3848,4.4121,4.3433,4.3231,4.314,4.246,4.2229,4.2051,4.2289,4.2564,4.2876,4.3133,4.2782,4.2029,4.2029,4.1716,4.1183,4.1405,4.1816,4.2313,4.2553,4.2861,4.3203,4.3358,4.37,4.4128,4.4419,4.4693,4.4882,4.4882,4.4984,4.5104,4.5104,4.5104,4.5104,4.5104,4.4919,4.4023,4.1457,4.0635,3.9825,3.7319,3.6861,3.6484,3.5374,3.5164,3.4486,3.1826,3.1384,3.0938,2.961,2.932,2.9248,2.9248,2.9248,2.8855,2.8264,2.7778,2.7165,2.6474,2.6287,2.5723,2.4618,2.4618,2.4217,2.3011,2.3011,2.3011,2.3011,2.3011,2.3011,2.3011,2.3011,2.3077,2.3209,2.3209,2.3275,4.738,4.8385,4.8912,4.8109,4.6979,4.5285,4.2389,4.0507,3.8651,3.5557,3.458,3.4237,3.3705,3.3844,3.4362,3.5273,3.6204,3.7136,3.8046,3.8438,3.895,3.9654,3.984,4.0098,4.0488,4.1914,4.3105,4.3848,4.4023,4.418,4.4394,4.4082,4.3906,4.3906,4.3906,4.4062,4.4394,4.3987,4.384,4.3614,4.3117,4.2846,4.2454,4.2729,4.2931,4.3078,4.3371,4.2945,4.2047,4.2154,4.1891,4.1371,4.1731,4.2108,4.2501,4.2878,4.3186,4.3443,4.3666,4.4077,4.4539,4.4659,4.4882,4.5104,4.5104,4.5104,4.5104,4.5104,4.5104,4.5138,4.5241,4.487,4.3814,4.1782,4.0679,3.9787,3.7618,3.7088,3.6669,3.5617,3.5405,3.4605,3.2385,3.1976,3.1602,3.0515,3.0081,2.9876,2.9876,2.967,2.9327,2.8743,2.8403,2.7615,2.6547,2.6336,2.5967,2.5022,2.482,2.4416,2.3403,2.32,2.32,2.32,2.32,2.32,2.32,2.32,2.3275,2.3427,2.3427,2.3502,4.6853,4.7531,4.7933,4.7908,4.6677,4.4811,4.2315,3.9944,3.7673,3.5335,3.4065,3.3361,3.4004,3.4072,3.4362,3.5273,3.6204,3.7136,3.8046,3.7888,3.8225,3.9553,3.9011,3.9101,4.0391,4.2441,4.3887,4.4355,4.4766,4.4824,4.4414,4.4394,4.4394,4.4394,4.4394,4.4394,4.4394,4.4276,4.4128,4.3614,4.3117,4.2994,4.2858,4.2858,4.3096,4.3481,4.3499,4.2945,4.2065,4.2473,4.2294,4.1731,4.2125,4.2518,4.2895,4.3272,4.3409,4.3512,4.4265,4.4522,4.459,4.4984,4.5104,4.5104,4.5104,4.5104,4.5104,4.5104,4.5104,4.519,4.5567,4.5243,4.4177,4.2139,4.1024,4.0124,3.7917,3.7382,3.7026,3.6167,3.6016,3.5383,3.3685,3.334,3.3171,3.2628,3.1662,3.0986,3.0986,3.0286,2.9591,2.9002,2.8832,2.8269,2.7414,2.6988,2.6478,2.6097,2.5491,2.5079,2.4461,2.3832,2.3625,2.3625,2.3625,2.3625,2.3625,2.3625,2.3625,2.3635,2.3635,2.3635,4.4669,4.5547,4.6075,4.5296,4.4227,4.2714,4.029,3.8431,3.6679,3.4463,3.3756,3.3949,3.487,3.5371,3.5891,3.7146,3.7869,3.8224,3.8233,3.8726,3.9229,3.9659,4.0361,4.1172,4.2168,4.3144,4.3887,4.4355,4.4785,4.4961,4.4824,4.4824,4.4687,4.4414,4.4394,4.4687,4.5273,4.5219,4.5087,4.4485,4.4329,4.3876,4.3298,4.3298,4.3371,4.3499,4.3499,4.3108,4.2455,4.2579,4.2469,4.2125,4.2244,4.2518,4.2895,4.3272,4.358,4.3871,4.4368,4.4693,4.495,4.507,4.5104,4.5104,4.5104,4.5104,4.5104,4.5104,4.5293,4.5515,4.5209,4.4829,4.409,4.1576,4.0594,3.969,3.7903,3.7382,3.7026,3.6206,3.6016,3.5383,3.3685,3.3376,3.3207,3.2652,3.1831,3.1336,3.1529,3.0696,3.0226,3.0382,2.9361,2.8348,2.7647,2.724,2.6659,2.6118,2.5913,2.5501,2.4471,2.4264,2.4048,2.3635,2.3635,2.3635,2.3635,2.3635,2.3635,2.3635,2.3786,2.3861,4.3162,4.4016,4.4418,4.394,4.3035,4.1825,3.969,3.826,3.6905,3.4979,3.4658,3.5021,3.5823,3.6069,3.6501,3.7579,3.7932,3.8052,3.8057,3.8788,3.9565,4.0057,4.1249,4.2305,4.3008,4.375,4.4394,4.4844,4.5117,4.5273,4.5273,4.5117,4.498,4.4883,4.4883,4.5137,4.5664,4.584,4.5687,4.5078,4.4902,4.4548,4.3856,4.3499,4.3499,4.3499,4.3499,4.318,0.0,4.2792,4.2662,4.2296,4.245,4.2741,4.3118,4.3495,4.3871,4.4248,4.4625,4.4899,4.5104,4.5104,4.5104,4.5104,4.5104,4.5104,4.5104,4.5104,4.5175,4.5277,4.5002,4.449,4.3379,4.136,4.0138,3.9019,3.7843,3.7317,3.6984,3.6474,3.6104,3.553,3.4269,3.3956,3.3859,3.3533,3.2628,3.2048,3.2229,3.124,3.0636,3.0962,2.9883,2.9066,2.8448,2.7535,2.6916,2.6794,2.6503,2.6037,2.521,2.4717,2.4264,2.4048,2.372,2.3757,2.3757,2.3833,2.3871,2.3871,2.4013,2.4079,0.0,4.2685,4.2861,4.3338,4.2735,4.1663,4.0196,3.9056,0.0,3.6455,3.6226,3.641,3.6859,3.656,3.6491,3.7011,3.7002,3.7177,3.7575,3.8546,3.952,4.0449,4.1758,4.2676,4.3086,4.4277,4.5195,4.5605,4.5664,4.5664,4.5625,4.5273,4.5254,4.5664,4.5703,4.5723,4.5723,4.6113,4.6133,4.5607,4.5078,4.4725,4.4193,4.3678,4.3499,4.3499,4.3518,4.3217,4.2703,4.3094,4.2924,4.2364,4.2724,4.3084,4.346,4.3854,4.4214,4.459,4.4967,4.5104,4.5104,4.5104,4.5104,4.5104,4.5104,4.5104,4.5121,4.5138,4.5006,4.4951,4.5338,4.4012,4.2418,4.1445,4.0009,3.8432,3.7928,3.7369,3.6855,3.6715,3.6375,3.5673,3.5204,3.497,3.497,3.497,3.3823,3.2978,3.3014,3.1831,3.101,3.1046,3.0605,2.9979,2.9374,2.8093,2.7413,2.7628,2.7027,2.6484,2.6484,2.524,2.4717,2.451,2.4298,2.3984,2.3984,2.4173,2.4258,2.4258,2.4277,2.4287,3.9044,0.0,4.04,4.0099,3.9922,3.9634,0.0,3.7878,3.6939,3.6128,3.6274,3.6928,3.7747,3.7901,3.8065,3.8931,3.8695,3.8392,3.8219,3.9699,4.0955,4.1855,4.2832,4.3437,4.3555,4.4453,4.5058,4.5176,4.5488,4.5527,4.5195,4.5391,4.5566,4.5664,4.5996,4.6152,4.6152,4.625,4.6133,4.5607,4.5078,4.4725,4.4193,4.3678,4.3499,4.3518,4.3811,4.3633,4.3111,4.3484,4.3309,4.2741,4.2827,4.3084,4.346,4.3854,4.4214,4.459,4.4967,4.5104,4.5104,4.5104,4.5104,4.5104,4.5104,4.5104,4.5173,4.5447,4.5396,4.5147,4.5096,4.3944,4.2512,4.107,3.9556,3.8432,3.7928,3.7369,3.6855,3.6715,3.6375,3.5673,3.5204,3.497,3.497,3.497,3.3823,3.305,3.3243,3.194,3.1155,3.1578,3.0832,3.0119,2.9877,2.8868,2.8016,2.7639,2.7596,2.7144,2.6734,2.6472,2.6021,2.5601,2.522,2.4827,2.4827,2.4451,2.4258,2.4268,2.4428,2.4504,3.7638,3.8442,3.9245,3.8944,3.9187,3.929,3.868,3.819,3.7713,3.7472,3.7775,3.8292,3.9113,3.8941,3.8828,3.9243,3.8998,3.8749,3.9515,4.0492,4.1562,4.2598,4.3301,4.3867,4.4277,4.4746,4.5195,4.5586,4.5469,4.5449,4.5605,4.5644,4.5762,4.5957,4.6191,4.6308,4.6308,4.6308,4.6133,4.5958,4.5431,4.4902,4.4548,4.4015,4.377,4.3774,4.3995,4.4051,4.3874,4.3883,4.3638,4.3261,4.3049,4.334,4.3717,4.4094,4.4471,4.483,4.5036,4.5104,4.5104,4.5104,4.5104,4.5104,4.5104,4.5104,4.519,4.5346,4.5103,4.4848,4.4142,4.2772,4.152,4.0009,3.8692,3.7754,3.7915,3.7155,3.6626,3.6741,3.6129,3.5439,3.497,3.497,3.497,3.497,3.3919,3.3207,3.334,3.2205,3.1481,3.1771,3.1342,3.0858,3.0488,2.9618,2.8834,2.7973,2.7876,2.761,2.7398,2.7081,2.6648,2.6114,2.5902,2.5739,2.5838,2.541,2.541,2.541,2.5537,2.5595,3.7287,3.814,3.8969,3.8894,3.9295,3.9594,3.9258,3.9019,3.8876,3.9126,3.9406,3.9898,4.0177,3.9705,3.9187,3.9254,3.8873,3.9219,4.0921,4.1282,4.1797,4.293,4.3516,4.4101,4.4863,4.498,4.5332,4.6055,4.543,4.5351,4.6074,4.584,4.5859,4.6289,4.6308,4.6308,4.6308,4.6308,4.6308,4.6308,4.5783,4.5431,4.4902,4.437,4.4238,4.4086,4.4141,4.4233,4.4551,4.4044,4.3691,4.3661,4.3448,4.3649,4.4043,4.4402,4.4779,4.5104,4.5104,4.5104,4.5104,4.5104,4.5104,4.5104,4.5104,4.4953,4.465,4.4612,4.4309,4.4028,4.2933,4.1526,3.9994,3.8912,3.7866,3.7155,3.7702,3.6953,3.6219,3.6741,3.5895,3.497,3.497,3.497,3.497,3.497,3.4052,3.3376,3.3376,3.2459,3.1807,3.1807,3.1807,3.1581,3.0928,3.0511,2.9653,2.8576,2.8177,2.807,2.807,2.7451,2.7006,2.6551,2.6551,2.6653,2.6847,2.663,2.663,2.663,2.663,2.663,3.7739,3.8718,3.9446,3.8994,3.9168,3.9258,3.8945,3.8973,3.9126,3.89,3.9585,4.0201,3.9779,3.9613,3.9814,4.0217,4.0619,4.111,4.1907,4.2171,4.2441,4.3008,4.3789,4.4355,4.4492,4.4824,4.5078,4.5215,4.5098,4.5078,4.5215,4.5508,4.5859,4.6289,4.6308,4.6308,4.6308,4.6308,4.6308,4.6308,4.5783,4.5431,4.4902,4.437,4.4238,4.4105,4.4435,4.4488,4.4569,4.4347,4.3955,4.3661,4.3448,4.3649,4.4043,4.4402,4.4779,4.5104,4.5104,4.5104,4.5104,4.5104,4.5104,4.5104,4.5104,4.4294,4.336,4.3093,4.3028,4.322,4.3661,4.1258,3.8912,3.8692,3.8017,3.7422,3.7742,3.7097,3.6461,3.6766,3.5895,3.497,3.497,3.497,3.497,3.497,3.4052,3.3376,3.3376,3.2459,3.1807,3.1807,3.1807,3.1581,3.0928,3.0714,3.0285,2.9211,2.8533,2.8307,2.8307,2.8274,2.8059,2.8091,2.7649,2.7228,2.727,2.6847,2.663,2.663,2.663,2.663,3.7864,3.8617,3.932,3.9672,3.974,3.96,3.9283,3.8814,3.8476,3.8847,3.8891,3.8942,3.9522,3.9677,4.004,4.1259,4.154,4.1841,4.2571,4.2507,4.2676,4.334,4.4004,4.459,4.5039,4.5039,4.5215,4.5683,4.5293,4.5234,4.5683,4.5898,4.6113,4.6289,4.6308,4.6308,4.6308,4.6308,4.6308,4.6308,4.6133,4.5783,4.5255,4.4725,4.4707,4.478,4.4783,4.4837,4.5252,4.4868,4.4495,4.4342,4.4147,4.4136,4.4334,4.471,4.495,4.5104,4.5104,4.5104,4.5104,4.5104,4.5104,4.5156,4.5344,4.4273,4.3267,4.3398,4.2713,4.1561,4.1168,3.9994,3.8486,3.7811,3.7627,3.7448,3.7742,3.7136,3.6499,3.6766,3.5895,3.497,3.497,3.497,3.497,3.497,3.4052,3.3376,3.3376,3.2459,3.1807,3.1807,3.1807,3.1593,3.1368,3.1142,3.05,2.9211,2.8792,2.836,2.836,2.836,2.836,2.836,2.8145,2.7918,2.7918,2.7713,2.7496,2.7496,2.7496,2.7496,3.8191,3.8718,3.9295,4.017,4.0084,3.9816,4.0094,3.9101,3.8517,3.9453,3.8953,3.8586,3.9708,4.0409,4.1194,4.2314,4.2823,4.3065,4.3255,4.304,4.3125,4.3789,4.4355,4.4961,4.5605,4.5273,4.5332,4.6094,4.5449,4.5351,4.6113,4.625,4.6308,4.6308,4.6308,4.6308,4.6308,4.6308,4.6308,4.6308,4.6308,4.6133,4.5607,4.5255,4.5159,4.5386,4.5039,4.5317,4.5883,4.5318,4.4965,4.4973,4.4797,4.4643,4.4693,4.5001,4.5104,4.5104,4.5104,4.5104,4.5104,4.5104,4.4953,4.4667,4.4954,4.3681,4.2257,4.2776,4.1499,3.969,3.9075,3.8678,3.8059,3.7256,3.7275,3.7569,3.7849,3.7227,3.682,3.6804,3.5907,3.5192,3.497,3.497,3.497,3.497,3.4052,3.3376,3.3376,3.2459,3.1807,3.1807,3.1807,3.1807,3.1807,3.1154,3.05,2.9641,2.8996,2.8576,2.836,2.836,2.836,2.836,2.836,2.836,2.836,2.836,2.836,2.836,2.836,2.836,3.9145,3.9597,3.9669,4.0034,3.9495,3.9431,4.1422,4.0497,3.9775,4.1376,4.1171,4.0666,4.032,4.272,4.4352,4.3002,4.5124,4.6167,4.4541,4.4225,4.4277,4.4336,4.5078,4.5605,4.5664,4.5273,4.5215,4.5683,4.5293,4.5234,4.5703,4.6094,4.6308,4.6308,4.6308,4.6308,4.6308,4.6308,4.6308,4.6308,4.6308,4.6133,4.5607,4.5607,4.5516,4.5386,4.5386,4.5501,4.5883,4.5318,4.4965,4.4973,4.4797,4.4816,4.507,4.5104,4.5104,4.5104,4.5104,4.5104,4.5104,4.5104,4.431,4.3328,4.3344,4.151,3.9257,3.93,3.8222,3.7577,3.9118,3.8238,3.6994,3.7275,3.7569,3.7849,3.8143,3.8016,3.7516,3.6855,3.6375,3.5673,3.5204,3.497,3.497,3.497,3.4052,3.3376,3.3376,3.2459,3.1807,3.1807,3.1807,3.1807,3.1807,3.1154,3.0928,3.0714,2.9856,2.8996,2.836,2.836,2.836,2.836,2.836,2.836,2.836,2.836,2.836,2.836,2.836,2.836,3.8818,3.9421,3.9719,4.0059,3.9964,4.0158,4.1403,4.0341,3.9552,4.1194,4.0857,4.0432,4.1115,4.2484,4.3382,4.3269,4.4267,4.4893,4.4521,4.4336,4.4492,4.4766,4.5312,4.5683,4.5683,4.5527,4.5508,4.5664,4.5527,4.5625,4.6035,4.6211,4.6308,4.6308,4.6308,4.6308,4.6308,4.6308,4.6308,4.6308,4.6308,4.6133,4.5958,4.6053,4.5942,4.5769,4.5849,4.5742,4.5902,4.5951,4.5915,4.5769,4.5625,4.5248,4.5104,4.5104,4.5104,4.5104,4.5104,4.5104,4.4936,4.4123,4.3452,4.3028,4.2414,4.0615,3.9141,3.9327,3.8155,3.7149,3.7825,3.737,3.7008,3.7315,3.7595,3.7889,3.8183,3.8029,3.7568,3.6855,3.6375,3.5673,3.5204,3.509,3.5223,3.5223,3.4318,3.369,3.3859,3.2821,3.2048,3.2048,3.1904,3.1807,3.1807,3.1593,3.1368,3.0928,2.9845,2.9211,2.8996,2.8576,2.836,2.836,2.836,2.836,2.836,2.836,2.836,2.836,2.836,2.8436,3.8617,3.9145,3.9262,3.9455,3.9843,4.041,4.1465,4.0629,4.0137,4.2447,4.1883,4.1115,4.1711,4.2623,4.3273,4.3464,4.4188,4.4643,4.4454,4.4434,4.4512,4.4785,4.5215,4.5469,4.5469,4.5469,4.5527,4.5664,4.5683,4.5859,4.6289,4.6308,4.6308,4.6308,4.6308,4.6308,4.6308,4.6308,4.6308,4.6308,4.6308,4.6308,4.6308,4.6385,4.6434,4.6314,4.622,4.6262,4.6108,4.6324,4.6416,4.6376,4.6065,4.5708,4.5306,4.5104,4.5104,4.5104,4.5104,4.4902,4.4532,4.3526,4.2724,4.1728,4.115,3.9732,3.8426,3.8622,3.7811,3.6941,3.6941,3.7008,3.7155,3.7448,3.7742,3.8036,3.833,3.8339,3.7788,3.7063,3.6363,3.5932,3.5314,3.5259,3.5416,3.5489,3.4607,3.3992,3.4149,3.3111,3.2326,3.2326,3.2085,3.1928,3.1928,3.1855,3.1593,3.1154,3.0285,2.9641,2.9426,2.9222,2.8792,2.8576,2.8576,2.8576,2.836,2.836,2.836,2.836,2.8436,2.8554,3.8718,3.8641,3.8354,3.8263,3.8783,3.9872,4.1667,4.1547,4.1965,4.5803,4.4805,4.2964,4.1855,4.3721,4.4955,4.331,4.5263,4.6264,4.4678,4.4434,4.4394,4.4394,4.4766,4.5019,4.5019,4.5039,4.5215,4.5644,4.5683,4.5859,4.6269,4.6289,4.6289,4.6289,4.6289,4.6289,4.6308,4.6308,4.6308,4.6308,4.6308,4.6308,4.6308,4.6738,4.6811,4.6857,4.6751,4.6633,4.6672,4.6513,4.658,4.6753,4.617,4.5909,4.5909,4.5306,4.5104,4.5104,4.5121,4.4295,4.3467,4.3467,4.1656,3.9465,3.9465,3.8188,3.6941,3.6941,3.6941,3.6941,3.6941,3.7155,3.7448,3.7742,3.8036,3.833,3.8651,3.8718,3.8253,3.7063,3.6843,3.6463,3.5581,3.538,3.5477,3.5742,3.4861,3.4185,3.4185,3.3243,3.2592,3.2592,3.2362,3.2205,3.2205,3.1964,3.1807,3.1807,3.1154,3.0714,3.0082,3.0082,2.9868,2.9211,2.9211,2.8996,2.836,2.836,2.836,2.8371,2.8597,2.8705,3.8366,3.8711,3.8841,3.8485,4.0235,4.2162,4.249,4.2048,4.259,4.6335,4.5319,4.3997,4.4902,4.5309,4.4911,4.3278,4.4136,4.4825,4.3982,4.4268,4.4394,4.4394,4.4766,4.5019,4.5019,4.5312,4.5527,4.5664,4.5957,4.6035,4.5879,4.5859,4.5859,4.5859,4.5859,4.5996,4.6289,4.6308,4.6308,4.6308,4.6308,4.6308,4.6328,4.7051,4.7082,4.6876,4.7075,4.6896,4.6691,4.6827,4.7016,4.7347,4.6676,4.6311,4.5909,4.5306,4.5104,4.4902,4.4295,4.367,4.3296,4.1484,4.0451,3.9428,3.818,3.7578,3.7113,3.6874,3.6941,3.6981,3.7195,3.7448,3.7702,3.7782,3.8036,3.833,3.8651,3.8718,3.8253,3.7063,3.6843,3.6463,3.5581,3.5549,3.5742,3.6008,3.5126,3.4185,3.3437,3.305,3.2857,3.2857,3.2628,3.2471,3.2471,3.2242,3.2085,3.2085,3.1689,3.1368,3.0714,3.0297,3.0082,2.9868,2.9868,2.9653,2.9653,2.9653,2.9527,2.9271,2.9338,2.9316,3.8512,3.9099,3.9453,3.951,4.107,4.2994,4.3893,4.441,4.5206,4.7,4.6374,4.5678,4.602,4.581,4.5078,4.3569,4.408,4.4418,4.3837,4.3945,4.4121,4.4121,4.4355,4.457,4.4766,4.5156,4.541,4.541,4.582,4.5859,4.543,4.5586,4.5683,4.5683,4.584,4.6055,4.6308,4.6308,4.6308,4.6308,4.6308,4.6308,4.6328,4.7187,4.7398,4.7076,4.7564,4.7347,4.7175,4.7268,4.7521,4.7708,4.731,4.6711,4.611,4.5708,4.5306,4.5104,4.4295,4.3467,4.2668,4.1023,3.9942,3.8859,3.7755,3.7399,3.7183,3.6934,3.6861,3.7008,3.7301,3.7595,3.7849,3.7969,3.8223,3.8504,3.8691,3.8718,3.8253,3.7063,3.6843,3.6501,3.5715,3.5682,3.5911,3.6261,3.5416,3.4342,3.328,3.3147,3.3147,3.3147,3.2917,3.2748,3.2748,3.2495,3.235,3.235,3.2205,3.163,3.0435,3.0569,3.0297,2.9426,2.9426,2.9211,2.9007,2.9007,2.93,2.9889,3.008,3.0097,3.908,3.9643,4.0314,4.0975,4.1742,4.2962,4.5716,4.7709,4.8796,4.7645,4.7941,4.7803,4.6173,4.6182,4.572,4.4173,4.4502,4.4718,4.3876,4.3711,4.3711,4.3711,4.3711,4.3906,4.4414,4.4766,4.5,4.5078,4.541,4.543,4.5,4.5371,4.5625,4.5625,4.6035,4.6269,4.6308,4.6308,4.6308,4.6308,4.6308,4.6308,4.6328,4.7187,4.7617,4.7593,4.787,4.8064,4.771,4.7729,4.7919,4.8286,4.7708,4.7129,4.6711,4.611,4.5507,4.5104,4.5104,4.367,4.1802,4.1613,4.0163,3.8125,3.7547,3.7325,3.7128,3.6759,3.6727,3.7008,3.7342,3.7635,3.7889,3.8223,3.8504,3.8718,3.8718,3.8718,3.8253,3.7076,3.6843,3.6539,3.5885,3.5742,3.5875,3.6297,3.5549,3.4547,3.3497,3.3376,3.3376,3.3376,3.3147,3.3014,3.3014,3.2785,3.2628,3.2628,3.2592,3.1609,2.9611,3.0889,3.0523,2.8113,2.8113,2.7897,2.7486,2.7486,2.836,2.9913,3.0608,3.0825,3.9104,4.0257,4.1335,4.1677,4.3205,4.5178,4.7773,4.8779,4.9235,4.9866,4.9271,4.8882,4.9342,4.8697,4.7553,4.5985,4.531,4.4718,4.3876,4.3711,4.3711,4.3711,4.3711,4.4023,4.4805,4.4668,4.4805,4.5488,4.5312,4.498,4.4551,4.4941,4.5176,4.5176,4.5586,4.5976,4.6289,4.6308,4.6308,4.6308,4.6308,4.6308,4.6328,4.7187,4.7768,4.808,4.8511,4.8254,4.7902,4.8118,4.833,4.8286,4.7708,4.7528,4.7111,4.6311,4.5909,4.5507,4.4279,4.3043,4.1597,4.0806,3.9612,3.8315,3.8382,3.7997,3.756,3.7606,3.7316,3.7048,3.7595,3.7782,3.7956,3.8504,3.8691,3.8718,3.8718,3.8718,3.8499,3.7775,3.7076,3.671,3.6329,3.569,3.5356,3.5066,3.4801,3.4342,3.3473,3.3376,3.3376,3.3376,3.3304,3.328,3.328,3.305,3.2881,3.2881,3.2688,3.1668,2.9833,3.0047,2.9172,2.7022,2.7012,2.6806,2.6806,2.8102,2.8857,2.9054,3.0665,3.1392,3.9721,4.1056,4.2565,4.3891,4.5468,4.7068,4.8683,4.9277,4.9686,5.0527,5.0461,5.0265,5.0452,4.9556,4.8498,4.7103,4.5818,4.4718,4.4205,4.3876,4.3711,4.3711,4.3711,4.3984,4.4668,4.4531,4.459,4.5039,4.4844,4.4531,4.4082,4.4668,4.5019,4.5019,4.5644,4.6074,4.6308,4.6308,4.6308,4.6308,4.6308,4.6523,4.6933,4.7383,4.7865,4.8536,4.8988,4.8805,4.8287,4.8712,4.8497,4.8286,4.7889,4.7708,4.7528,4.6911,4.6311,4.5708,4.4902,4.367,4.2431,4.2038,4.06,3.9256,3.9114,3.8525,3.7679,3.7702,3.7262,3.7088,3.7662,3.7809,3.7956,3.8584,3.8718,3.8718,3.8718,3.8718,3.8499,3.8034,3.7322,3.6685,3.6254,3.594,3.5356,3.4668,3.4571,3.4281,3.3473,3.3376,3.3376,3.3376,3.3497,3.3569,3.3569,3.3437,3.3376,3.3376,3.2232,3.1133,3.0099,2.9303,2.7767,2.5452,2.6315,2.6691,2.6579,2.8317,2.9471,3.0265,3.1398,3.184,4.0183,4.1837,4.3625,4.6102,4.7449,4.8315,4.894,4.9349,4.9806,5.0551,5.1056,5.1249,5.0795,4.9867,4.8919,4.7993,4.6244,4.4862,4.4271,4.3982,4.3672,4.3613,4.3652,4.3848,4.4238,4.4277,4.4316,4.4394,4.4316,4.4101,4.373,4.4551,4.5019,4.5019,4.5781,4.623,4.6308,4.623,4.623,4.6308,4.6308,4.6758,4.7578,4.7578,4.8047,4.8906,4.9408,4.9206,4.867,4.9132,4.8879,4.8484,4.8286,4.8088,4.7708,4.7528,4.6911,4.611,4.5909,4.4902,4.3467,4.3467,4.207,4.0547,4.0451,3.9319,3.8152,3.8027,3.74,3.7088,3.7662,3.7809,3.7956,3.8584,3.8718,3.8718,3.8718,3.8718,3.8472,3.8021,3.7296,3.6685,3.6205,3.5965,3.538,3.4607,3.4511,3.4221,3.3473,3.3376,3.3376,3.3376,3.363,3.3787,3.3787,3.3787,3.3787,3.3787,3.1942,3.0576,3.0365,2.8775,2.6778,2.479,2.6295,2.6822,2.6579,2.8317,2.9833,3.138,3.1857,3.2205,3.9623,4.187,4.4563,4.6271,4.7161,4.7858,4.8844,4.8772,4.8916,5.0407,5.0768,5.1105,5.1945,5.0192,4.8561,4.8565,4.6657,4.4762,4.3894,4.3805,4.3574,4.3203,4.3476,4.373,4.3789,4.3789,4.3965,4.4375,4.4023,4.3769,4.3711,4.4551,4.5019,4.5019,4.5508,4.5937,4.6289,4.5937,4.5937,4.6308,4.6308,4.6758,4.7578,4.7578,4.8047,4.8906,4.9785,4.9796,4.9263,4.9736,4.9489,4.8898,4.8484,4.8286,4.8088,4.7708,4.7129,4.6511,4.611,4.4902,4.3467,4.3467,4.2862,4.2134,4.2482,4.1135,3.9747,3.9849,3.8445,3.7088,3.7662,3.7809,3.7956,3.8584,3.8718,3.8718,3.8718,3.8718,3.8718,3.8718,3.7529,3.64,3.5463,3.5042,3.4873,3.4318,3.4245,3.4016,3.3437,3.3376,3.3376,3.3376,3.363,3.3787,3.3787,3.3787,3.3787,3.3787,3.1942,3.0631,3.0609,2.8791,2.7671,2.7005,2.7034,2.6822,2.6579,2.8317,2.9393,2.9619,3.1414,3.2205,4.1268,4.3265,4.5237,4.7112,4.7762,4.8147,4.8892,4.9133,4.9373,5.0095,4.989,4.9888,5.0618,4.9042,4.7729,4.8034,4.6058,4.4482,4.42,4.3676,4.3254,4.2734,4.3086,4.3359,4.3359,4.3574,4.3789,4.3984,4.3828,4.3711,4.3711,4.4316,4.4785,4.5019,4.5215,4.5625,4.6289,4.5644,4.5527,4.5957,4.6191,4.6621,4.7226,4.7461,4.8047,4.8906,4.9785,4.9986,4.9454,5.0125,4.9882,4.9095,4.8879,4.8484,4.8286,4.8106,4.7708,4.7111,4.6511,4.5708,4.4902,4.4498,4.3919,4.3458,4.3607,4.2697,4.1529,4.1863,4.0867,3.9685,3.9448,3.9152,3.9078,3.8802,3.8718,3.8718,3.8718,3.8718,3.8499,3.7788,3.7076,3.6363,3.5192,3.497,3.4801,3.4245,3.4185,3.3992,3.3437,3.3376,3.3376,3.3376,3.363,3.3787,3.3787,3.3787,3.3333,3.2411,3.0344,2.9059,2.9059,2.8266,2.8029,2.8807,2.8722,2.8465,2.8102,2.9833,3.0714,3.0714,3.1487,3.206,4.2351,4.3818,4.4996,4.6992,4.769,4.8098,4.8892,4.9277,4.9589,4.9998,4.9109,4.843,4.8937,4.7804,4.6764,4.7109,4.5577,4.4274,4.4159,4.3679,4.3042,4.2425,4.2915,4.3209,4.293,4.3398,4.3711,4.3711,4.3711,4.3711,4.3711,4.4141,4.4551,4.4863,4.4863,4.5234,4.5976,4.5351,4.5254,4.5683,4.5996,4.6426,4.6953,4.7383,4.7988,4.875,4.9746,4.9986,4.9664,5.03,5.0078,4.9292,4.9076,4.8682,4.8286,4.8286,4.7907,4.7528,4.7129,4.6511,4.5927,4.5628,4.5091,4.464,4.5006,4.4093,4.3138,4.3405,4.2821,4.2091,4.1221,4.0725,4.0208,3.9494,3.8963,3.8718,3.8718,3.8718,3.8253,3.7063,3.6843,3.6363,3.5192,3.497,3.4801,3.4245,3.4185,3.3992,3.3437,3.3376,3.3376,3.3376,3.363,3.3787,3.3787,3.3333,3.2627,3.1259,2.873,2.7459,2.7914,2.7702,2.816,2.991,3.0306,3.0276,2.9833,3.1154,3.1807,3.1807,3.1807,3.1952,4.1461,4.2447,4.3265,4.49,4.6054,4.7185,4.8724,4.8724,4.8796,5.0335,4.8515,4.6748,4.722,4.6695,4.616,4.6181,4.5158,4.4208,4.3644,4.3634,4.3399,4.2486,4.322,4.3415,4.25,4.3223,4.3711,4.3711,4.3711,4.3711,4.3711,4.4141,4.4414,4.4433,4.4433,4.4648,4.5078,4.5039,4.5254,4.5683,4.5703,4.6133,4.6953,4.7383,4.7812,4.832,4.9609,5.0176,5.0234,5.0513,5.047,4.9882,4.9292,4.8682,4.8286,4.8286,4.7907,4.7528,4.7528,4.6711,4.5979,4.6328,4.6302,4.6062,4.6645,4.5739,4.4741,4.4758,4.3452,4.2309,4.298,4.1829,4.0644,4.106,3.9834,3.8718,3.8718,3.8718,3.8253,3.7063,3.6843,3.6363,3.5192,3.497,3.4801,3.4245,3.4185,3.3992,3.3437,3.3376,3.3376,3.3376,3.363,3.3787,3.3787,3.2172,3.1259,3.102,2.7588,2.6101,2.7914,2.7702,2.816,2.991,3.1239,3.1869,3.1593,3.1807,3.1807,3.1807,3.1807,3.1952,4.1581,4.2351,4.3216,4.5164,4.6175,4.704,4.8291,4.894,4.9469,5.0046,4.8967,4.7813,4.7243,4.5663,4.4558,4.4852,4.4328,4.3844,4.3657,4.342,4.2968,4.2476,4.2922,4.324,4.2922,4.3366,4.4021,4.4842,4.4186,4.4021,4.4842,4.4344,4.4082,4.4394,4.4101,4.4023,4.418,4.4746,4.4961,4.4863,4.541,4.5976,4.6562,4.7266,4.7969,4.8691,4.9726,5.0176,5.0234,5.09,5.0861,5.0274,4.9882,4.9292,4.8682,4.8484,4.8088,4.7907,4.7727,4.729,4.6698,4.6635,4.6492,4.6611,4.6731,4.6618,4.6498,4.6498,4.6056,4.5366,4.5008,4.3591,4.1738,3.9941,3.9181,3.8718,3.8718,3.8718,3.8499,3.7568,3.7076,3.6546,3.5452,3.4937,3.4535,3.4016,3.3919,3.3799,3.34,3.3376,3.3376,3.3376,3.3473,3.3071,3.1919,3.124,2.9879,2.735,2.5919,2.4967,2.4526,2.6365,2.7784,2.8373,3.0872,3.2073,3.1807,3.1807,3.1807,3.1807,3.1976,3.2205,4.1413,4.2086,4.2952,4.49,4.5645,4.6343,4.793,4.87,4.9229,4.9758,4.9275,4.8269,4.7243,4.5512,4.4154,4.4029,4.3801,4.3565,4.3721,4.3362,4.3004,4.2697,4.3175,4.338,4.338,4.3854,4.437,4.5169,4.435,4.4186,4.5005,4.4186,4.3848,4.416,4.3867,4.3711,4.3711,4.4433,4.4746,4.4609,4.5332,4.5976,4.6543,4.7246,4.8047,4.8906,4.9785,5.0254,5.0449,5.1133,5.1037,5.0646,5.0274,4.9686,4.9095,4.8682,4.8484,4.8286,4.7907,4.7762,4.7517,4.7032,4.7095,4.7009,4.6936,4.7159,4.7365,4.7365,4.745,4.7476,4.6788,4.509,4.2693,3.9549,3.8718,3.8718,3.8718,3.8718,3.8499,3.8034,3.7219,3.6407,3.5548,3.4949,3.4281,3.3859,3.3787,3.369,3.34,3.3376,3.3376,3.3376,3.2928,3.2017,3.089,2.9523,2.7914,2.5425,2.4737,2.4041,2.3369,2.6139,2.7815,2.8498,3.0998,3.2242,3.2073,3.1891,3.1855,3.194,3.2121,3.2386,0.0,0.0,0.0,4.3914,4.4323,4.502,4.7617,4.7858,4.7954,4.9517,4.8967,4.7998,4.7321,4.6255,4.5106,4.3919,4.3615,4.3615,4.3615,4.3615,4.3462,4.3004,4.38,4.4173,4.3678,4.4502,4.4862,4.4534,4.437,4.4205,4.3876,4.3711,4.3711,4.3711,4.3711,4.3711,4.3711,4.4141,4.459,4.5019,4.5449,4.6113,4.6953,4.7383,4.8066,4.8945,4.9805,5.043,5.0859,5.1269,5.1037,5.0646,5.0646,5.0059,4.9095,4.9095,4.8682,4.8286,4.8286,4.8162,4.7975,4.7962,4.7735,4.7496,4.7456,4.7365,4.7365,4.7365,4.7639,4.8015,4.8392,4.6345,4.3246,3.9631,3.8731,3.8718,3.8718,3.8718,3.8499,3.8034,3.709,3.6205,3.5717,3.4815,3.4088,3.3823,3.3787,3.369,3.34,3.3376,3.3376,3.3376,3.1792,3.0665,3.0654,2.7241,2.5187,2.5177,2.3369,2.3386,2.5177,2.6582,2.8498,3.0299,3.1844,3.2592,3.2592,3.2085,3.1964,3.2217,3.2217,3.2495,4.11,0.0,0.0,0.0,0.0,0.0,4.6247,4.7064,4.7834,4.9036,4.9025,4.8707,4.8436,4.7434,4.6255,4.5106,4.4201,4.3615,4.3615,4.3615,4.3615,4.3462,4.3669,4.3827,4.4152,4.4401,4.5028,4.6123,4.5352,4.5025,4.5495,4.435,4.3711,4.3711,4.3711,4.3711,4.3711,4.3828,4.4121,4.457,4.5,4.582,4.6953,4.7383,4.8398,4.9824,5.0078,5.0586,5.1269,5.1387,5.1231,5.1231,5.0842,5.0274,4.9686,4.9292,4.8682,4.8286,4.8286,4.8344,4.8538,4.8033,4.7911,4.786,4.7542,4.7365,4.7365,4.7365,4.7639,4.7653,4.7153,4.5631,4.3489,4.1216,3.9631,3.8718,3.8718,3.8718,3.8718,3.8499,3.749,3.6588,3.5939,3.491,3.4016,3.3569,3.3497,3.3473,3.3376,3.3376,3.3376,3.3376,3.1792,3.0191,2.8843,2.6567,2.4746,2.3386,2.2695,2.3386,2.5177,2.6945,2.8728,3.0565,3.2126,3.2881,3.2881,3.2531,3.241,3.2483,3.2688,3.2954,4.1124,4.1172,4.1485,4.276,0.0,0.0,4.5573,4.6223,4.6872,4.8147,4.8411,4.8315,4.8239,4.7417,4.6388,4.5252,4.4226,4.3615,4.3615,4.3615,4.3615,4.3615,4.37,4.3935,4.4202,4.4494,4.5103,4.6016,4.5412,4.517,4.5495,4.4514,4.3876,4.3711,4.3711,4.3711,4.3711,4.3887,4.4219,4.4668,4.5098,4.5957,4.7207,4.7461,4.8535,5.0176,5.0176,5.0664,5.1426,5.1426,5.1426,5.1426,5.1037,5.047,4.9882,4.9489,4.8879,4.8286,4.8286,4.8617,4.8886,4.8069,4.8189,4.8404,4.7576,4.7365,4.7365,4.7365,4.7758,4.7891,4.6837,4.5837,4.4851,4.2591,4.0987,3.9848,3.9617,3.9413,3.9399,3.8731,3.7464,3.6525,3.6054,3.499,3.3859,3.3437,3.3376,3.3376,3.3376,3.3376,3.3376,3.3376,3.133,2.9286,2.7924,2.5882,2.3828,2.2472,2.3147,2.4499,2.632,2.8162,2.9976,3.1792,3.2904,3.3304,3.3304,3.2821,3.2652,3.2748,3.3014,3.328,4.1052,4.1268,4.1701,4.3096,4.3241,0.0,4.5333,4.5429,4.5549,4.7016,4.7329,4.7375,4.7305,4.6786,4.5811,4.4749,4.391,4.3553,4.3594,4.3615,4.3615,4.3615,4.3967,4.4236,4.4298,4.4826,4.5105,4.5242,4.5164,4.5047,4.4822,4.4534,4.4205,4.3876,4.3711,4.3711,4.3711,4.4121,4.4531,4.4961,4.5391,4.6269,4.75,4.7558,4.8535,5.0176,5.0176,5.0664,5.1426,5.1426,5.1426,5.1426,5.1426,5.0861,4.9882,4.9882,4.9292,4.8286,4.8286,4.8818,4.9293,4.8069,4.8396,4.8807,4.7788,4.7365,4.7382,4.7467,4.7964,4.8213,4.7388,4.6912,4.6221,4.4171,4.2591,4.1432,4.0771,4.054,4.0296,3.9168,3.7579,3.6615,3.6092,3.4928,3.3762,3.3473,3.3437,3.3437,3.3437,3.3437,3.3473,3.3473,3.0742,2.8678,2.8213,2.5278,2.3214,2.295,2.4314,2.6129,2.8141,2.9771,3.1613,3.3437,3.369,3.3823,3.3823,3.3074,3.2821,3.305,3.3268,3.3533,4.1148,4.1798,4.2519,4.2832,4.3794,0.0,4.4659,4.49,4.5333,4.6078,4.6223,4.6429,4.7351,4.6288,4.4961,4.442,4.3568,4.318,4.3553,4.3615,4.3615,4.3615,4.3698,4.3884,4.4256,4.5285,4.6001,4.6294,4.6363,4.6606,4.6888,4.5332,4.437,4.4205,4.3876,4.3711,4.3711,4.3789,4.4062,4.4531,4.4941,4.582,4.707,4.7422,4.8535,5.0176,5.0176,5.0664,5.1426,5.1426,5.1426,5.1426,5.1426,5.1037,5.047,5.0078,4.9489,4.8879,4.8484,4.8818,4.9293,4.8069,4.8396,4.8807,4.7788,4.7365,4.7484,4.8101,4.8375,4.8649,4.896,4.7585,4.5996,4.5545,4.3747,4.2163,4.2148,4.1216,4.0526,4.0296,3.9114,3.7837,3.6615,3.5387,3.4245,3.3787,3.3895,3.3956,3.3726,3.3895,3.4016,3.4016,3.1253,2.9396,2.9386,2.5912,2.4476,2.5451,2.5433,2.675,2.9987,3.0626,3.1864,3.3726,3.3956,3.4113,3.4113,3.3726,3.3473,3.3304,3.334,3.3533,4.1653,4.2158,4.288,4.3409,4.3938,0.0,0.0,4.4732,4.49,4.5429,4.5525,4.5766,4.6559,4.5786,4.4892,4.5005,4.4529,4.4392,4.4503,4.4058,4.3615,4.3615,4.405,4.4609,4.4842,4.5879,4.6827,4.7159,4.7087,4.7111,4.7209,4.5859,4.4862,4.437,4.4205,4.3876,4.3711,4.3711,4.3945,4.4394,4.4824,4.5703,4.6953,4.7383,4.8535,5.0176,5.0176,5.0664,5.1426,5.1426,5.1426,5.1426,5.1426,5.1037,5.0646,5.0078,4.9489,4.9076,4.8484,4.8818,4.9293,4.8069,4.8396,4.8807,4.7788,4.7365,4.7519,4.8272,4.8478,4.8666,4.9402,4.8479,4.7328,4.6912,4.5303,4.3731,4.3291,4.2377,4.1216,4.054,3.9617,3.8134,3.6718,3.5486,3.4438,3.4052,3.4088,3.4149,3.4016,3.4113,3.4185,3.4185,3.2309,3.0923,3.046,2.8125,2.6882,2.7356,2.8018,2.9114,3.0831,3.1887,3.3042,3.4378,3.4511,3.4571,3.4571,3.4438,3.4113,3.3569,3.3569,3.3726,4.2543,4.288,4.3529,4.4302,4.435,4.4398,0.0,0.0,0.0,4.5049,4.4972,4.5116,4.5549,4.5125,4.4758,4.5059,4.5163,4.5229,4.5118,4.437,4.3844,4.3928,4.4827,4.5466,4.5552,4.6566,4.7671,4.843,4.7749,4.735,4.7318,4.6156,4.5291,4.4698,4.4534,4.4205,4.3876,4.3711,4.3887,4.4277,4.4707,4.5527,4.6699,4.7226,4.8398,5.0058,5.0137,5.0664,5.1426,5.1426,5.1426,5.1426,5.1426,5.1231,5.0842,5.0078,4.9686,4.9095,4.8484,4.8818,4.9293,4.8069,4.8189,4.8596,4.7576,4.7365,4.7519,4.8272,4.8478,4.8666,4.9402,4.913,4.8495,4.7825,4.6446,4.5093,4.464,4.3534,4.2148,4.1001,3.9386,3.7903,3.6782,3.5585,3.4571,3.4318,3.4318,3.4318,3.4281,3.4318,3.4342,3.4342,3.3175,3.2226,3.174,3.0535,2.948,2.902,3.0355,3.1226,3.1398,3.3129,3.4245,3.503,3.4994,3.4994,3.503,3.4933,3.4535,3.3859,3.3859,3.4016,4.4106,4.4804,4.5483,4.5257,4.5963,4.6646,4.5847,0.0,4.5673,4.5011,0.0,4.4814,4.4515,0.0,0.0,4.3194,4.3822,4.409,4.378,4.4286,4.4804,4.5367,4.5412,4.5733,4.6179,4.7356,4.8775,5.0962,4.8621,4.7648,4.8962,4.6458,4.529,4.5535,4.4862,4.437,4.437,4.3876,4.373,4.3789,4.4258,4.4941,4.584,4.6641,4.7949,4.9629,5.0019,5.0664,5.1426,5.1426,5.1426,5.1426,5.1426,5.1426,5.1231,5.0274,4.9882,4.9686,4.8682,4.8818,4.9293,4.8069,4.7791,4.7576,4.7365,4.7365,4.7519,4.8272,4.8478,4.8666,4.9402,4.8718,4.7842,4.7842,4.6928,4.5786,4.5818,4.3974,4.2377,4.2163,3.9372,3.7063,3.6804,3.5858,3.4837,3.4571,3.474,3.4801,3.4571,3.474,3.4873,3.4873,3.3712,3.2983,3.2983,3.0891,3.0421,3.1803,3.1371,3.1602,3.2975,3.3883,3.4511,3.532,3.509,3.509,3.532,3.4861,3.445,3.4149,3.4149,3.4281,4.479,4.5968,4.7183,4.6488,4.6761,4.696,4.6192,4.5847,4.5478,4.5135,0.0,0.0,0.0,0.0,0.0,0.0,4.5124,4.5418,4.5207,4.5552,4.5757,4.5169,4.5409,4.6242,4.7773,4.8402,4.9295,5.096,4.9194,4.8135,4.844,4.7195,4.6045,4.531,4.4905,4.4698,4.437,4.3876,4.3711,4.3711,4.418,4.4844,4.5703,4.6543,4.7891,4.9551,5.0,5.0664,5.1426,5.1426,5.1426,5.1426,5.1426,5.1426,5.1231,5.0274,4.9882,4.9686,4.8682,4.8471,4.8614,4.7853,4.7392,4.7073,4.7296,4.7365,4.7519,4.8272,4.8478,4.8666,4.9402,4.8701,4.7842,4.7842,4.6928,4.6028,4.6028,4.4217,4.2392,4.2392,3.9372,3.6843,3.6843,3.5895,3.4933,3.4801,3.4897,3.4933,3.4801,3.503,3.5163,3.4994,3.4643,3.443,3.4276,3.343,3.2965,3.3277,3.2995,3.289,3.3859,3.4221,3.4704,3.538,3.5259,3.5259,3.538,3.5163,3.4897,3.4644,3.4475,3.4475,4.6192,4.7533,4.8785,4.7758,4.7482,4.7205,4.6463,4.6216,4.592,4.5502,4.5798,0.0,0.0,0.0,4.5576,4.5675,0.0,4.6061,4.5914,4.6124,4.5919,4.5187,4.5754,4.687,4.8772,4.8868,4.9253,5.0191,4.9085,4.8194,4.7634,4.7378,4.6605,4.5185,4.5149,4.5046,4.4534,4.4041,4.3876,4.3711,4.4043,4.4668,4.5527,4.6367,4.7695,4.9375,4.9941,5.0664,5.1426,5.1426,5.1426,5.1426,5.1426,5.1426,5.1231,5.0274,4.9882,4.9686,4.8682,4.8162,4.7826,4.7563,4.72,4.6851,4.7245,4.7365,4.7519,4.8272,4.8478,4.8649,4.9181,4.8495,4.7825,4.7618,4.672,4.6012,4.5576,4.3762,4.2377,4.1934,3.9141,3.6843,3.6843,3.5895,3.497,3.497,3.497,3.497,3.497,3.5223,3.532,3.509,3.532,3.538,3.509,3.4994,3.4704,3.4113,3.3895,3.3919,3.4185,3.4438,3.4837,3.538,3.532,3.532,3.538,3.532,3.5163,3.497,3.4764,3.4668,4.9039,4.9849,5.0281,4.9081,4.8651,4.81,4.706,4.7374,4.7432,4.6016,4.7085,4.7555,4.5626,4.5724,4.5724,0.0,4.5036,0.0,0.0,4.4695,4.5053,4.5734,4.6765,4.7714,4.8267,4.8315,4.8555,4.9084,4.8004,4.7298,4.7096,4.6898,4.6443,4.5664,4.5635,4.5372,4.5046,4.4534,4.4205,4.3711,4.373,4.4199,4.5078,4.5937,4.7266,4.8926,4.9805,5.0664,5.1426,5.1426,5.1426,5.1426,5.1426,5.1426,5.1231,5.0274,4.9882,4.9686,4.8682,4.7944,4.7421,4.7563,4.72,4.6851,4.7245,4.7365,4.7519,4.8272,4.8478,4.8431,4.8721,4.8255,4.7618,4.7153,4.6479,4.5786,4.4428,4.3291,4.2134,4.0771,3.8432,3.6843,3.6843,3.5895,3.497,3.497,3.497,3.497,3.497,3.5223,3.538,3.538,3.5609,3.5646,3.5392,3.5126,3.4644,3.3859,3.3787,3.3919,3.4185,3.4438,3.4837,3.538,3.5126,3.5126,3.538,3.5126,3.497,3.497,3.497,3.497,4.9302,5.0741,5.1936,5.0532,5.0159,4.9688,4.7974,4.8141,4.81,4.6406,4.7482,4.8134,4.6238,4.6387,4.6512,0.0,0.0,4.5101,0.0,4.4546,4.4596,4.5663,4.6159,4.6655,4.7185,4.7257,4.7617,4.8483,4.8148,4.7886,4.7757,4.8327,4.792,4.6422,4.7183,4.7389,4.6769,4.693,4.6909,4.6587,4.5779,4.575,4.6205,4.654,4.7344,4.8496,4.9668,5.0508,5.1035,5.1308,5.1426,5.1426,5.1426,5.1426,5.1231,5.0274,4.9882,4.9686,4.7907,4.7361,4.7164,4.6871,4.6785,4.6851,4.7245,4.7365,4.7519,4.8272,4.8478,4.8431,4.8721,4.8255,4.7618,4.7137,4.6479,4.5561,4.4413,4.3276,4.1905,4.0757,3.8472,3.6843,3.6843,3.5895,3.4897,3.474,3.4861,3.4897,3.474,3.5259,3.5585,3.5416,3.5778,3.5875,3.5416,3.4801,3.4414,3.4318,3.3992,3.3992,3.4414,3.4535,3.474,3.509,3.503,3.4994,3.509,3.4994,3.497,3.497,3.497,3.497,5.0375,5.1869,5.2971,5.1504,5.1202,5.0724,4.8618,4.8666,4.8651,4.695,4.7757,4.8385,4.7104,4.7029,4.6878,0.0,0.0,4.4817,0.0,4.4516,4.467,4.5497,4.5556,4.5862,4.6391,4.6439,4.68,4.7666,4.8074,4.8106,4.7841,4.8569,4.8403,4.74,4.7859,4.8161,4.8165,4.8656,4.8656,4.8187,4.7701,4.7589,4.792,4.7782,4.8276,4.9445,4.9914,5.0508,5.1055,5.1308,5.1426,5.1426,5.1426,5.1426,5.1231,5.0274,4.9686,4.9095,4.731,4.696,4.7147,4.6509,4.6474,4.6851,4.7245,4.7365,4.7502,4.8118,4.8392,4.8414,4.8348,4.7949,4.7618,4.672,4.6028,4.5124,4.3747,4.2606,4.1231,3.9848,3.7981,3.683,3.6609,3.5673,3.4897,3.474,3.4861,3.4897,3.474,3.532,3.5706,3.5549,3.6008,3.6128,3.5706,3.4933,3.4535,3.4704,3.4318,3.4221,3.4571,3.4668,3.4897,3.5259,3.5066,3.509,3.5392,3.509,3.503,3.5126,3.4994,3.497]},{"header":{"parameterUnit":"m.s-1","parameterCategory":1,"la1":30.6,"la2":29.2853,"lo1":-89.7004,"lo2":-87.6739,"dy":0.0162,"dx":0.0183,"nx":112,"ny":82,"refTime":"2023-06-01T06:00:00:Z","depth":0,"parameterNumber":3,"parameterNumberName":"V-component_of_WINDS"},"data":[0.0,0.0,0.0,0.0,0.0,0.0,0.0,0.0,0.0,0.0,0.0,0.0,0.0,0.0,0.0,0.0,0.0,0.0,0.0,0.0,0.0,0.0,0.0,0.0,0.0,0.0,0.0,0.0,0.0,0.0,0.0,0.0,0.0,0.0,0.0,0.0,0.0,0.0,0.0,0.0,0.0,0.0,0.0,0.0,0.0,0.0,0.0,0.0,0.0,0.0,0.0,0.0,0.0,0.0,0.0,0.0,0.0,0.0,0.0,0.0,0.0,0.0,0.0,0.0,0.0,0.0,0.0,0.0,0.0,0.0,0.0,0.0,0.0,0.0,0.0,0.0,0.0,0.0,0.0,0.0,0.0,0.0,0.0,0.0,0.0,0.0,0.0,0.0,0.0,0.0,4.7488,4.81,5.038,5.1893,5.1898,5.172,5.0937,4.937,0.0,0.0,0.0,0.0,0.0,0.0,0.0,0.0,0.0,0.0,0.0,0.0,0.0,0.0,0.0,0.0,0.0,0.0,0.0,0.0,0.0,0.0,0.0,0.0,0.0,0.0,0.0,0.0,0.0,0.0,0.0,0.0,0.0,0.0,0.0,0.0,0.0,0.0,0.0,0.0,0.0,0.0,0.0,0.0,0.0,0.0,0.0,0.0,0.0,0.0,0.0,0.0,0.0,0.0,0.0,0.0,0.0,0.0,0.0,0.0,0.0,0.0,0.0,0.0,0.0,0.0,0.0,0.0,0.0,0.0,0.0,0.0,0.0,0.0,0.0,0.0,0.0,0.0,0.0,0.0,0.0,0.0,0.0,0.0,0.0,0.0,0.0,0.0,0.0,0.0,0.0,0.0,0.0,0.0,0.0,0.0,0.0,0.0,0.0,0.0,0.0,0.0,0.0,0.0,4.7574,4.9996,5.1222,5.1898,5.1799,5.1162,5.031,4.9172,0.0,0.0,0.0,0.0,0.0,0.0,0.0,0.0,0.0,0.0,0.0,0.0,0.0,0.0,0.0,0.0,0.0,0.0,0.0,0.0,0.0,0.0,0.0,0.0,0.0,0.0,0.0,0.0,0.0,0.0,0.0,0.0,0.0,0.0,0.0,0.0,0.0,0.0,0.0,0.0,0.0,0.0,0.0,0.0,0.0,0.0,0.0,0.0,0.0,0.0,0.0,0.0,0.0,0.0,0.0,0.0,0.0,0.0,0.0,0.0,0.0,0.0,0.0,0.0,0.0,0.0,0.0,0.0,0.0,0.0,0.0,0.0,0.0,0.0,0.0,0.0,0.0,0.0,0.0,0.0,0.0,0.0,0.0,0.0,0.0,0.0,0.0,0.0,0.0,0.0,0.0,0.0,0.0,0.0,0.0,0.0,0.0,0.0,0.0,0.0,0.0,0.0,0.0,4.8516,4.9646,5.2386,5.3024,5.3181,5.3184,5.1884,5.0919,5.0405,4.8732,0.0,0.0,0.0,0.0,0.0,0.0,0.0,0.0,0.0,0.0,0.0,0.0,0.0,0.0,0.0,0.0,0.0,0.0,0.0,0.0,0.0,0.0,0.0,0.0,0.0,0.0,0.0,0.0,0.0,0.0,0.0,0.0,0.0,0.0,0.0,0.0,0.0,0.0,0.0,0.0,0.0,0.0,0.0,0.0,0.0,0.0,0.0,0.0,0.0,0.0,0.0,0.0,0.0,0.0,0.0,0.0,0.0,0.0,0.0,0.0,0.0,0.0,0.0,0.0,0.0,0.0,0.0,0.0,0.0,0.0,0.0,0.0,0.0,0.0,0.0,0.0,0.0,0.0,0.0,0.0,0.0,0.0,0.0,0.0,0.0,0.0,0.0,0.0,0.0,0.0,0.0,0.0,0.0,0.0,0.0,0.0,0.0,0.0,0.0,0.0,0.0,0.0,5.085,5.1619,5.4112,5.4306,5.4273,5.4237,5.2412,5.1299,5.145,4.9073,0.0,0.0,0.0,0.0,0.0,0.0,0.0,0.0,0.0,0.0,0.0,0.0,0.0,0.0,0.0,0.0,0.0,0.0,0.0,0.0,0.0,0.0,0.0,0.0,0.0,0.0,0.0,0.0,0.0,0.0,0.0,0.0,0.0,0.0,0.0,0.0,0.0,0.0,0.0,0.0,0.0,0.0,0.0,0.0,0.0,0.0,0.0,0.0,0.0,0.0,0.0,0.0,0.0,0.0,0.0,0.0,0.0,0.0,0.0,0.0,0.0,0.0,0.0,0.0,0.0,0.0,0.0,0.0,0.0,0.0,0.0,0.0,0.0,0.0,0.0,0.0,0.0,0.0,0.0,0.0,0.0,0.0,0.0,0.0,0.0,0.0,0.0,0.0,0.0,0.0,0.0,0.0,0.0,0.0,0.0,0.0,0.0,0.0,0.0,0.0,0.0,0.0,5.0929,5.2188,5.4121,5.42,5.4091,5.4019,5.1819,5.0668,5.1342,4.9076,0.0,0.0,0.0,0.0,0.0,0.0,0.0,0.0,0.0,0.0,0.0,0.0,0.0,0.0,0.0,0.0,0.0,0.0,0.0,0.0,0.0,0.0,0.0,0.0,0.0,0.0,0.0,0.0,0.0,0.0,0.0,0.0,0.0,0.0,0.0,0.0,0.0,0.0,0.0,0.0,0.0,0.0,0.0,0.0,0.0,0.0,0.0,0.0,0.0,0.0,0.0,0.0,0.0,0.0,0.0,0.0,0.0,0.0,0.0,0.0,0.0,0.0,0.0,0.0,0.0,0.0,0.0,0.0,0.0,0.0,0.0,0.0,0.0,0.0,0.0,0.0,0.0,0.0,0.0,0.0,0.0,0.0,0.0,0.0,0.0,0.0,0.0,0.0,0.0,0.0,0.0,0.0,0.0,0.0,0.0,0.0,0.0,0.0,0.0,0.0,0.0,0.0,5.1784,5.2823,5.4052,5.4092,5.4019,5.3982,5.2158,5.1081,5.1379,0.0,0.0,0.0,0.0,0.0,0.0,0.0,0.0,0.0,0.0,0.0,0.0,0.0,0.0,0.0,0.0,0.0,0.0,0.0,0.0,0.0,0.0,0.0,0.0,0.0,0.0,0.0,0.0,0.0,0.0,0.0,0.0,0.0,0.0,0.0,0.0,0.0,0.0,0.0,0.0,0.0,0.0,0.0,0.0,0.0,0.0,0.0,0.0,0.0,0.0,0.0,0.0,0.0,0.0,0.0,0.0,0.0,0.0,0.0,0.0,0.0,0.0,0.0,0.0,0.0,0.0,0.0,0.0,0.0,0.0,0.0,0.0,0.0,0.0,0.0,0.0,0.0,0.0,0.0,0.0,0.0,0.0,0.0,0.0,0.0,0.0,0.0,0.0,0.0,0.0,0.0,0.0,0.0,0.0,0.0,0.0,0.0,0.0,0.0,0.0,0.0,0.0,5.1083,5.2195,5.3123,5.398,5.3982,5.3944,5.3944,5.2122,5.1119,5.1379,0.0,0.0,0.0,0.0,0.0,0.0,0.0,0.0,0.0,0.0,0.0,0.0,0.0,0.0,0.0,0.0,0.0,0.0,0.0,0.0,0.0,0.0,0.0,0.0,0.0,0.0,0.0,0.0,0.0,0.0,0.0,0.0,0.0,0.0,0.0,0.0,0.0,0.0,0.0,0.0,0.0,0.0,0.0,0.0,0.0,0.0,0.0,0.0,0.0,0.0,0.0,0.0,0.0,0.0,0.0,0.0,0.0,0.0,0.0,0.0,0.0,0.0,0.0,0.0,0.0,0.0,0.0,0.0,0.0,0.0,0.0,0.0,0.0,0.0,0.0,0.0,0.0,0.0,0.0,0.0,0.0,0.0,0.0,0.0,0.0,0.0,0.0,0.0,0.0,0.0,0.0,0.0,0.0,0.0,0.0,0.0,0.0,0.0,0.0,0.0,0.0,0.0,5.0897,5.2048,5.305,5.3907,5.3907,5.3794,5.3831,5.1565,5.0488,0.0,0.0,0.0,0.0,0.0,0.0,0.0,0.0,0.0,0.0,0.0,0.0,0.0,0.0,0.0,0.0,0.0,0.0,0.0,0.0,0.0,0.0,0.0,0.0,0.0,0.0,0.0,0.0,0.0,0.0,0.0,0.0,0.0,0.0,0.0,0.0,0.0,0.0,0.0,0.0,0.0,0.0,0.0,0.0,0.0,0.0,0.0,0.0,0.0,0.0,0.0,0.0,0.0,0.0,0.0,0.0,0.0,0.0,0.0,0.0,0.0,0.0,0.0,0.0,0.0,0.0,0.0,0.0,0.0,0.0,0.0,0.0,0.0,0.0,0.0,0.0,0.0,0.0,0.0,0.0,0.0,0.0,0.0,0.0,0.0,0.0,0.0,0.0,0.0,0.0,0.0,0.0,0.0,0.0,0.0,0.0,0.0,0.0,0.0,0.0,0.0,0.0,0.0,5.0892,5.2417,5.3795,5.4613,5.4128,5.4054,5.4611,5.2419,5.1119,5.1379,0.0,0.0,0.0,0.0,0.0,0.0,0.0,0.0,0.0,0.0,0.0,0.0,0.0,0.0,0.0,0.0,0.0,0.0,0.0,0.0,0.0,0.0,0.0,0.0,0.0,0.0,0.0,0.0,0.0,0.0,0.0,0.0,0.0,0.0,0.0,0.0,0.0,0.0,0.0,0.0,0.0,0.0,0.0,0.0,0.0,0.0,0.0,0.0,0.0,0.0,0.0,0.0,0.0,0.0,0.0,0.0,0.0,0.0,0.0,0.0,0.0,0.0,0.0,0.0,0.0,0.0,0.0,0.0,0.0,0.0,0.0,0.0,0.0,0.0,0.0,0.0,0.0,0.0,0.0,0.0,0.0,0.0,0.0,0.0,0.0,0.0,0.0,0.0,0.0,0.0,0.0,0.0,0.0,0.0,0.0,0.0,0.0,0.0,0.0,0.0,0.0,0.0,5.1213,5.3006,5.4611,5.5429,5.5094,5.4871,5.4983,5.3385,5.2085,5.1454,0.0,0.0,0.0,0.0,0.0,0.0,0.0,0.0,0.0,0.0,0.0,0.0,0.0,0.0,0.0,0.0,0.0,0.0,0.0,0.0,0.0,0.0,0.0,0.0,0.0,0.0,0.0,0.0,0.0,0.0,0.0,0.0,0.0,0.0,0.0,0.0,0.0,0.0,0.0,0.0,0.0,0.0,0.0,0.0,0.0,0.0,0.0,0.0,0.0,0.0,0.0,0.0,0.0,0.0,0.0,0.0,0.0,0.0,0.0,0.0,0.0,0.0,0.0,0.0,0.0,0.0,0.0,0.0,0.0,0.0,0.0,0.0,0.0,0.0,0.0,0.0,0.0,0.0,0.0,0.0,0.0,0.0,0.0,0.0,0.0,0.0,0.0,0.0,0.0,0.0,0.0,0.0,0.0,0.0,0.0,0.0,0.0,0.0,0.0,0.0,0.0,0.0,5.1815,5.3776,5.5466,5.632,5.6357,5.5986,5.5206,5.4314,5.3162,5.1602,0.0,0.0,0.0,0.0,0.0,0.0,0.0,0.0,0.0,0.0,0.0,0.0,0.0,0.0,0.0,0.0,0.0,0.0,0.0,0.0,0.0,0.0,0.0,0.0,0.0,0.0,0.0,0.0,0.0,0.0,0.0,0.0,0.0,0.0,0.0,0.0,0.0,0.0,0.0,0.0,0.0,0.0,0.0,0.0,0.0,0.0,0.0,0.0,0.0,0.0,0.0,0.0,0.0,0.0,0.0,0.0,0.0,0.0,0.0,0.0,3.9193,3.8905,0.0,0.0,0.0,0.0,0.0,0.0,0.0,0.0,0.0,0.0,0.0,0.0,0.0,0.0,0.0,0.0,0.0,0.0,0.0,0.0,0.0,0.0,0.0,0.0,0.0,0.0,0.0,0.0,0.0,0.0,0.0,0.0,0.0,0.0,0.0,0.0,0.0,0.0,0.0,0.0,5.2578,5.4585,5.6357,5.7175,5.6692,5.6209,5.606,5.4648,5.3385,5.2419,5.1119,0.0,0.0,0.0,0.0,0.0,0.0,0.0,0.0,0.0,0.0,0.0,0.0,0.0,0.0,0.0,0.0,0.0,0.0,0.0,0.0,0.0,0.0,0.0,0.0,0.0,0.0,0.0,0.0,0.0,0.0,0.0,0.0,0.0,0.0,0.0,0.0,0.0,0.0,0.0,0.0,0.0,0.0,0.0,0.0,0.0,0.0,0.0,0.0,0.0,0.0,0.0,0.0,0.0,0.0,0.0,0.0,0.0,0.0,0.0,4.1988,4.1056,0.0,0.0,0.0,0.0,0.0,0.0,0.0,0.0,0.0,0.0,0.0,0.0,0.0,0.0,0.0,0.0,0.0,0.0,0.0,0.0,0.0,0.0,0.0,0.0,0.0,0.0,0.0,0.0,0.0,0.0,0.0,0.0,0.0,0.0,0.0,0.0,0.0,0.0,0.0,0.0,5.3288,5.5306,5.701,5.7825,5.7571,5.7056,5.6277,5.5463,5.4314,5.2717,5.2159,0.0,0.0,0.0,0.0,0.0,0.0,0.0,0.0,0.0,0.0,0.0,0.0,0.0,0.0,0.0,0.0,0.0,0.0,0.0,0.0,0.0,0.0,0.0,0.0,0.0,0.0,0.0,0.0,0.0,0.0,0.0,0.0,0.0,0.0,0.0,0.0,0.0,0.0,0.0,0.0,0.0,0.0,0.0,0.0,0.0,0.0,0.0,0.0,0.0,0.0,0.0,0.0,0.0,4.6302,4.6893,4.7284,4.8014,4.8734,4.9234,4.6534,4.4972,4.4341,4.4405,0.0,0.0,0.0,0.0,0.0,0.0,0.0,0.0,0.0,0.0,0.0,0.0,0.0,0.0,0.0,0.0,0.0,0.0,0.0,0.0,0.0,0.0,5.2491,5.3261,5.3555,5.3193,5.1482,0.0,0.0,0.0,0.0,0.0,0.0,0.0,0.0,0.0,0.0,0.0,5.4255,5.6095,5.7654,5.8504,5.8517,5.7857,5.6413,5.6425,5.5538,5.3347,5.372,5.372,0.0,0.0,0.0,0.0,0.0,0.0,0.0,0.0,0.0,0.0,0.0,0.0,0.0,0.0,0.0,0.0,0.0,0.0,0.0,0.0,0.0,0.0,0.0,0.0,0.0,0.0,0.0,0.0,0.0,0.0,0.0,0.0,3.8186,3.8439,0.0,0.0,0.0,0.0,0.0,0.0,0.0,0.0,0.0,0.0,0.0,0.0,0.0,4.5908,4.6346,4.7631,4.8308,4.8443,5.0017,5.1162,5.1999,5.2589,5.3306,5.4147,5.4045,0.0,4.8105,4.824,0.0,0.0,0.0,0.0,0.0,0.0,0.0,0.0,0.0,0.0,0.0,0.0,0.0,0.0,0.0,0.0,0.0,0.0,0.0,0.0,0.0,0.0,5.8327,5.9098,5.9832,6.0419,6.0871,5.6169,5.1614,5.0695,5.0695,5.0805,0.0,0.0,0.0,0.0,0.0,0.0,5.6054,5.7398,5.8541,5.9353,5.8799,5.7987,5.7026,5.7117,5.6714,5.5677,5.5127,5.4797,5.4686,5.4017,0.0,0.0,0.0,0.0,0.0,0.0,0.0,0.0,0.0,0.0,0.0,0.0,0.0,0.0,0.0,0.0,0.0,0.0,0.0,0.0,0.0,0.0,0.0,0.0,0.0,0.0,0.0,0.0,0.0,3.8505,3.9547,3.983,4.0692,4.1557,0.0,0.0,0.0,0.0,0.0,0.0,0.0,0.0,0.0,4.8139,4.8727,4.9542,5.0541,5.1217,5.1961,5.2807,5.47,5.6095,5.7086,5.8511,5.9768,6.0861,6.0988,6.0154,5.8331,5.4545,5.3226,5.3534,0.0,0.0,0.0,0.0,5.4355,5.4565,5.5265,5.5339,5.5212,5.586,0.0,0.0,0.0,0.0,0.0,0.0,0.0,5.84,5.8841,6.0456,6.2144,6.2952,6.3759,6.4457,6.4787,6.0933,5.6895,5.517,5.3739,5.2632,5.2071,5.1834,0.0,0.0,0.0,5.6327,5.7058,5.818,5.898,5.9311,5.8739,5.7973,5.7125,5.718,5.6973,5.6158,5.5869,5.5726,5.5726,5.4946,5.4648,0.0,0.0,0.0,0.0,0.0,0.0,0.0,0.0,0.0,0.0,0.0,0.0,0.0,0.0,0.0,0.0,0.0,0.0,0.0,0.0,0.0,0.0,0.0,0.0,0.0,0.0,0.0,0.0,3.9967,4.1084,4.1339,4.226,4.3234,0.0,0.0,0.0,0.0,0.0,0.0,4.9474,5.1008,5.1902,5.2063,5.2638,5.3653,5.5175,5.5581,5.6396,5.7695,5.9661,6.1187,6.237,6.4042,6.5402,6.6483,6.6585,6.6981,6.706,6.114,5.9,5.9439,5.9439,5.9492,5.9704,5.9961,6.0063,6.0186,6.1056,6.097,6.0566,6.119,6.097,6.0493,6.0493,0.0,0.0,0.0,0.0,6.2768,6.3576,6.5007,6.6512,6.754,6.8531,6.9339,6.9467,6.6459,6.2755,5.9538,5.6822,5.4833,5.4253,5.4045,0.0,5.4672,5.6514,5.7996,5.8263,5.904,5.9538,5.9538,5.8897,5.8133,5.7324,5.747,5.7339,5.6747,5.6833,5.684,5.6617,5.5986,5.5652,5.5652,0.0,0.0,0.0,0.0,0.0,0.0,0.0,0.0,0.0,0.0,0.0,0.0,0.0,0.0,0.0,0.0,0.0,0.0,0.0,0.0,0.0,0.0,0.0,0.0,0.0,0.0,0.0,0.0,0.0,4.2858,4.3811,0.0,0.0,0.0,0.0,5.0275,5.1226,5.2323,5.3669,5.4521,5.5723,5.7408,5.7543,5.8254,5.9742,6.1197,6.2361,6.2999,6.4772,6.6254,6.7613,6.8258,6.8999,6.9708,7.0092,7.0432,7.0476,6.7168,6.5983,6.6315,6.6315,6.6315,6.6374,6.6624,6.6736,6.6792,6.7139,6.7247,6.721,6.7247,6.7247,6.721,6.721,6.721,0.0,0.0,6.7834,6.8678,6.9449,7.0881,7.2459,7.4037,7.5652,7.6913,7.7594,7.336,6.7891,6.2475,5.8841,5.6895,5.7629,0.0,5.7279,5.7721,5.8227,5.8969,6.0114,6.0309,6.0346,6.0346,5.9648,5.8841,5.7997,5.8186,5.8319,5.8282,5.8461,5.8252,5.7472,5.7398,5.736,5.736,5.658,0.0,0.0,0.0,0.0,0.0,0.0,0.0,0.0,0.0,0.0,0.0,0.0,0.0,0.0,0.0,0.0,0.0,0.0,0.0,0.0,0.0,0.0,0.0,0.0,0.0,0.0,0.0,0.0,4.506,4.6069,0.0,4.9458,4.9627,5.0841,5.3685,5.4227,5.5247,5.7148,5.8405,5.9621,6.0757,6.1704,6.2685,6.3666,6.4687,6.5515,6.623,6.8189,6.9621,7.0617,7.1658,7.2549,7.3368,7.3583,7.3864,7.4,7.2983,7.1484,6.9828,6.9828,6.9828,6.989,7.0155,7.0274,7.0332,7.0657,7.077,7.077,7.077,7.077,7.077,7.077,7.0543,7.031,7.031,7.0857,7.1659,7.2498,7.4129,7.5909,7.7011,7.8112,7.893,7.9059,7.4238,6.9445,6.7964,6.2544,5.8344,5.8731,5.8673,5.8626,5.8721,5.9773,6.0677,6.1117,6.1153,6.1153,6.1153,6.0456,5.9916,5.9716,5.9817,5.9989,6.0078,6.0209,6.0184,5.9887,5.8846,5.8289,5.8289,5.6989,5.6432,0.0,0.0,0.0,0.0,0.0,0.0,0.0,0.0,0.0,0.0,0.0,0.0,0.0,0.0,0.0,0.0,0.0,0.0,0.0,0.0,0.0,0.0,0.0,0.0,0.0,4.4884,4.6406,4.7642,4.9001,5.0574,5.2536,5.3179,5.4499,5.7002,5.7679,5.8829,6.0791,6.211,6.3226,6.4208,6.5189,6.6068,6.6846,6.7796,6.8544,6.9302,7.1049,7.2321,7.311,7.4009,7.4725,7.5189,7.5406,7.5657,7.5798,7.5971,7.4844,7.3124,7.3124,7.3124,7.3188,7.3505,7.3629,7.369,7.3992,7.4147,7.4147,7.4147,7.4147,7.4147,7.4147,7.3751,7.3343,7.3343,7.3924,7.4651,7.5196,7.6747,7.8295,7.8883,7.9553,7.9975,7.9676,7.5077,7.1062,7.1453,6.5296,6.0076,6.0371,6.0494,6.0627,6.0811,6.152,6.2108,6.2401,6.2181,6.1887,6.163,6.1165,6.0809,6.0609,6.0794,6.0774,6.0604,6.0692,6.063,6.037,5.9552,5.9107,5.9107,5.8364,5.7955,5.7955,0.0,0.0,0.0,0.0,0.0,0.0,0.0,0.0,0.0,0.0,0.0,0.0,0.0,0.0,0.0,0.0,0.0,0.0,0.0,0.0,0.0,0.0,0.0,4.5421,4.7239,4.912,5.0626,5.2472,5.4194,5.5716,5.7171,5.8626,6.0148,6.1637,6.3125,6.4613,6.5392,6.6474,6.7929,6.7996,6.8368,6.918,7.0482,7.1463,7.2116,7.3518,7.4522,7.5189,7.5189,7.5189,7.5189,7.5406,7.5657,7.5798,7.5971,7.614,7.6275,7.6275,7.6275,7.6342,7.6672,7.6801,7.6866,7.7181,7.7304,7.7304,7.7341,7.7378,7.7316,7.7316,7.6966,7.6512,7.6512,7.7056,7.7674,7.771,7.8727,7.981,7.991,8.0304,8.0625,8.0073,7.63,7.2953,7.2698,6.6848,6.2187,6.2778,6.3106,6.351,6.4075,6.3392,0.0,6.398,6.3392,6.2585,6.1741,6.1801,6.1603,6.0793,6.0987,6.0789,6.0011,5.9987,5.9664,5.8884,5.9589,5.9998,5.9961,6.0778,6.1187,6.1187,0.0,0.0,0.0,0.0,0.0,0.0,0.0,0.0,0.0,0.0,0.0,0.0,0.0,0.0,0.0,0.0,0.0,0.0,0.0,0.0,0.0,4.6337,4.8096,4.8096,4.9224,5.1028,5.3573,5.51,5.6697,5.8693,6.025,6.1772,6.326,6.4241,6.5425,6.6914,6.7726,6.8605,6.9519,7.0094,7.0466,7.0703,7.1541,7.2257,7.2881,7.3482,7.4096,7.4744,7.4744,7.4744,7.4819,7.5442,7.5727,7.5798,7.6108,7.6208,7.6275,7.6275,7.6275,7.6342,7.6672,7.6929,7.7181,7.7243,7.7304,7.7414,7.8038,7.797,7.7721,7.8267,7.7733,7.6907,7.6907,7.705,7.7372,7.7944,7.9106,8.0369,8.1305,8.2138,8.2648,8.2648,7.7828,7.3494,7.3363,6.7984,6.3717,6.4506,6.4207,6.4119,6.4897,6.4273,6.3833,6.4053,6.442,6.431,6.3503,6.4044,6.4451,6.4328,6.3881,6.3576,6.3445,6.2888,6.2487,6.2264,6.193,6.1447,6.0853,6.1076,6.1187,0.0,0.0,0.0,0.0,0.0,0.0,0.0,0.0,0.0,0.0,0.0,0.0,0.0,0.0,0.0,0.0,0.0,0.0,0.0,0.0,0.0,0.0,4.8564,5.0985,5.2283,5.253,5.371,5.6768,5.8343,5.9877,6.1806,6.3632,6.5053,6.5933,6.6981,6.7963,6.8808,6.9586,7.0229,7.0635,7.1075,7.1312,7.1312,7.1951,7.2517,7.2984,7.3426,7.3861,7.4364,7.4364,7.4364,7.4329,7.4933,7.5334,7.5514,7.5934,7.614,7.6275,0.0,0.0,0.0,0.0,7.7377,7.7541,7.816,7.8016,7.7728,7.85,7.8515,7.8255,7.8484,7.8027,7.7401,7.721,7.7347,7.7738,7.82,7.9553,8.0975,8.1741,8.2425,8.2962,8.2926,7.8135,7.3787,7.3613,6.9036,0.0,6.5897,6.5132,6.4767,6.5689,6.5118,6.4714,6.5044,6.5228,6.5118,6.4742,6.5211,6.5656,6.5804,6.5086,0.0,0.0,0.0,6.3119,6.3119,6.2673,0.0,0.0,0.0,6.3044,6.384,6.4897,0.0,0.0,6.4967,6.5341,0.0,0.0,0.0,0.0,0.0,0.0,0.0,0.0,0.0,0.0,0.0,0.0,0.0,0.0,0.0,0.0,5.0817,5.3838,5.702,5.6646,5.7063,6.0045,6.1897,6.3429,6.485,6.6914,6.8166,6.8166,6.9485,7.0297,7.0297,7.0939,0.0,0.0,0.0,7.1312,7.1312,7.1864,7.2347,7.2602,7.3183,7.3587,7.3861,7.3931,7.3966,7.3966,7.4505,7.4997,7.5367,7.58,7.6187,7.6497,7.6389,7.6492,7.6772,7.7728,7.7983,7.8025,7.9251,0.0,0.0,7.8738,7.8912,7.8774,7.8279,7.8133,7.7986,7.7382,7.776,7.837,7.8477,7.9971,8.1466,8.165,8.2141,8.2513,8.2191,7.7921,7.4116,7.3896,7.0033,6.6908,6.7085,6.6017,6.5497,6.6479,6.5962,6.5705,6.6402,6.5962,6.561,6.5653,6.5878,0.0,6.616,6.5477,6.4791,6.4085,6.3267,6.2822,6.2822,6.2896,6.3639,6.5051,6.5162,6.6035,6.7663,6.7738,6.8414,6.9557,6.8391,6.7965,0.0,0.0,0.0,0.0,0.0,0.0,0.0,0.0,0.0,0.0,0.0,0.0,0.0,0.0,0.0,5.0386,5.3102,5.6094,5.9252,6.0692,6.1857,6.3276,6.4971,6.6305,6.7184,6.8774,6.9755,6.9755,7.0601,7.1109,7.1109,7.1244,7.1312,7.1312,7.1312,7.1312,7.1312,7.1401,7.1898,7.2602,7.2382,0.0,7.3415,7.4008,7.4286,7.4403,7.5724,7.6399,7.6518,7.7341,7.7667,7.7667,7.7019,7.7547,7.8638,7.8545,7.855,7.8722,7.9002,7.8629,7.8135,7.8855,7.8777,7.8543,7.9073,7.8895,0.0,7.8365,7.8389,7.867,7.9303,8.0232,8.1211,8.2265,8.301,8.3661,8.3875,7.9522,7.5454,7.5378,7.1197,6.7719,6.8166,6.7164,6.6482,6.7357,6.6769,6.6329,6.6476,6.6916,6.7043,6.6537,6.7207,6.7677,6.7827,6.7184,6.676,6.6611,6.5831,6.5385,6.5385,6.6017,6.6546,6.6984,6.7654,6.8185,6.866,6.9386,7.0226,7.1066,6.9514,6.931,0.0,0.0,0.0,0.0,0.0,0.0,0.0,0.0,0.0,0.0,0.0,4.6576,4.7305,0.0,5.1744,5.3202,5.5918,5.8781,6.1583,6.3802,6.5362,6.5901,6.7082,6.8233,6.8977,7.0094,7.0737,7.0737,7.1109,7.1312,7.1312,7.1312,7.1312,7.1312,7.1312,7.1312,7.1312,7.1312,7.1634,7.2296,7.2072,7.2537,7.3559,7.3941,7.4322,7.4703,7.572,7.6268,7.6623,7.7433,7.8057,7.8305,7.7726,7.7844,7.8456,7.8711,7.8711,7.8674,7.936,7.9066,7.8377,7.9079,7.9144,7.8903,7.9009,7.9034,7.8952,7.8657,7.8574,7.8785,7.9592,8.0365,8.1207,8.2592,8.3559,8.4352,8.4844,8.027,7.6014,7.6014,7.1765,6.8314,6.8507,6.8422,6.8311,6.8311,6.7944,6.7687,6.7687,6.8439,6.8877,6.8631,6.9082,6.9443,6.9632,6.894,6.8357,6.7948,6.754,6.7317,6.7317,6.7736,6.824,6.866,6.9612,7.0527,7.1444,7.2361,7.3194,7.4029,7.3204,7.2921,0.0,0.0,0.0,0.0,0.0,0.0,0.0,4.3806,4.4892,4.598,4.7703,4.926,5.0021,5.2274,5.4527,5.6017,5.8601,6.1268,6.3629,6.5988,6.7657,6.8102,6.8972,6.9755,7.0364,7.0973,7.1312,7.1312,7.1312,7.1312,7.1312,7.1312,7.1312,7.1312,7.1312,7.1312,7.1312,7.1312,7.1647,7.219,7.219,7.2862,7.4016,7.4154,7.4568,7.5154,7.5809,7.6349,7.6841,7.7433,7.8135,7.8782,7.8275,7.8043,7.7972,7.8691,7.8788,7.874,7.9808,7.9479,7.8657,7.9196,7.9356,7.9276,7.8741,7.9058,7.9408,7.8987,7.8925,7.9206,8.0014,8.0786,8.1699,8.3103,8.4051,8.4788,8.5385,8.1242,7.7498,7.7579,7.4009,7.0937,7.1067,7.1198,7.077,6.9339,6.9119,6.9119,6.9119,6.9816,7.0347,7.0507,7.0628,7.0731,7.087,7.0326,6.9694,6.9026,6.8989,6.9063,6.926,6.9506,7.0049,7.0918,7.1872,7.31,7.4544,7.5181,7.5941,7.6863,7.7013,7.6563,3.9017,4.0318,4.1805,4.3193,4.3616,4.4656,0.0,4.8561,4.8859,5.1115,5.2208,5.3036,5.3765,5.5222,5.6812,5.8303,6.0456,6.2676,6.4862,6.6968,6.8707,6.998,7.0704,7.1109,7.1176,7.1278,7.1312,7.1312,7.1312,7.1312,7.1312,7.1312,7.1312,7.1312,7.1312,7.1312,7.1312,7.1312,7.1885,7.2976,7.2976,7.3616,7.4809,7.5533,7.5913,7.6016,7.7198,7.8126,7.8832,7.8541,7.8776,7.9054,7.8682,7.8482,7.8577,7.9179,7.9451,7.9373,7.9522,7.9196,7.8574,7.8657,7.8657,7.8657,7.8574,7.9185,7.9747,7.9662,8.0154,8.0821,8.1629,8.2401,8.3173,8.4051,8.4823,8.5385,8.5491,8.3349,8.159,8.2229,8.0554,7.9288,7.9889,7.7404,7.4184,7.0513,6.9963,6.9963,6.9963,7.0147,7.0347,7.0507,7.0628,7.0731,7.087,7.0846,7.0735,7.066,7.066,7.1045,7.1938,7.2646,7.3529,7.456,7.5507,7.608,7.6413,7.6525,7.6976,7.7764,7.8575,7.8087,4.1432,4.2359,4.3071,4.4204,4.5472,4.6841,4.8548,4.9838,5.1065,5.2488,5.4155,5.5421,5.5719,5.7342,5.8966,6.0026,6.2013,6.4067,6.5823,6.7802,6.9377,7.0381,7.1007,7.1312,7.1312,7.1312,7.1312,7.1312,7.1312,7.1312,7.1312,7.1312,7.1312,7.1312,7.1312,7.1312,7.1312,7.1751,7.2361,7.3113,7.3523,7.4405,7.5637,7.5982,7.6503,7.7216,7.7667,7.8237,7.8823,7.8657,7.8657,7.8823,7.8657,7.8574,7.8657,7.887,7.8952,7.8952,7.8952,7.8823,7.8679,7.9136,7.9276,7.9382,7.9803,8.0189,8.0435,8.0435,8.0681,8.1207,8.2436,8.2963,8.363,8.535,8.5982,8.6333,8.679,8.5005,8.3458,8.3674,8.2265,8.1091,8.1372,7.9259,7.6974,7.5285,7.2606,7.0863,7.0882,7.1489,7.2133,7.2791,7.2934,7.3172,7.3707,7.3744,7.3744,7.3744,7.3796,7.4085,7.4472,7.4997,7.5483,7.5919,7.6841,7.734,7.7389,7.8365,7.9053,7.9526,8.0365,8.0365,4.317,4.3978,4.4561,4.5694,4.748,4.9148,4.961,5.1426,5.3288,5.4119,5.5897,5.7297,5.7574,5.8933,6.0357,6.1516,6.3372,6.516,6.6618,6.8536,6.9946,7.0448,7.1007,7.1312,7.1312,7.1312,7.1312,7.1312,7.1312,7.1312,7.1312,7.1312,7.1312,7.1312,7.1515,7.1616,7.1616,7.2326,7.3074,7.3728,7.4274,7.5194,7.643,7.643,7.6883,7.7841,7.7928,7.8151,7.8525,7.8574,7.8574,7.8609,7.882,7.8925,7.896,7.9136,7.9101,7.8925,7.8925,7.9066,7.9311,7.9908,8.0084,8.0189,8.0751,8.1067,8.1277,8.1488,8.1699,8.219,8.3489,8.4016,8.4613,8.6536,8.7276,8.7826,8.8573,8.7548,8.6478,8.6644,8.5608,8.4754,8.4934,8.2355,8.0241,8.0304,7.5786,7.2426,7.2502,7.3222,7.4033,7.4858,7.4933,7.5156,7.575,7.5787,7.5787,7.5841,7.5947,7.6111,7.6439,7.6905,7.7317,7.7542,7.8466,7.8978,7.8978,8.018,8.0881,8.0978,8.1856,8.2282,4.3524,4.469,4.6245,4.8382,5.0001,5.1534,5.3051,5.4593,5.6025,5.7113,5.7983,5.8822,5.9761,5.996,6.0721,6.2875,6.4432,6.5889,6.738,6.921,7.0482,7.0515,7.1007,7.1312,7.1312,7.1312,7.1312,7.1312,7.1312,7.1312,7.1312,7.1312,7.1312,7.1312,7.1988,7.236,7.236,7.3105,7.4092,7.5299,7.5299,7.5982,7.7189,7.7189,7.7313,7.7613,7.7841,7.8101,7.8357,7.8525,7.8574,7.8679,7.9452,7.9768,7.9838,8.0575,8.04,7.9768,7.9768,8.0224,8.0856,8.0891,8.0891,8.0891,8.0891,8.1453,8.219,8.2928,8.37,8.4472,8.5245,8.6017,8.6798,8.7515,8.8863,9.0143,9.0874,9.1547,9.2268,9.2881,9.2969,9.317,9.3746,8.8647,8.4492,8.4588,7.9167,7.508,7.508,7.5365,7.5587,7.575,7.575,7.575,7.5787,7.5787,7.5841,7.5999,7.5999,7.6476,7.7604,7.8391,7.9316,8.0243,8.1069,8.1533,8.1683,8.172,8.1807,8.1953,8.2926,8.3351,4.55,4.686,4.8447,5.0584,5.2236,5.3693,5.5166,5.6401,5.7314,5.7904,5.8297,5.8756,5.9231,5.9661,6.0556,6.2278,6.3769,6.5392,6.7347,6.8936,6.998,7.0448,7.1007,7.1312,7.1312,7.1312,7.1312,7.1312,7.1312,7.1515,7.1988,7.2022,7.2259,7.2732,7.3003,7.3105,7.3105,7.3849,7.4636,7.5367,7.6244,7.6802,7.7223,7.7223,7.7313,7.7613,7.7841,7.8101,7.8342,7.9087,7.9382,7.9452,8.0224,8.054,8.0575,8.0821,8.1102,8.1242,8.0716,8.0716,8.0997,8.1523,8.1699,8.1874,8.2928,8.3419,8.377,8.4508,8.4929,8.5315,8.6087,8.7191,8.8348,8.9112,9.0478,9.1434,9.1187,9.211,9.2872,9.2569,9.3326,9.4036,9.4299,8.9856,8.539,8.2425,7.8248,7.5624,7.6178,7.6477,7.6995,7.8128,7.8239,7.8462,7.9019,7.9056,7.9112,7.9315,7.9423,7.9642,8.0151,8.0516,8.0881,8.1332,8.1595,8.1795,8.1942,8.247,8.2783,8.2964,8.3843,8.4609,4.7284,4.8551,4.9892,5.2077,5.3483,5.4633,5.5783,5.6701,5.7377,5.7259,5.7878,5.8427,5.8413,5.9102,5.9977,6.1179,6.2628,6.4374,6.6549,6.8168,6.9436,7.0448,7.1007,7.1312,7.1312,7.1312,7.1312,7.1312,7.1312,7.1616,7.236,7.2394,7.2732,7.3477,7.3747,7.3883,7.3883,7.4627,7.5281,7.5777,7.6712,7.7223,7.7223,7.7223,7.7313,7.749,7.7754,7.8154,7.864,7.9507,7.9943,8.0259,8.1032,8.1348,8.1383,8.1629,8.205,8.2366,8.1593,8.1523,8.1874,8.2647,8.2928,8.3173,8.4402,8.4788,8.4964,8.5701,8.6123,8.6544,8.7316,8.8608,8.9912,9.0676,9.2001,9.3024,9.2718,9.3631,9.4385,9.3874,9.4549,9.5144,9.5144,9.1063,8.6176,8.1215,7.8738,7.7645,7.8108,7.8295,7.8759,7.9799,7.9911,8.0134,8.0654,8.0785,8.0898,8.1047,8.1211,8.1334,8.1543,8.1908,8.216,8.2297,8.2598,8.296,8.3408,8.3936,8.44,8.4845,8.5413,8.5981,4.8713,4.9739,5.0807,5.2885,5.385,5.4535,5.5221,5.5875,5.6248,5.5862,5.6981,5.7904,5.745,5.8134,5.8987,5.9814,6.1141,6.2958,6.5269,6.7119,6.8871,7.0322,7.1007,7.1312,7.1312,7.1312,7.1312,7.1312,7.1312,7.165,7.2428,7.2462,7.28,7.3578,7.4289,7.4661,7.4661,7.5371,7.5994,7.6495,7.6953,7.7223,7.7223,7.7223,7.7223,7.7223,7.7701,7.8381,7.9111,7.9702,8.033,8.1067,8.1839,8.2155,8.2225,8.2928,8.3244,8.3173,8.2436,8.2682,8.3384,8.4227,8.4472,8.4613,8.535,8.5596,8.5771,8.6579,8.7386,8.8159,8.8861,9.0127,9.1479,9.2094,9.3468,9.4773,9.5358,9.6135,9.6685,9.6649,9.6685,9.6612,9.6355,9.2128,8.6934,8.1459,8.0724,8.0802,8.0765,8.0765,8.0765,8.0802,8.084,8.0802,8.084,8.101,8.1159,8.1323,8.1484,8.1693,8.1984,8.2737,8.325,8.3386,8.4216,8.5107,8.5961,8.5961,8.6473,8.7402,8.7402,8.744,5.0215,5.188,5.3445,5.4504,5.5283,5.5999,5.6747,5.6653,5.6524,5.6518,5.6093,5.5795,5.5843,5.6645,5.7661,5.8954,6.0868,6.3111,6.5849,6.7463,6.8894,7.0381,7.1007,7.1312,7.1312,7.1312,7.1312,7.1312,7.1312,7.1853,7.3138,7.3206,7.3815,7.51,7.5303,7.5439,7.5439,7.5986,7.6461,7.6736,7.7043,7.7223,7.7223,7.7223,7.7223,7.7258,7.8079,7.8726,7.9181,8.0649,8.1419,8.1874,8.2612,8.2928,8.2928,8.3138,8.3595,8.4086,8.3876,8.3946,8.4227,8.4964,8.521,8.5385,8.6158,8.679,8.7422,8.8194,8.9001,8.9669,8.9844,9.1402,9.292,9.3093,9.4668,9.6054,9.5545,9.6135,9.6539,9.5914,9.6434,9.5847,9.2236,9.06,8.8137,8.3269,8.2549,8.2326,8.1731,8.1657,8.188,8.2474,8.2549,8.2607,8.2722,8.2779,8.2893,8.3131,8.3292,8.3712,8.4543,8.4833,8.5348,8.6139,8.6403,8.6641,8.7014,8.7014,8.7127,8.7402,8.7402,8.7705,5.1739,5.3131,5.4357,5.4724,5.5337,5.5796,5.5647,5.5309,5.4884,5.446,5.4189,5.4095,5.4222,5.5336,5.6603,5.7738,5.981,6.2245,6.514,6.6916,6.8478,7.0255,7.1007,7.1312,7.1312,7.1312,7.1447,7.1751,7.1785,7.2293,7.3443,7.3815,7.4492,7.5676,7.5709,7.5805,7.5899,7.6309,7.6553,7.6793,7.7099,7.7223,7.7223,7.7223,7.7223,7.7258,7.8286,7.8985,7.9668,8.112,8.2085,8.2612,8.3033,8.3208,8.3244,8.3595,8.4016,8.4508,8.5175,8.542,8.5491,8.5877,8.6017,8.6228,8.7386,8.8018,8.851,8.9317,9.009,9.0687,9.0687,9.2034,9.3444,9.3444,9.4844,9.6113,9.5674,9.6123,9.6575,9.6098,9.6544,9.5516,9.0716,9.0106,8.8572,8.3923,8.3477,8.3552,8.3106,8.2734,8.2697,8.3143,8.3239,8.3446,8.3897,8.4049,8.4368,8.487,8.5086,8.547,8.6115,8.6304,8.663,8.7306,8.7306,8.7506,8.7933,8.7933,8.8122,8.8463,8.8463,8.8691,5.3097,5.3839,5.4341,5.4341,5.47,5.473,5.3473,5.3054,5.2557,5.1452,5.1981,5.2708,5.2763,5.4284,5.5721,5.658,5.8619,6.1033,6.393,6.6094,6.8135,7.0122,7.094,7.1312,7.1312,7.1312,7.1616,7.2326,7.2496,7.2868,7.3612,7.4255,7.4931,7.5676,7.5709,7.5805,7.6122,7.6402,7.6553,7.6793,7.7099,7.7223,7.7223,7.7223,7.7292,7.743,7.8335,7.9366,8.0399,8.1434,8.2311,8.3208,8.3208,8.3279,8.3454,8.4156,8.4543,8.4929,8.6263,8.679,8.686,8.686,8.693,8.7246,8.858,8.9142,8.9458,9.016,9.0862,9.1459,9.1459,9.2459,9.3484,9.3484,9.4567,9.5658,9.5767,9.6399,9.7016,9.7016,9.7245,9.5811,9.1117,9.0439,8.897,8.4257,8.4109,8.4555,8.4555,8.396,8.3514,8.3514,8.3632,8.4009,8.4717,8.5078,8.5545,8.6312,8.6583,8.6831,8.7084,8.7273,8.7496,8.7705,8.7705,8.8047,8.8767,8.8767,8.9108,8.979,8.979,8.979,5.3849,5.453,5.5029,5.5029,5.47,5.4162,5.3354,5.2336,5.1512,5.1499,5.1309,5.1407,5.2137,5.361,5.5114,5.6492,5.9069,6.1712,6.3991,6.6556,6.8583,6.9544,7.067,7.1312,7.1312,7.1312,7.1616,7.2326,7.2969,7.3612,7.439,7.4559,7.4931,7.5676,7.5709,7.5805,7.6122,7.6402,7.6553,7.6793,7.7099,7.7223,7.7223,7.7223,7.7568,7.8258,7.8982,8.0108,8.1235,8.2056,8.2711,8.3208,8.3208,8.363,8.4227,8.4367,8.521,8.6333,8.6614,8.7141,8.7667,8.7667,8.8089,8.865,8.8931,8.9879,9.0932,9.1073,9.167,9.2302,9.2302,9.2883,9.3484,9.3484,9.4567,9.5804,9.6458,9.7678,9.8782,9.89,9.9129,9.7728,9.2991,9.2343,9.0806,8.5929,8.5298,8.5372,8.5372,8.5261,8.5186,8.5186,8.5366,8.5558,8.5823,8.5957,8.6254,8.6636,8.6793,8.7286,8.8066,8.8291,8.8691,8.9373,8.9373,8.9449,8.9601,8.9601,8.9676,8.979,8.979,8.979,5.5149,5.5688,5.6107,5.5777,5.5209,5.4281,5.2546,5.1409,5.0668,5.0539,5.0371,5.0611,5.186,5.3419,5.499,5.6448,5.8833,6.1417,6.4001,6.6368,6.8294,6.9343,7.0603,7.1312,7.1312,7.165,7.2191,7.2902,7.3646,7.4221,7.4593,7.4965,7.5337,7.5676,7.5709,7.5805,7.6122,7.6402,7.6553,7.6793,7.7099,7.7223,7.7223,7.7637,7.8051,7.8465,7.9603,8.0571,8.1443,8.2174,8.2761,8.3244,8.3665,8.4086,8.4508,8.5315,8.6087,8.6754,8.7176,8.7808,8.844,8.844,8.8685,8.9142,8.9949,9.0687,9.1389,9.181,9.2196,9.2477,9.2477,9.2735,9.2989,9.2989,9.4356,9.6123,9.7625,9.8577,9.9186,9.9342,9.9535,9.8208,9.3504,9.2855,9.1316,8.6338,8.5966,8.6226,8.6226,8.6598,8.6622,8.5827,8.593,8.6234,8.6817,8.7024,8.7339,8.7969,8.8164,8.8456,8.8986,8.9173,8.9411,8.979,8.979,8.979,8.979,8.979,9.0017,9.0472,9.0472,9.07,5.6166,5.6615,5.6944,5.6316,5.5568,5.4311,5.1798,5.0693,5.0092,4.9653,4.9805,5.0493,5.2105,5.3519,5.499,5.6448,5.8568,6.092,6.3537,6.5734,6.759,6.8841,7.0232,7.1075,7.1075,7.1887,7.2699,7.3443,7.4322,7.4864,7.4864,7.5405,7.5709,7.5709,7.5709,7.5805,7.6028,7.6309,7.6587,7.6736,7.7009,7.7327,7.7499,7.812,7.8568,7.8948,8.012,8.0986,8.1652,8.2244,8.2866,8.3524,8.4156,8.4613,8.5069,8.6263,8.6825,8.707,8.7843,8.851,8.9037,8.9388,8.9493,8.9704,9.0932,9.1424,9.167,9.2302,9.2477,9.2477,9.2477,9.2477,9.2611,9.3044,9.4652,9.6697,9.8906,9.9512,9.9701,9.9898,10.0127,9.8799,9.4314,9.3701,9.2133,8.7378,8.7044,8.7341,8.7341,8.7935,8.7923,8.6862,8.6682,8.7022,8.8016,8.8204,8.8709,8.9717,8.9899,9.0004,9.0171,9.0271,9.0359,9.0359,9.0359,9.0359,9.0359,9.0359,9.07,9.1344,9.1344,9.1685,5.6166,5.6615,5.6944,5.6316,5.5239,5.3773,5.1678,5.0668,5.0095,4.9882,5.0306,5.1221,5.295,5.3997,5.499,5.6448,5.8568,6.0556,6.2146,6.4634,6.6564,6.7334,6.912,7.0297,7.0297,7.1548,7.2699,7.3443,7.4796,7.5608,7.5608,7.5676,7.5709,7.5709,7.5709,7.5709,7.5709,7.6216,7.6495,7.6495,7.6953,7.7603,7.8292,7.8361,7.9155,8.0431,8.0569,8.1297,8.2383,8.2453,8.318,8.4297,8.4402,8.528,8.6509,8.6649,8.7141,8.7878,8.8615,8.8931,8.9212,9.0616,9.1073,9.1108,9.1248,9.181,9.2407,9.2477,9.2477,9.2477,9.2477,9.2477,9.3044,9.5054,9.6168,9.7492,9.9749,10.0796,10.1434,10.1825,10.1938,10.0684,9.6931,9.6257,9.4845,9.0685,8.9496,8.905,8.905,8.9124,8.925,8.9407,8.8757,8.8704,8.9702,8.9892,9.0456,9.1558,9.165,9.1756,9.2014,9.2064,9.2064,9.2064,9.2064,9.2064,9.2064,9.2064,9.2102,9.2178,9.2178,9.2216,5.6526,5.7513,5.8052,5.7004,5.5748,5.4261,5.2302,5.0968,5.0259,5.0358,5.0615,5.1329,5.3049,5.403,5.499,5.6448,5.8171,5.986,6.1318,6.3833,6.5761,6.6497,6.8749,7.0195,7.0195,7.1921,7.3544,7.4728,7.5371,7.5912,7.6386,7.5946,7.5709,7.5709,7.5709,7.5946,7.642,7.6768,7.7195,7.7827,7.8201,7.8592,7.9086,7.9534,8.0051,8.0638,8.1121,8.1747,8.2488,8.2488,8.3215,8.4437,8.4894,8.5736,8.6754,8.7246,8.7878,8.858,8.8896,8.9598,9.0476,9.1073,9.1635,9.2021,9.2021,9.2232,9.2477,9.2477,9.2477,9.2477,9.2477,9.2611,9.3342,9.5916,9.6903,9.7956,10.0481,10.1274,10.1617,10.2009,10.2123,10.0869,9.7228,9.6591,9.5217,9.113,9.0239,9.0016,9.0016,9.0016,9.0143,9.0329,9.0153,9.0258,9.083,9.0925,9.1207,9.1876,9.1876,9.1982,9.2292,9.2292,9.2292,9.2292,9.2292,9.2292,9.2292,9.2292,9.2557,9.3088,9.3088,9.3353,5.6466,5.7663,5.8291,5.7334,5.5987,5.4449,5.258,5.1383,5.0599,5.0781,5.1027,5.1727,5.3419,5.4162,5.499,5.6448,5.7939,5.9429,6.0887,6.3033,6.4823,6.5995,6.7974,6.9451,7.0128,7.2597,7.4661,7.5946,7.6251,7.6521,7.6893,7.6352,7.6048,7.6048,7.6048,7.6318,7.6893,7.7352,7.7884,7.8681,7.8999,7.9324,7.9844,8.0362,8.0741,8.1017,8.1569,8.2059,8.2522,8.2731,8.3564,8.4823,8.5561,8.6333,8.7141,8.7913,8.8545,8.9072,8.9528,9.0371,9.1319,9.1564,9.2021,9.2477,9.2477,9.2477,9.2477,9.2477,9.2477,9.2547,9.2758,9.3025,9.3958,9.6669,9.7604,9.8477,10.1287,10.1898,10.2132,10.2711,10.2825,10.1943,9.8936,9.8412,9.726,9.3917,9.2579,9.1948,9.1948,9.1316,9.0934,9.1162,9.1473,9.1755,9.1825,9.1845,9.2072,9.2576,9.2631,9.2738,9.2999,9.305,9.305,9.305,9.305,9.305,9.305,9.305,9.3353,9.3959,9.3959,9.4262,5.5837,5.6645,5.7124,5.7094,5.5628,5.3879,5.2489,5.1822,5.1379,5.0936,5.1466,5.262,5.4155,5.4527,5.499,5.6448,5.7939,5.9429,6.0887,6.2132,6.3618,6.5828,6.6558,6.7726,6.9958,7.351,7.6014,7.6826,7.7536,7.7638,7.6927,7.6893,7.6893,7.6893,7.6893,7.6893,7.6893,7.7861,7.8394,7.8681,7.8999,7.9599,8.0603,8.0603,8.1052,8.1776,8.181,8.2059,8.2557,8.3358,8.4367,8.5561,8.6368,8.7176,8.7948,8.8721,8.9001,8.9212,9.0757,9.1284,9.1424,9.2232,9.2477,9.2477,9.2477,9.2477,9.2477,9.2477,9.2477,9.2653,9.3425,9.3799,9.4737,9.7494,9.8434,9.931,10.2092,10.2705,10.3125,10.4297,10.4598,10.4236,10.2908,10.261,10.209,10.0418,9.7446,9.5365,9.5365,9.3211,9.1752,9.1981,9.2853,9.3189,9.2548,9.2592,9.3105,9.4104,9.4311,9.4421,9.4583,9.4703,9.4755,9.4755,9.4755,9.4755,9.4755,9.4755,9.4755,9.4793,9.4793,9.4793,5.3234,5.4281,5.491,5.3982,5.3652,5.3221,5.1801,5.1937,5.2141,5.1577,5.2228,5.3033,5.3694,5.4207,5.5267,5.72,5.8314,5.9712,6.1783,6.3818,6.5612,6.6993,6.9208,7.1312,7.3037,7.4728,7.6014,7.6826,7.757,7.7874,7.7638,7.7638,7.7401,7.6927,7.6893,7.7401,7.8416,7.8718,7.9288,8.0253,8.0384,8.081,8.1431,8.1431,8.1569,8.181,8.181,8.237,8.3323,8.3566,8.4716,8.6368,8.6614,8.7176,8.7948,8.8721,8.9353,8.9949,9.0968,9.1635,9.2161,9.2407,9.2477,9.2477,9.2477,9.2477,9.2477,9.2477,9.2863,9.332,9.3729,9.4517,9.5639,9.7947,9.8612,9.9484,10.2056,10.2705,10.3125,10.4408,10.4598,10.4236,10.2908,10.2721,10.2201,10.0492,9.7966,9.6443,9.7037,9.4474,9.3025,9.4206,9.3834,9.3451,9.3335,9.3455,9.3744,9.418,9.4236,9.4349,9.4621,9.4674,9.4689,9.4793,9.4793,9.4793,9.4793,9.4793,9.4793,9.4793,9.54,9.5703,5.1439,5.2456,5.2935,5.2366,5.2205,5.1881,5.103,5.1236,5.1501,5.1134,5.1869,5.266,5.311,5.398,5.5147,5.6776,5.8133,5.9729,6.18,6.4236,6.6503,6.8345,7.1086,7.3274,7.4492,7.5777,7.6893,7.7671,7.8145,7.8416,7.8416,7.8145,7.7908,7.7739,7.7739,7.8179,7.9092,7.9397,7.9935,8.0906,8.1005,8.12,8.162,8.181,8.181,8.181,8.181,8.2509,0.0,8.3984,8.51,8.6719,8.7035,8.7632,8.8405,8.9177,8.9949,9.0722,9.1494,9.2056,9.2477,9.2477,9.2477,9.2477,9.2477,9.2477,9.2477,9.2477,9.3138,9.3869,9.4348,9.541,9.6863,9.8632,9.9346,10.0336,10.2578,10.3227,10.372,10.5183,10.56,10.5423,10.469,10.4505,10.4207,10.3204,10.0418,9.8635,9.9192,9.6146,9.4288,9.5291,9.4775,9.4334,9.4523,9.4467,9.4645,9.5005,9.4762,9.4688,9.4912,9.4719,9.4674,9.4689,9.5134,9.5286,9.5286,9.5589,9.5741,9.5741,9.6309,9.6575,0.0,5.087,5.1079,5.1648,5.093,5.0095,5.0083,4.9989,0.0,4.9947,5.0787,5.1758,5.2397,5.3696,5.4872,5.5653,5.7526,5.9496,6.1317,6.3835,6.6757,7.006,7.2326,7.3916,7.4627,7.669,7.828,7.8991,7.9092,7.9092,7.9025,7.8416,7.8382,7.9092,7.916,7.9194,7.9194,7.987,8.0309,8.061,8.0906,8.1102,8.1393,8.1715,8.181,8.181,8.1845,8.2578,8.381,8.4576,8.5624,8.686,8.7597,8.8334,8.9107,8.9914,9.0652,9.1424,9.2196,9.2477,9.2477,9.2477,9.2477,9.2477,9.2477,9.2477,9.2512,9.2547,9.3306,9.4242,9.5053,9.6577,9.8139,9.9443,10.0282,10.144,10.3504,10.4081,10.4802,10.6629,10.7158,10.7394,10.7549,10.7625,10.7625,10.7625,10.4096,10.1495,10.1607,9.7966,9.544,9.5551,9.5611,9.581,9.6079,9.5606,9.56,9.6351,9.5832,9.5497,9.5497,9.5025,9.4719,9.4772,9.5673,9.6196,9.6196,9.6954,9.7295,9.7295,9.737,9.7408,4.6531,0.0,4.8147,4.7788,4.8645,4.9382,0.0,4.9812,5.0609,5.0184,5.1327,5.2252,5.1954,5.3382,5.5127,5.6381,5.791,5.9975,6.2983,6.706,7.058,7.2496,7.4187,7.5236,7.5439,7.6995,7.8044,7.8247,7.8788,7.8855,7.828,7.8619,7.8923,7.9092,7.9667,7.9938,7.9938,8.0107,8.0309,8.061,8.0906,8.1102,8.1393,8.1715,8.181,8.1845,8.2397,8.3374,8.4611,8.5342,8.6393,8.7632,8.7808,8.8334,8.9107,8.9914,9.0652,9.1424,9.2196,9.2477,9.2477,9.2477,9.2477,9.2477,9.2477,9.2477,9.2618,9.3179,9.4116,9.5187,9.6161,9.7551,9.8949,9.9768,10.0419,10.144,10.3504,10.4081,10.4802,10.6629,10.7158,10.7394,10.7549,10.7625,10.7625,10.7625,10.4096,10.1718,10.2313,9.83,9.5886,9.7186,9.6318,9.6257,9.7722,9.668,9.6117,9.6389,9.6239,9.6245,9.64,9.627,9.6272,9.6384,9.6646,9.6869,9.6869,9.7166,9.7295,9.7333,9.7977,9.828,4.4855,4.5813,4.677,4.6411,4.7327,4.8304,4.8194,4.8881,4.9595,4.9727,5.0818,5.1748,5.167,5.3597,5.5453,5.6306,5.8365,6.1414,6.544,6.9086,7.1988,7.3781,7.4999,7.598,7.669,7.7502,7.828,7.8957,7.8754,7.872,7.8991,7.9058,7.9261,7.96,8.0006,8.0209,8.0209,8.0209,8.0309,8.041,8.0709,8.1005,8.12,8.149,8.1888,8.2328,8.2742,8.3728,8.5186,8.5664,8.6577,8.7725,8.8264,8.8861,8.9633,9.0406,9.1178,9.1916,9.2337,9.2477,9.2477,9.2477,9.2477,9.2477,9.2477,9.2477,9.2653,9.3489,9.456,9.5631,9.6861,9.8369,9.9623,10.0282,10.0797,10.1653,10.3467,10.4199,10.4882,10.6703,10.72,10.7472,10.7625,10.7625,10.7625,10.7625,10.4393,10.2201,10.261,9.9118,9.6889,9.778,9.718,9.713,9.8188,9.7638,9.7342,9.7553,9.7215,9.7088,9.7148,9.6831,9.6911,9.746,9.7517,9.7762,9.814,9.8252,9.8252,9.8252,9.8743,9.897,4.4436,4.5454,4.6441,4.6352,4.683,4.7396,4.7624,4.797,4.8438,4.9188,5.0211,5.1067,5.1889,5.4151,5.5965,5.6061,5.9291,6.3378,6.8104,7.0434,7.2394,7.4356,7.5371,7.6386,7.7705,7.7908,7.8517,7.9769,7.8686,7.8551,7.9803,7.9397,7.9431,8.0175,8.0209,8.0209,8.0209,8.0209,8.0209,8.0209,8.051,8.0709,8.1005,8.1297,8.1902,8.2914,8.3018,8.4074,8.5582,8.5977,8.6682,8.7571,8.8591,8.9493,9.0301,9.1038,9.181,9.2477,9.2477,9.2477,9.2477,9.2477,9.2477,9.2477,9.2477,9.2681,9.3087,9.4058,9.502,9.6054,9.7573,9.9028,10.0246,10.0713,10.1277,10.2081,10.3586,10.4353,10.5189,10.6703,10.7279,10.7625,10.7625,10.7625,10.7625,10.7625,10.4802,10.2721,10.2721,9.9898,9.7892,9.7892,9.7892,9.7924,9.8091,9.8262,9.8525,9.8842,9.8266,9.7891,9.7891,9.7336,9.7379,9.8233,9.8233,9.861,9.9326,9.9384,9.9384,9.9384,9.9384,9.9384,4.4975,4.6142,4.701,4.6471,4.6886,4.7624,4.788,4.856,4.9188,4.9566,5.0667,5.192,5.3271,5.528,5.6861,5.7437,6.1369,6.579,6.9745,7.1951,7.351,7.4492,7.5845,7.6826,7.7063,7.7638,7.8077,7.8314,7.8111,7.8077,7.8314,7.8822,7.9431,8.0175,8.0209,8.0209,8.0209,8.0209,8.0209,8.0209,8.051,8.0709,8.1005,8.1297,8.1902,8.2949,8.3569,8.4558,8.5617,8.6568,8.7205,8.7571,8.8591,8.9493,9.0301,9.1038,9.181,9.2477,9.2477,9.2477,9.2477,9.2477,9.2477,9.2477,9.2477,9.3387,9.4598,9.5664,9.6078,9.6506,9.8063,9.9606,10.0713,10.0797,10.168,10.2815,10.3696,10.4758,10.589,10.6777,10.7279,10.7625,10.7625,10.7625,10.7625,10.7625,10.4802,10.2721,10.2721,9.9898,9.7892,9.7892,9.7892,9.7924,9.8091,9.8158,9.8291,9.8616,9.8692,9.8717,9.8717,9.8604,9.8666,9.8778,9.8862,9.902,9.917,9.9326,9.9384,9.9384,9.9384,9.9384,4.5125,4.6022,4.686,4.7279,4.7782,4.8253,4.8511,4.9236,5.0142,5.1087,5.2081,5.3354,5.5153,5.7194,5.9642,6.2631,6.5519,6.8278,7.085,7.2523,7.3916,7.5067,7.6217,7.7232,7.801,7.801,7.8314,7.9126,7.845,7.8348,7.9126,7.9498,7.987,8.0175,8.0209,8.0209,8.0209,8.0209,8.0209,8.0209,8.0309,8.051,8.0808,8.1102,8.1914,8.334,8.3782,8.4771,8.601,8.6651,8.7325,8.7972,8.903,8.9994,9.0897,9.167,9.2161,9.2477,9.2477,9.2477,9.2477,9.2477,9.2477,9.2583,9.2969,9.3872,9.4941,9.634,9.7073,9.7911,9.9389,10.0246,10.0918,10.1131,10.1991,10.2889,10.3696,10.4869,10.6001,10.6777,10.7279,10.7625,10.7625,10.7625,10.7625,10.7625,10.4802,10.2721,10.2721,9.9898,9.7892,9.7892,9.7892,9.7961,9.7992,9.8023,9.8225,9.8616,9.878,9.8905,9.8905,9.8905,9.8905,9.8905,9.8966,9.899,9.899,9.9088,9.9148,9.9148,9.9148,9.9148,4.5514,4.6142,4.683,4.8085,4.841,4.8732,4.9513,5.0499,5.1581,5.3318,5.4359,5.5622,5.7506,5.9628,6.2534,6.7063,6.8865,7.0276,7.1988,7.3433,7.4695,7.5845,7.6826,7.7874,7.8991,7.8416,7.8517,7.9837,7.872,7.8551,7.987,8.0107,8.0209,8.0209,8.0209,8.0209,8.0209,8.0209,8.0209,8.0209,8.0209,8.0309,8.061,8.0808,8.1889,8.359,8.3822,8.4781,8.6294,8.6593,8.7304,8.8265,8.9361,9.0528,9.1635,9.2267,9.2477,9.2477,9.2477,9.2477,9.2477,9.2477,9.2681,9.3123,9.3721,9.4752,9.6036,9.7216,9.8362,9.9484,10.0482,10.0761,10.1121,10.167,10.2412,10.3219,10.399,10.5126,10.618,10.6888,10.7316,10.7511,10.7625,10.7625,10.7625,10.7625,10.4802,10.2721,10.2721,9.9898,9.7892,9.7892,9.7892,9.7892,9.7892,9.8061,9.8225,9.8487,9.8679,9.8842,9.8905,9.8905,9.8905,9.8905,9.8905,9.8905,9.8905,9.8905,9.8905,9.8905,9.8905,9.8905,4.6651,4.7189,4.7486,4.835,4.8339,4.8693,5.1152,5.2776,5.4246,5.6172,5.7719,5.917,6.0629,6.245,6.4836,6.8154,6.9485,7.109,7.3402,7.5455,7.669,7.6792,7.8077,7.8991,7.9092,7.8416,7.8314,7.9126,7.845,7.8348,7.916,7.9837,8.0209,8.0209,8.0209,8.0209,8.0209,8.0209,8.0209,8.0209,8.0209,8.0309,8.061,8.061,8.1691,8.359,8.359,8.4682,8.6294,8.6593,8.7304,8.8265,8.9361,9.0878,9.2407,9.2477,9.2477,9.2477,9.2477,9.2477,9.2477,9.2477,9.3423,9.4527,9.4563,9.6616,9.9026,9.9135,10.0224,10.1177,10.0591,10.0929,10.1641,10.2412,10.3219,10.399,10.4798,10.5882,10.6681,10.7035,10.7158,10.7394,10.7549,10.7625,10.7625,10.7625,10.4802,10.2721,10.2721,9.9898,9.7892,9.7892,9.7892,9.7892,9.7892,9.8061,9.8091,9.8158,9.8423,9.8679,9.8905,9.8905,9.8905,9.8905,9.8905,9.8905,9.8905,9.8905,9.8905,9.8905,9.8905,9.8905,4.6262,4.698,4.7546,4.838,4.8914,4.9813,5.1819,5.3778,5.5707,5.7751,5.8895,6.0226,6.2118,6.4491,6.7123,6.9921,7.1187,7.2546,7.4463,7.6024,7.7063,7.7536,7.8483,7.9126,7.9126,7.8855,7.8822,7.9092,7.8855,7.9025,7.9735,8.004,8.0209,8.0209,8.0209,8.0209,8.0209,8.0209,8.0209,8.0209,8.0209,8.0309,8.041,8.0985,8.2035,8.3426,8.4006,8.513,8.6329,8.6877,8.7735,8.8867,9.0519,9.1754,9.2477,9.2477,9.2477,9.2477,9.2477,9.2477,9.2646,9.3554,9.4255,9.4964,9.6394,9.8054,9.9365,9.9838,10.0709,10.1376,10.1168,10.1295,10.1677,10.2522,10.3293,10.41,10.4908,10.5919,10.6829,10.7035,10.7158,10.7394,10.7549,10.7997,10.8405,10.8405,10.5619,10.3687,10.4207,10.1012,9.8635,9.8635,9.8189,9.7892,9.7892,9.7961,9.7992,9.8091,9.8385,9.8616,9.8679,9.8842,9.8905,9.8905,9.8905,9.8905,9.8905,9.8905,9.8905,9.8905,9.8905,9.9167,4.6022,4.6651,4.7417,4.8723,4.9865,5.126,5.3312,5.5411,5.7588,5.9784,6.094,6.2118,6.3923,6.6265,6.8583,7.0581,7.2108,7.3569,7.5094,7.6193,7.7096,7.757,7.8314,7.8754,7.8754,7.8754,7.8855,7.9092,7.9126,7.9431,8.0175,8.0209,8.0209,8.0209,8.0209,8.0209,8.0209,8.0209,8.0209,8.0209,8.0209,8.0209,8.0209,8.1156,8.2072,8.3124,8.4248,8.5204,8.6263,8.7122,8.8222,8.9565,9.1391,9.218,9.2379,9.2477,9.2477,9.2477,9.2477,9.2575,9.2841,9.3877,9.4844,9.5969,9.7534,9.8962,10.0104,10.0615,10.1131,10.1494,10.1494,10.1677,10.2081,10.2889,10.3696,10.4504,10.5311,10.6056,10.671,10.6881,10.7121,10.739,10.7883,10.8517,10.9,10.9223,10.6511,10.4616,10.5099,10.1904,9.9489,9.9489,9.8746,9.8263,9.8263,9.804,9.7961,9.8061,9.8291,9.8487,9.8552,9.8653,9.878,9.8842,9.8842,9.8842,9.8905,9.8905,9.8905,9.8905,9.9167,9.958,4.6142,4.6461,4.7152,4.9418,5.1234,5.3153,5.6053,5.7979,5.9932,6.2468,6.4286,6.5531,6.6337,6.7648,6.8896,6.9988,7.2085,7.4038,7.5097,7.6193,7.6893,7.6893,7.7536,7.7976,7.7976,7.801,7.8314,7.9058,7.9126,7.9431,8.0141,8.0175,8.0175,8.0175,8.0175,8.0175,8.0209,8.0209,8.0209,8.0209,8.0209,8.0209,8.0209,8.0953,8.1902,8.282,8.3909,8.5001,8.5959,8.7021,8.8533,9.0293,9.16,9.208,9.208,9.2379,9.2477,9.2477,9.2512,9.2867,9.3215,9.3215,9.5233,9.768,9.768,9.9484,10.1494,10.1494,10.1494,10.1494,10.1494,10.2081,10.2889,10.3696,10.4504,10.5311,10.6192,10.6376,10.6544,10.6881,10.6998,10.7417,10.8699,10.8888,10.9185,11.0003,10.7291,10.521,10.521,10.2313,10.0307,10.0307,9.9601,9.9118,9.9118,9.8375,9.7892,9.7892,9.8061,9.8158,9.8395,9.8395,9.846,9.8616,9.8616,9.8679,9.8905,9.8905,9.8905,9.8942,9.9731,10.0106,4.613,4.696,4.7964,5.0381,5.2436,5.4452,5.6901,5.8677,6.0544,6.3192,6.5023,6.6159,6.6257,6.7491,6.9157,7.097,7.2734,7.4235,7.5417,7.629,7.6893,7.6893,7.7536,7.7976,7.7976,7.8483,7.8855,7.9092,7.96,7.9735,7.9464,7.9431,7.9431,7.9431,7.9431,7.9667,8.0175,8.0209,8.0209,8.0209,8.0209,8.0209,8.0242,8.1494,8.2377,8.2854,8.4489,8.5481,8.5993,8.7606,8.9363,9.0953,9.1606,9.1879,9.208,9.2379,9.2477,9.2575,9.2867,9.312,9.338,9.484,9.5878,9.6979,9.8818,9.9842,10.0599,10.131,10.1494,10.1604,10.2191,10.2889,10.3586,10.3806,10.4504,10.5311,10.6192,10.6376,10.6544,10.6881,10.6998,10.7417,10.8699,10.9408,11.0003,11.082,10.8108,10.521,10.2907,10.1718,10.1124,10.1124,10.0418,9.9935,9.9935,9.9229,9.8746,9.8746,9.8258,9.7992,9.8158,9.8329,9.8395,9.846,9.846,9.8525,9.8525,9.8525,9.8889,9.9616,9.9841,10.058,4.6719,4.7855,4.9377,5.1958,5.401,5.603,5.8779,6.0292,6.1937,6.469,6.5618,6.6152,6.696,6.8236,6.9747,7.1799,7.3361,7.4661,7.5546,7.6115,7.642,7.642,7.6826,7.7198,7.7536,7.8213,7.8653,7.8653,7.9363,7.9431,7.8686,7.8957,7.9126,7.9126,7.9397,7.9769,8.0209,8.0209,8.0209,8.0209,8.0209,8.0209,8.0242,8.1731,8.2511,8.2785,8.4932,8.6303,8.6886,8.8433,8.9847,9.1161,9.1368,9.1676,9.198,9.218,9.2379,9.2477,9.2867,9.3215,9.3626,9.4912,9.5838,9.6787,9.8354,9.9367,10.0115,10.079,10.1274,10.1677,10.2485,10.3293,10.399,10.432,10.5018,10.5789,10.6302,10.6376,10.6544,10.6881,10.6998,10.7528,10.9108,10.9817,11.0523,11.16,10.9,10.5693,10.2424,10.2015,10.2015,10.2015,10.131,10.0789,10.0789,10.0009,9.9563,9.9563,9.9118,9.8811,9.8777,9.8449,9.8329,9.8552,9.8552,9.8616,9.8717,9.8717,9.8916,9.931,9.9946,10.0798,4.7619,4.9174,5.1138,5.3885,5.59,5.806,6.1221,6.2457,6.3592,6.6488,6.5985,6.5796,6.8133,6.9116,7.0402,7.2438,7.4064,7.5164,7.5614,7.5709,7.5709,7.5709,7.5709,7.6048,7.6927,7.7536,7.7942,7.8077,7.8653,7.8686,7.7942,7.8585,7.9025,7.9025,7.9735,8.0141,8.0209,8.0209,8.0209,8.0209,8.0209,8.0209,8.0242,8.1731,8.2475,8.285,8.5477,8.7157,8.8329,8.9294,9.0123,9.0812,9.1161,9.1506,9.1676,9.198,9.228,9.2477,9.2477,9.312,9.3888,9.4015,9.5194,9.6785,9.7178,9.8518,9.9968,10.0313,10.0907,10.1677,10.2595,10.3403,10.41,10.5018,10.5789,10.6376,10.6376,10.6376,10.6544,10.6918,10.6998,10.7639,10.9628,11.0003,11.0411,11.1712,10.9408,10.6325,10.3093,10.2721,10.2721,10.2721,10.2015,10.1607,10.1607,10.0901,10.0418,10.0418,10.0307,10.0252,9.9964,9.8717,9.83,9.8854,9.8854,9.8915,9.9111,9.9111,9.8905,9.8609,10.0113,10.0823,4.8505,5.0384,5.267,5.5559,5.8123,6.0501,6.2259,6.2716,6.3302,6.4987,6.5683,6.6362,6.7913,6.8904,7.017,7.2182,7.394,7.5164,7.5614,7.5709,7.5709,7.5709,7.5709,7.6251,7.7604,7.7367,7.7604,7.8788,7.8483,7.7908,7.7164,7.7841,7.8247,7.8247,7.8957,7.9634,8.0175,8.0209,8.0209,8.0209,8.0209,8.0209,8.0242,8.1731,8.3155,8.4551,8.5743,8.7052,8.8225,8.9085,8.9947,9.0812,9.1161,9.13,9.1471,9.1879,9.208,9.228,9.2832,9.3368,9.3979,9.441,9.5044,9.6037,9.7439,9.8344,9.9139,10.0582,10.1149,10.1788,10.3293,10.3806,10.4284,10.5789,10.6302,10.6376,10.6376,10.6376,10.6497,10.6673,10.6918,10.7374,10.8575,10.9034,10.8814,10.7922,10.7105,10.5693,10.3019,10.2721,10.2721,10.2721,10.2498,10.2424,10.2424,10.1718,10.1198,10.1198,10.0604,10.0438,10.0713,9.9834,9.9279,9.9117,9.9079,9.9175,9.9175,9.8816,9.9005,9.968,10.03,10.1098,4.9713,5.1846,5.4237,5.7459,5.9793,6.1619,6.2593,6.3071,6.3595,6.4672,6.5466,6.6402,6.7872,6.9155,7.0566,7.2532,7.404,7.5164,7.5422,7.5614,7.5709,7.5709,7.5709,7.6183,7.7367,7.713,7.7232,7.801,7.7671,7.713,7.6352,7.7367,7.7976,7.7976,7.9058,7.9803,8.0209,8.0209,8.0209,8.0209,8.0209,8.0581,8.1291,8.2069,8.3324,8.4921,8.6147,8.7147,8.8015,8.9252,9.0257,9.0812,9.1022,9.1161,9.13,9.1574,9.1879,9.218,9.2575,9.312,9.3648,9.3868,9.4499,9.5361,9.6811,9.7803,9.8801,10.0171,10.1002,10.1898,10.3476,10.388,10.4284,10.6009,10.6376,10.6376,10.6376,10.6376,10.6497,10.6664,10.6874,10.73,10.8353,10.8993,10.8814,10.6696,10.6399,10.5508,10.3019,10.2721,10.2721,10.2721,10.3093,10.3316,10.3316,10.2907,10.2721,10.2721,10.2226,10.1831,10.1612,10.1357,10.0978,10.0217,9.9953,9.9611,9.9196,9.8754,9.8702,9.8992,9.9581,10.022,5.0743,5.307,5.5838,5.9008,6.0732,6.184,6.2641,6.3164,6.3749,6.4703,6.5349,6.6189,6.7714,6.9269,7.0845,7.2509,7.4005,7.5033,7.5157,7.5417,7.5642,7.554,7.5608,7.5946,7.6623,7.669,7.6758,7.6893,7.6758,7.6386,7.5743,7.7164,7.7976,7.7976,7.9295,8.0073,8.0209,8.0073,8.0073,8.0209,8.0209,8.0987,8.2408,8.2408,8.3219,8.4708,8.6447,8.7415,8.7803,8.9556,9.0494,9.0707,9.0812,9.0917,9.1161,9.13,9.1574,9.198,9.208,9.2575,9.3215,9.3215,9.3939,9.4946,9.5878,9.7318,9.8745,9.9713,10.0701,10.1898,10.3476,10.388,10.4284,10.6009,10.6376,10.6376,10.6376,10.6376,10.6423,10.6627,10.68,10.73,10.8205,10.9067,10.8888,10.6511,10.6213,10.5322,10.3019,10.2721,10.2721,10.2721,10.3501,10.3984,10.3984,10.3984,10.3984,10.3984,10.3667,10.3223,10.2511,10.2888,10.2618,10.1308,10.0766,10.0101,9.9196,9.8754,9.8348,9.803,9.8779,9.9118,5.0488,5.3591,5.7038,5.9224,6.0363,6.1255,6.2517,6.2425,6.261,6.4518,6.498,6.5411,6.6786,6.8453,7.0,7.0994,7.3237,7.4865,7.4517,7.5113,7.5473,7.483,7.5303,7.5743,7.5845,7.5845,7.6149,7.686,7.6251,7.5811,7.5709,7.7164,7.7976,7.7976,7.8822,7.9566,8.0175,7.9566,7.9566,8.0209,8.0209,8.0987,8.2408,8.2408,8.3219,8.4708,8.623,8.7125,8.7517,8.9267,9.0207,9.0529,9.0707,9.0812,9.0917,9.1161,9.1506,9.1778,9.198,9.2575,9.3215,9.3215,9.4053,9.5193,9.5979,9.7498,9.8998,9.9883,10.0808,10.1898,10.3476,10.388,10.4284,10.6009,10.6376,10.6376,10.6376,10.6376,10.6376,10.6376,10.6718,10.7232,10.7546,10.7848,10.7328,10.5619,10.5396,10.469,10.2907,10.2721,10.2721,10.2721,10.3501,10.3984,10.3984,10.3984,10.3984,10.3984,10.3667,10.341,10.3335,10.3816,10.3271,10.167,10.0894,10.0101,9.9196,9.8754,9.844,9.8413,9.888,9.9118,5.2821,5.5376,5.79,6.0301,6.1132,6.1625,6.2579,6.2887,6.3195,6.4118,6.5018,6.5903,6.6869,6.8754,7.0429,7.1213,7.2645,7.3666,7.3927,7.4147,7.4168,7.4018,7.4627,7.51,7.51,7.5473,7.5845,7.6183,7.5912,7.5709,7.5709,7.6758,7.757,7.7976,7.8314,7.9025,8.0175,7.9058,7.8855,7.96,8.0006,8.075,8.1799,8.2205,8.3219,8.4708,8.623,8.7016,8.7409,8.9049,8.999,9.0422,9.0494,9.0707,9.0812,9.0952,9.1161,9.1471,9.1778,9.218,9.2575,9.277,9.365,9.4811,9.5688,9.7037,9.8434,9.9225,9.9893,10.0747,10.2767,10.334,10.3827,10.5888,10.6376,10.6376,10.6376,10.6376,10.6497,10.671,10.6918,10.7121,10.7511,10.7625,10.7105,10.5396,10.521,10.4616,10.2907,10.2721,10.2721,10.2721,10.3501,10.3984,10.3984,10.3984,10.4131,10.438,10.4105,10.3903,10.3903,10.3677,10.281,10.1296,10.0995,10.0093,9.8816,9.8348,9.8158,9.8158,9.8364,9.8672,5.4206,5.6084,5.7592,6.0147,6.104,6.1563,6.2579,6.3071,6.3472,6.3995,6.517,6.6354,6.7048,6.8909,7.0652,7.1173,7.1887,7.2604,7.3131,7.3055,7.307,7.3114,7.3958,7.4465,7.4356,7.5168,7.5709,7.5709,7.5709,7.5709,7.5709,7.6454,7.7164,7.7705,7.7705,7.8348,7.9634,7.8551,7.8382,7.9126,7.9667,8.0412,8.1325,8.2069,8.3118,8.4437,8.6163,8.7016,8.7335,8.8905,8.9881,9.0315,9.0388,9.0601,9.0812,9.0812,9.1057,9.13,9.1506,9.1778,9.2115,9.2525,9.3482,9.465,9.5427,9.6754,9.8038,9.8646,9.9071,9.9765,10.2026,10.273,10.3394,10.5631,10.6328,10.6376,10.6376,10.6376,10.6544,10.6881,10.6998,10.7121,10.7511,10.7625,10.7105,10.5396,10.521,10.4616,10.2907,10.2721,10.2721,10.2721,10.3501,10.3984,10.3984,10.4131,10.4272,10.469,10.4481,10.4297,10.4176,10.3384,10.241,10.0975,10.0694,9.9806,9.8348,9.8061,9.7892,9.7892,9.7892,9.8338,5.3067,5.433,5.5376,5.7469,5.8947,6.0393,6.2364,6.2364,6.2456,6.4426,6.5564,6.6454,6.7125,6.8581,6.974,6.9773,7.1227,7.2141,7.157,7.2262,7.2586,7.2128,7.3373,7.4074,7.3612,7.4864,7.5709,7.5709,7.5709,7.5709,7.5709,7.6454,7.6927,7.6961,7.6961,7.7333,7.8077,7.801,7.8382,7.9126,7.916,7.9904,8.1325,8.2069,8.2813,8.3693,8.5926,8.6907,8.7008,8.8829,8.9662,8.999,9.0315,9.0601,9.0812,9.0812,9.1057,9.13,9.13,9.1676,9.222,9.2919,9.3891,9.4965,9.5637,9.6981,9.8176,9.8212,9.8753,9.9673,10.1255,10.2243,10.3182,10.4907,10.5838,10.6376,10.6376,10.6376,10.6544,10.6881,10.6998,10.7121,10.7511,10.7625,10.7105,10.5396,10.521,10.4616,10.2907,10.2721,10.2721,10.2721,10.3501,10.3984,10.3984,10.4414,10.469,10.4721,10.4788,10.4686,10.4176,10.3384,10.241,10.0975,9.9836,9.8816,9.7961,9.7892,9.7892,9.7892,9.7892,9.8338,5.3221,5.4206,5.5315,5.7808,5.9101,6.0209,6.1809,6.2641,6.3318,6.4057,6.5277,6.6416,6.7157,6.8663,6.9942,7.0403,7.0596,7.0851,7.1242,7.1204,7.1158,7.1043,7.2505,7.3407,7.3231,7.4735,7.5484,7.5,7.5388,7.5484,7.5,7.5658,7.6352,7.6893,7.6386,7.6251,7.6521,7.7502,7.7874,7.7705,7.8653,7.9634,8.0648,8.1866,8.3084,8.4336,8.6129,8.6907,8.7008,8.8608,8.944,8.9771,8.999,9.0315,9.0601,9.0707,9.0917,9.1057,9.1196,9.1819,9.2646,9.3027,9.4277,9.5567,9.5813,9.6649,9.7486,9.7486,9.7653,9.8406,10.0499,10.1462,10.266,10.5422,10.6206,10.6376,10.6376,10.6376,10.6497,10.6829,10.6918,10.6894,10.6727,10.6732,10.6288,10.469,10.4393,10.4022,10.2796,10.2721,10.2721,10.2721,10.3019,10.3312,10.3592,10.3799,10.4199,10.481,10.4932,10.5002,10.5186,10.3813,10.2795,10.231,10.0195,9.8709,9.7892,9.7892,9.7892,9.7892,9.8412,9.9118,5.3006,5.3868,5.4976,5.7469,5.8423,5.9316,6.1348,6.2333,6.301,6.3687,6.4799,6.6133,6.7157,6.8436,6.9643,7.0461,7.0096,7.0059,7.0652,7.0415,7.0176,7.0363,7.1855,7.2915,7.2915,7.445,7.5325,7.4803,7.5291,7.5388,7.4902,7.5388,7.5946,7.6487,7.598,7.5709,7.5709,7.6961,7.7502,7.7266,7.8517,7.9634,8.0615,8.1832,8.3219,8.4708,8.623,8.7042,8.738,8.8564,8.9295,8.9517,8.9771,9.0099,9.0422,9.0601,9.0707,9.0812,9.1057,9.175,9.2756,9.3309,9.4457,9.5851,9.6234,9.669,9.7112,9.7112,9.7287,9.7883,9.9769,10.1275,10.307,10.5778,10.6376,10.6376,10.6376,10.6376,10.6497,10.6664,10.6579,10.6487,10.6242,10.5988,10.5508,10.4207,10.3984,10.3687,10.2796,10.2721,10.2721,10.2721,10.2866,10.3112,10.3455,10.3813,10.4176,10.4892,10.5056,10.5178,10.5409,10.3871,10.2909,10.2762,10.0606,9.9229,9.8709,9.8152,9.804,9.83,9.8858,9.9675,0.0,0.0,0.0,5.6207,5.673,5.7623,6.0948,6.1255,6.1379,6.3379,6.4395,6.546,6.6958,6.7935,6.8797,6.9607,6.9798,6.9798,6.9798,6.9798,6.9893,7.0176,7.1475,7.2438,7.2692,7.4064,7.5033,7.5228,7.5325,7.5422,7.5614,7.5709,7.5709,7.5709,7.5709,7.5709,7.5709,7.6454,7.7232,7.7976,7.872,7.987,8.1325,8.2069,8.3253,8.4776,8.6264,8.7347,8.8091,8.8801,8.9295,8.9517,8.9517,8.9847,9.0422,9.0422,9.0601,9.0812,9.0812,9.1541,9.2652,9.3625,9.4704,9.5785,9.6763,9.7112,9.7112,9.7112,9.7673,9.8446,9.9218,10.1695,10.4405,10.5997,10.6413,10.6376,10.6376,10.6376,10.6497,10.6664,10.621,10.5896,10.5979,10.558,10.4913,10.4096,10.3984,10.3687,10.2796,10.2721,10.2721,10.2721,10.3182,10.3522,10.3485,10.4395,10.4909,10.4871,10.5409,10.5485,10.4871,10.3718,10.2762,10.2286,10.0997,10.0307,10.0307,9.8746,9.8375,9.9155,9.9155,10.0009,5.2606,0.0,0.0,0.0,0.0,0.0,5.9193,6.024,6.1225,6.2764,6.3317,6.4053,6.6059,6.7118,6.7935,6.8797,6.9382,6.9798,6.9798,6.9798,6.9798,6.9893,7.0914,7.1871,7.2404,7.3532,7.4204,7.4172,7.4738,7.4935,7.4605,7.5291,7.5709,7.5709,7.5709,7.5709,7.5709,7.5912,7.642,7.7198,7.7942,7.9363,8.1325,8.2069,8.3828,8.6298,8.6738,8.7617,8.8801,8.9004,8.9184,8.9184,8.9407,8.9771,9.0099,9.0315,9.0601,9.0812,9.0812,9.1886,9.324,9.3764,9.5053,9.652,9.6938,9.7112,9.7112,9.7112,9.7673,9.8795,10.0547,10.2488,10.4347,10.5307,10.5997,10.6376,10.6376,10.6376,10.6376,10.6497,10.6608,10.626,10.512,10.5096,10.469,10.3316,10.3093,10.3019,10.2721,10.2721,10.2721,10.2721,10.3182,10.358,10.4004,10.4609,10.5094,10.5485,10.5636,10.5485,10.4871,10.4189,10.359,10.3185,10.1891,10.1198,10.1198,10.0121,9.9749,9.9972,10.0604,10.1421,5.2637,5.2698,5.3098,5.473,0.0,0.0,5.8331,5.9162,5.9993,6.1625,6.1963,6.2681,6.4894,6.6171,6.7181,6.8045,6.9088,6.9798,6.9798,6.9798,6.9798,6.9798,7.0619,7.1346,7.1778,7.2607,7.3242,7.3641,7.4106,7.4437,7.4605,7.5194,7.5614,7.5709,7.5709,7.5709,7.5709,7.6014,7.6589,7.7367,7.8111,7.96,8.1765,8.2205,8.4065,8.6907,8.6907,8.7753,8.9072,8.9072,8.9072,8.9072,8.9295,8.9662,8.999,9.0207,9.0494,9.0812,9.0812,9.1919,9.3411,9.3834,9.5088,9.6554,9.7008,9.7112,9.7112,9.7112,9.7919,9.9288,10.1598,10.2952,10.3769,10.4759,10.5397,10.5874,10.5961,10.612,10.6084,10.6413,10.6534,10.6075,10.4709,10.4575,10.4207,10.2907,10.2721,10.2721,10.2721,10.2721,10.2721,10.2721,10.3282,10.384,10.4214,10.478,10.5306,10.5724,10.5498,10.5072,10.459,10.4191,10.3683,10.3182,10.2792,10.2498,10.2498,10.1012,10.0492,10.0789,10.1607,10.2424,5.2544,5.2821,5.3375,5.5161,5.5345,0.0,5.8023,5.8146,5.83,6.0178,6.0578,6.1186,6.3349,6.4989,6.6345,6.6972,6.8594,6.9699,6.9765,6.9798,6.9798,6.9798,7.0361,7.0792,7.0891,7.139,7.2183,7.311,7.3342,7.3872,7.4966,7.5228,7.5422,7.5614,7.5709,7.5709,7.5709,7.642,7.713,7.7874,7.8619,8.0141,8.2272,8.2374,8.4065,8.6907,8.6907,8.7753,8.9072,8.9072,8.9072,8.9072,8.9072,8.944,8.999,8.999,9.0315,9.0812,9.0812,9.1813,9.3196,9.3834,9.4982,9.6307,9.6904,9.7112,9.7147,9.7322,9.834,9.9956,10.2205,10.2939,10.3208,10.406,10.4759,10.5181,10.5522,10.5611,10.5663,10.6169,10.6121,10.5589,10.4819,10.4389,10.391,10.3019,10.2907,10.2907,10.2907,10.2907,10.3019,10.3019,10.3785,10.4293,10.4379,10.5289,10.5803,10.5701,10.5315,10.4799,10.4115,10.3824,10.34,10.2907,10.3687,10.4096,10.4096,10.1793,10.1012,10.1718,10.2387,10.3204,5.2667,5.3498,5.4422,5.4822,5.6053,0.0,5.7161,5.7469,5.8023,5.8978,5.9162,5.9695,6.1155,6.3129,6.451,6.4031,6.6769,6.9103,6.9699,6.9798,6.9798,6.9798,6.9931,7.0229,7.0825,7.0404,7.0499,7.1287,7.208,7.2806,7.3599,7.4704,7.5325,7.5422,7.5614,7.5709,7.5709,7.5845,7.6318,7.713,7.7841,7.9363,8.1528,8.2137,8.4065,8.6907,8.6907,8.7753,8.9072,8.9072,8.9072,8.9072,8.9072,8.9295,8.9662,8.9881,9.0207,9.0494,9.0707,9.1813,9.3196,9.3834,9.4982,9.6307,9.6904,9.7112,9.7357,9.8621,9.9183,9.9745,10.1504,10.263,10.3309,10.3509,10.4324,10.5016,10.498,10.5307,10.5575,10.5663,10.6023,10.6112,10.5589,10.576,10.5396,10.3984,10.4319,10.4505,10.3799,10.4319,10.469,10.469,10.5507,10.5999,10.5961,10.6904,10.7082,10.6011,10.5935,10.5328,10.3721,10.4226,10.4222,10.3799,10.4505,10.4987,10.4987,10.3799,10.3019,10.2498,10.261,10.3204,5.3314,5.396,5.4884,5.5561,5.6238,0.0,0.0,5.7254,5.7469,5.8146,5.827,5.8577,5.9593,6.1315,6.2646,6.2516,6.5094,6.7069,6.7557,6.8825,6.9798,6.9798,6.9478,6.9353,6.9714,6.8989,6.8775,6.9588,7.1141,7.22,7.2696,7.4107,7.5033,7.5325,7.5422,7.5614,7.5709,7.5709,7.6115,7.6893,7.7638,7.916,8.1325,8.2069,8.4065,8.6907,8.6907,8.7753,8.9072,8.9072,8.9072,8.9072,8.9072,8.9295,8.9517,8.9881,9.0207,9.0388,9.0707,9.1813,9.3196,9.3834,9.4982,9.6307,9.6904,9.7112,9.7428,9.8972,9.9394,9.978,10.129,10.2211,10.2663,10.2939,10.3572,10.4288,10.4514,10.4887,10.5307,10.5611,10.5961,10.6213,10.5884,10.6056,10.5991,10.4802,10.4913,10.5099,10.469,10.4987,10.521,10.521,10.5679,10.6093,10.6227,10.6828,10.6825,10.5777,10.5483,10.4983,10.4084,10.4297,10.4797,10.5805,10.6213,10.6399,10.6399,10.5991,10.4987,10.3316,10.3316,10.3799,5.4453,5.4884,5.5715,5.6449,5.6511,5.6572,0.0,0.0,0.0,5.7402,5.7562,5.7746,5.83,5.9612,6.0764,6.1173,6.3316,6.4895,6.4735,6.7036,6.8822,6.8954,6.8373,6.8044,6.8174,6.7438,6.7141,6.7896,6.9801,7.12,7.183,7.3507,7.4638,7.5131,7.5228,7.5422,7.5614,7.5709,7.6014,7.669,7.7435,7.8855,8.0885,8.1799,8.3828,8.6704,8.6839,8.7753,8.9072,8.9072,8.9072,8.9072,8.9072,8.9184,8.9407,8.9881,9.0099,9.0422,9.0707,9.1813,9.3196,9.3834,9.5088,9.6414,9.7008,9.7112,9.7428,9.8972,9.9394,9.978,10.129,10.1856,10.2246,10.2561,10.3107,10.3706,10.3902,10.4455,10.498,10.5433,10.6047,10.6296,10.6069,10.6353,10.6399,10.5619,10.5619,10.5619,10.5508,10.5619,10.5693,10.5693,10.6024,10.6235,10.63,10.649,10.63,10.5536,10.4997,10.4578,10.4323,10.4278,10.5396,10.7811,10.7699,10.7699,10.7811,10.7514,10.6288,10.4207,10.4207,10.469,5.6453,5.7346,5.7955,5.6389,5.7525,5.838,5.6364,0.0,5.6907,5.6586,0.0,5.6592,5.6977,0.0,0.0,5.8374,6.1154,6.326,6.2524,6.3838,6.519,6.5702,6.5767,6.5924,6.6566,6.5782,6.5615,6.6115,6.7229,6.8684,7.0578,7.2575,7.3906,7.4672,7.5033,7.5325,7.5325,7.5614,7.5743,7.5845,7.6657,7.7841,7.9397,8.0784,8.305,8.596,8.6636,8.7753,8.9072,8.9072,8.9072,8.9072,8.9072,8.9072,8.9184,8.9771,8.999,9.0099,9.0601,9.1813,9.3196,9.3834,9.5332,9.7008,9.7112,9.7112,9.7428,9.8972,9.9394,9.978,10.129,10.214,10.2597,10.2597,10.2975,10.3445,10.3516,10.4228,10.4887,10.5016,10.601,10.6881,10.6888,10.7168,10.7217,10.6399,10.6919,10.7105,10.6399,10.6919,10.7328,10.7328,10.7739,10.7883,10.7883,10.7729,10.6969,10.5669,10.5065,10.4179,10.3015,10.4282,10.6213,10.8703,10.7997,10.7997,10.8703,10.7291,10.6028,10.5099,10.5099,10.5508,5.6562,5.702,5.7493,5.7152,5.7232,5.7221,5.6537,5.6364,5.6412,5.6237,0.0,0.0,0.0,0.0,0.0,0.0,5.9073,6.0272,5.9991,6.1002,6.2405,6.4508,6.3956,6.3647,6.4267,6.3941,6.4243,6.5226,6.6179,6.7482,6.918,7.1304,7.2977,7.394,7.4734,7.5131,7.5325,7.5614,7.5709,7.5709,7.6521,7.7671,7.916,8.0615,8.2949,8.5824,8.6602,8.7753,8.9072,8.9072,8.9072,8.9072,8.9072,8.9072,8.9184,8.9771,8.999,9.0099,9.0601,9.1643,9.2891,9.4426,9.5575,9.6515,9.6971,9.7112,9.7428,9.8972,9.9394,9.978,10.129,10.2105,10.2597,10.2597,10.2975,10.338,10.338,10.4168,10.4924,10.4924,10.601,10.6998,10.6998,10.7279,10.7514,10.7105,10.7402,10.7514,10.7105,10.7811,10.822,10.7699,10.8223,10.8373,10.7889,10.7663,10.6989,10.5542,10.4648,10.4313,10.4207,10.5322,10.6808,10.8888,10.8517,10.8517,10.8888,10.822,10.7402,10.6622,10.6102,10.6102,5.6789,5.6899,5.7119,5.7423,5.6839,5.6256,5.6365,5.6315,5.6204,5.594,5.6304,0.0,0.0,0.0,5.6282,5.6404,0.0,5.7647,5.7464,5.8246,5.9842,6.2481,6.2116,6.1917,6.2425,6.2548,6.3041,6.4241,6.5139,6.6333,6.8028,7.0241,7.2109,7.3375,7.4404,7.4968,7.5228,7.5518,7.5614,7.5709,7.6284,7.7367,7.8855,8.031,8.2611,8.552,8.6501,8.7753,8.9072,8.9072,8.9072,8.9072,8.9072,8.9072,8.9184,8.9771,8.999,9.0099,9.0601,9.1541,9.286,9.4878,9.5713,9.6058,9.6866,9.7112,9.7428,9.8972,9.9394,9.9745,10.1397,10.2246,10.2561,10.2701,10.3112,10.3345,10.358,10.436,10.4887,10.5108,10.6096,10.6998,10.6998,10.7279,10.7625,10.7625,10.7625,10.7625,10.7625,10.8405,10.8703,10.7997,10.8703,10.8888,10.7997,10.7699,10.6808,10.4987,10.4319,10.4393,10.521,10.5991,10.7217,10.8888,10.8703,10.8703,10.8888,10.8703,10.822,10.7625,10.6994,10.6696,5.7672,5.7853,5.7841,5.671,5.6462,5.6317,5.51,5.596,5.6779,5.5822,5.7118,5.7945,5.6343,5.6464,5.6464,0.0,5.5614,0.0,0.0,5.5938,5.715,5.88,6.0126,6.1071,6.1779,6.184,6.2148,6.2825,6.3704,6.51,6.726,6.9529,7.1516,7.3078,7.4107,7.4771,7.4968,7.5228,7.5422,7.5709,7.5743,7.6555,7.8077,7.9566,8.1866,8.4742,8.6264,8.7753,8.9072,8.9072,8.9072,8.9072,8.9072,8.9072,8.9184,8.9771,8.999,9.0099,9.0601,9.1611,9.3068,9.4878,9.5713,9.6058,9.6866,9.7112,9.7428,9.8972,9.9394,9.9851,10.1576,10.2316,10.2701,10.2872,10.3178,10.3445,10.4035,10.4514,10.4943,10.5522,10.6313,10.6998,10.6998,10.7279,10.7625,10.7625,10.7625,10.7625,10.7625,10.8405,10.8888,10.8888,10.9594,10.9706,10.8925,10.8108,10.6622,10.4207,10.3984,10.4393,10.521,10.5991,10.7217,10.8888,10.8108,10.8108,10.8888,10.8108,10.7625,10.7625,10.7625,10.7625,5.6466,5.6601,5.6678,5.6369,5.5707,5.5184,5.5188,5.587,5.6317,5.555,5.6839,5.7618,5.5842,5.6022,5.6173,0.0,0.0,5.4956,0.0,5.5256,5.6317,5.7664,5.8815,5.9716,6.0393,6.0486,6.0948,6.2056,6.2465,6.3548,6.5732,6.7441,6.9399,7.1483,7.1966,7.2625,7.3767,7.3665,7.3632,7.3836,7.5072,7.614,7.7279,7.9803,8.2002,8.3998,8.6027,8.7482,8.8395,8.8869,8.9072,8.9072,8.9072,8.9072,8.9184,8.9771,8.999,9.0099,9.1057,9.1957,9.3067,9.4525,9.5395,9.6058,9.6866,9.7112,9.7428,9.8972,9.9394,9.9851,10.1576,10.2316,10.2701,10.2837,10.3178,10.3544,10.3999,10.4478,10.5035,10.5486,10.6423,10.6998,10.6998,10.7279,10.7402,10.6919,10.7291,10.7402,10.6919,10.8517,10.952,10.9,11.0114,11.0411,10.9,10.7105,10.5916,10.5619,10.4616,10.4616,10.5916,10.6288,10.6919,10.7997,10.7811,10.7699,10.7997,10.7699,10.7625,10.7625,10.7625,10.7625,5.5458,5.5623,5.582,5.5961,5.539,5.4873,5.5195,5.5984,5.6462,5.5705,5.6915,5.7663,5.6137,5.6047,5.5867,0.0,0.0,5.4127,0.0,5.4728,5.5658,5.7198,5.8047,5.8701,5.9378,5.9439,5.9901,6.1009,6.1532,6.2693,6.4654,6.6543,6.8489,7.0274,7.0954,7.1739,7.2769,7.2818,7.2818,7.2802,7.4516,7.579,7.6689,7.9522,8.1956,8.3941,8.602,8.7482,8.8429,8.8869,8.9072,8.9072,8.9072,8.9072,8.9184,8.9771,9.0099,9.0422,9.1368,9.2163,9.3032,9.4312,9.5286,9.6058,9.6866,9.7112,9.7393,9.8656,9.9218,9.9816,10.1364,10.2244,10.2701,10.3112,10.338,10.3778,10.4324,10.4795,10.5343,10.5874,10.6517,10.6962,10.7079,10.7394,10.7402,10.6919,10.7291,10.7402,10.6919,10.8703,10.9891,10.9408,11.082,11.1192,10.9891,10.7514,10.6288,10.6808,10.5619,10.5322,10.6399,10.6696,10.7402,10.8517,10.7922,10.7997,10.8925,10.7997,10.7811,10.8108,10.7699,10.7625]}]]